[[{"header":{"parameterUnit":"m.s-1","parameterCategory":1,"la1":30.6,"la2":28.766,"lo1":-90.7593,"lo2":-88.6598,"dy":0.0162,"dx":0.0183,"nx":116,"ny":114,"refTime":"2023-10-06T12:00:00:Z","depth":0,"parameterNumber":2,"parameterNumberName":"U-component_of_WINDS"},"data":[0.0,0.0,0.0,0.0,0.0,0.0,0.0,0.0,0.0,0.0,0.0,0.0,0.0,0.0,0.0,0.0,0.0,0.0,0.0,0.0,0.0,0.0,0.0,0.0,0.0,0.0,0.0,0.0,0.0,0.0,0.0,0.0,0.0,0.0,0.0,0.0,0.0,0.0,0.0,0.0,0.0,0.0,0.0,0.0,0.0,0.0,0.0,0.0,0.0,0.0,0.0,0.0,0.0,0.0,0.0,0.0,0.0,0.0,0.0,0.0,0.0,0.0,0.0,0.0,0.0,0.0,0.0,0.0,0.0,0.0,0.0,0.0,0.0,0.0,0.0,0.0,0.0,0.0,0.0,0.0,0.0,0.0,0.0,0.0,0.0,0.0,0.0,0.0,0.0,0.0,0.0,0.0,0.0,0.0,0.0,0.0,0.0,0.0,0.0,0.0,0.0,0.0,0.0,0.0,0.0,0.0,0.0,0.0,0.0,0.0,0.0,0.0,0.0,0.0,0.0,0.0,0.0,0.0,0.0,0.0,0.0,0.0,0.0,0.0,0.0,0.0,0.0,0.0,0.0,0.0,0.0,0.0,0.0,0.0,0.0,0.0,0.0,0.0,0.0,0.0,0.0,0.0,0.0,0.0,0.0,0.0,0.0,0.0,0.0,0.0,0.0,0.0,0.0,0.0,0.0,0.0,0.0,0.0,0.0,0.0,0.0,0.0,0.0,0.0,0.0,0.0,0.0,0.0,0.0,0.0,0.0,0.0,0.0,0.0,0.0,0.0,0.0,0.0,0.0,0.0,0.0,0.0,0.0,0.0,0.0,0.0,0.0,0.0,0.0,0.0,0.0,0.0,0.0,0.0,0.0,0.0,0.0,0.0,0.0,0.0,0.0,0.0,0.0,0.0,0.0,0.0,0.0,0.0,0.0,0.0,0.0,0.0,0.0,0.0,0.0,0.0,0.0,0.0,0.0,0.0,0.0,0.0,0.0,0.0,0.0,0.0,0.0,0.0,0.0,0.0,0.0,0.0,0.0,0.0,0.0,0.0,0.0,0.0,0.0,0.0,0.0,0.0,0.0,0.0,0.0,0.0,0.0,0.0,0.0,0.0,0.0,0.0,0.0,0.0,0.0,0.0,0.0,0.0,0.0,0.0,0.0,0.0,0.0,0.0,0.0,0.0,0.0,0.0,0.0,0.0,0.0,0.0,0.0,0.0,0.0,0.0,0.0,0.0,0.0,0.0,0.0,0.0,0.0,0.0,0.0,0.0,0.0,0.0,0.0,0.0,0.0,0.0,0.0,0.0,0.0,0.0,0.0,0.0,0.0,0.0,0.0,0.0,0.0,0.0,0.0,0.0,0.0,0.0,0.0,0.0,0.0,0.0,0.0,0.0,0.0,0.0,0.0,0.0,0.0,0.0,0.0,0.0,0.0,0.0,0.0,0.0,0.0,0.0,0.0,0.0,0.0,0.0,0.0,0.0,0.0,0.0,0.0,0.0,0.0,0.0,0.0,0.0,0.0,0.0,0.0,0.0,0.0,0.0,0.0,0.0,0.0,0.0,0.0,0.0,0.0,0.0,0.0,0.0,0.0,0.0,0.0,0.0,0.0,0.0,0.0,0.0,0.0,0.0,0.0,0.0,0.0,0.0,0.0,0.0,0.0,0.0,0.0,0.0,0.0,0.0,0.0,0.0,0.0,0.0,0.0,0.0,0.0,0.0,0.0,0.0,0.0,0.0,0.0,0.0,0.0,0.0,0.0,0.0,0.0,0.0,0.0,0.0,0.0,0.0,0.0,0.0,0.0,0.0,0.0,0.0,0.0,0.0,0.0,0.0,0.0,0.0,0.0,0.0,0.0,0.0,0.0,0.0,0.0,0.0,0.0,0.0,0.0,0.0,0.0,0.0,0.0,0.0,0.0,0.0,0.0,0.0,0.0,0.0,0.0,0.0,0.0,0.0,0.0,0.0,0.0,0.0,0.0,0.0,0.0,0.0,0.0,0.0,0.0,0.0,0.0,0.0,0.0,0.0,0.0,0.0,0.0,0.0,0.0,0.0,0.0,0.0,0.0,0.0,0.0,0.0,0.0,0.0,0.0,0.0,0.0,0.0,0.0,0.0,0.0,0.0,0.0,0.0,0.0,0.0,0.0,0.0,0.0,0.0,0.0,0.0,0.0,0.0,0.0,0.0,0.0,0.0,0.0,0.0,0.0,0.0,0.0,0.0,0.0,0.0,0.0,0.0,0.0,0.0,0.0,0.0,0.0,0.0,0.0,0.0,0.0,0.0,0.0,0.0,0.0,0.0,0.0,0.0,0.0,0.0,0.0,0.0,0.0,0.0,0.0,0.0,0.0,0.0,0.0,0.0,0.0,0.0,0.0,0.0,0.0,0.0,0.0,0.0,0.0,0.0,0.0,0.0,0.0,0.0,0.0,0.0,0.0,0.0,0.0,0.0,0.0,0.0,0.0,0.0,0.0,0.0,0.0,0.0,0.0,0.0,0.0,0.0,0.0,0.0,0.0,0.0,0.0,0.0,0.0,0.0,0.0,0.0,0.0,0.0,0.0,0.0,0.0,0.0,0.0,0.0,0.0,0.0,0.0,0.0,0.0,0.0,0.0,0.0,0.0,0.0,0.0,0.0,0.0,0.0,0.0,0.0,0.0,0.0,0.0,0.0,0.0,0.0,0.0,0.0,0.0,0.0,0.0,0.0,0.0,0.0,0.0,0.0,0.0,0.0,0.0,0.0,0.0,0.0,0.0,0.0,0.0,0.0,0.0,0.0,0.0,0.0,0.0,0.0,0.0,0.0,0.0,0.0,0.0,0.0,0.0,0.0,0.0,0.0,0.0,0.0,0.0,0.0,0.0,0.0,0.0,0.0,0.0,0.0,0.0,0.0,0.0,0.0,0.0,0.0,0.0,0.0,0.0,0.0,0.0,0.0,0.0,0.0,0.0,0.0,0.0,0.0,0.0,0.0,0.0,0.0,0.0,0.0,0.0,0.0,0.0,0.0,0.0,0.0,0.0,0.0,0.0,0.0,0.0,0.0,0.0,0.0,0.0,0.0,0.0,0.0,0.0,0.0,0.0,0.0,0.0,0.0,0.0,0.0,0.0,0.0,0.0,0.0,0.0,0.0,0.0,0.0,0.0,0.0,0.0,0.0,0.0,0.0,0.0,0.0,0.0,0.0,0.0,0.0,0.0,0.0,0.0,0.0,0.0,0.0,0.0,0.0,0.0,0.0,0.0,0.0,0.0,0.0,0.0,0.0,0.0,0.0,0.0,0.0,0.0,0.0,0.0,0.0,0.0,0.0,0.0,0.0,0.0,0.0,0.0,0.0,0.0,0.0,0.0,0.0,0.0,0.0,0.0,0.0,0.0,0.0,0.0,0.0,0.0,0.0,0.0,0.0,0.0,0.0,0.0,0.0,0.0,0.0,0.0,0.0,0.0,0.0,0.0,0.0,0.0,0.0,0.0,0.0,0.0,0.0,0.0,0.0,0.0,0.0,0.0,0.0,0.0,0.0,0.0,0.0,0.0,0.0,0.0,0.0,0.0,0.0,0.0,0.0,0.0,0.0,0.0,0.0,0.0,0.0,0.0,0.0,0.0,0.0,0.0,0.0,0.0,0.0,0.0,0.0,0.0,0.0,0.0,0.0,0.0,0.0,0.0,0.0,0.0,0.0,0.0,0.0,0.0,0.0,0.0,0.0,0.0,0.0,0.0,0.0,0.0,0.0,0.0,0.0,0.0,0.0,0.0,0.0,0.0,0.0,0.0,0.0,0.0,0.0,0.0,0.0,0.0,0.0,0.0,0.0,0.0,0.0,0.0,0.0,0.0,0.0,0.0,0.0,0.0,0.0,0.0,0.0,0.0,0.0,0.0,0.0,0.0,0.0,0.0,0.0,0.0,0.0,0.0,0.0,0.0,0.0,0.0,0.0,0.0,0.0,0.0,0.0,0.0,0.0,0.0,0.0,0.0,0.0,0.0,0.0,0.0,0.0,0.0,0.0,0.0,0.0,0.0,0.0,0.0,0.0,0.0,0.0,0.0,0.0,0.0,0.0,0.0,0.0,0.0,0.0,0.0,0.0,0.0,0.0,0.0,0.0,0.0,0.0,0.0,0.0,0.0,0.0,0.0,0.0,0.0,0.0,0.0,0.0,0.0,0.0,0.0,0.0,0.0,0.0,0.0,0.0,0.0,0.0,0.0,0.0,0.0,0.0,0.0,0.0,0.0,0.0,0.0,0.0,0.0,0.0,0.0,0.0,0.0,0.0,0.0,0.0,0.0,0.0,0.0,0.0,0.0,0.0,0.0,0.0,0.0,0.0,0.0,0.0,0.0,0.0,0.0,0.0,0.0,0.0,0.0,0.0,0.0,0.0,0.0,0.0,0.0,0.0,0.0,0.0,0.0,0.0,0.0,0.0,0.0,0.0,0.0,0.0,0.0,0.0,0.0,0.0,0.0,0.0,0.0,0.0,0.0,0.0,0.0,0.0,0.0,0.0,0.0,0.0,0.0,0.0,0.0,0.0,0.0,0.0,0.0,0.0,0.0,0.0,0.0,0.0,0.0,0.0,0.0,0.0,0.0,0.0,0.0,0.0,0.0,0.0,0.0,0.0,0.0,0.0,0.0,0.0,0.0,0.0,0.0,0.0,0.0,0.0,0.0,0.0,0.0,0.0,0.0,0.0,0.0,0.0,0.0,0.0,0.0,0.0,0.0,0.0,0.0,0.0,0.0,0.0,0.0,0.0,0.0,0.0,0.0,0.0,0.0,0.0,0.0,0.0,0.0,0.0,0.0,0.0,0.0,0.0,0.0,0.0,0.0,0.0,0.0,0.0,0.0,0.0,0.0,0.0,0.0,0.0,0.0,0.0,0.0,0.0,0.0,0.0,0.0,0.0,0.0,0.0,0.0,0.0,0.0,0.0,0.0,0.0,0.0,0.0,0.0,0.0,0.0,0.0,0.0,0.0,0.0,0.0,0.0,0.0,0.0,0.0,0.0,0.0,0.0,0.0,0.0,0.0,0.0,0.0,0.0,0.0,0.0,0.0,0.0,0.0,0.0,0.0,0.0,0.0,0.0,0.0,0.0,0.0,0.0,0.0,0.0,0.0,0.0,0.0,0.0,0.0,0.0,0.0,0.0,0.0,0.0,0.0,0.0,0.0,0.0,0.0,0.0,0.0,0.0,0.0,0.0,0.0,0.0,0.0,0.0,0.0,0.0,0.0,0.0,0.0,0.0,0.0,0.0,0.0,0.0,0.0,0.0,0.0,0.0,0.0,0.0,0.0,0.0,0.0,0.0,0.0,0.0,0.0,0.0,0.0,0.0,0.0,0.0,0.0,0.0,0.0,0.0,0.0,0.0,0.0,0.0,0.0,0.0,0.0,0.0,0.0,0.0,0.0,0.0,0.0,0.0,0.0,0.0,0.0,0.0,0.0,0.0,0.0,0.0,0.0,0.0,0.0,0.0,0.0,0.0,0.0,0.0,0.0,0.0,0.0,0.0,0.0,0.0,0.0,0.0,0.0,0.0,0.0,0.0,0.0,0.0,0.0,0.0,0.0,0.0,0.0,0.0,0.0,0.0,0.0,0.0,0.0,0.0,0.0,0.0,0.0,0.0,0.0,0.0,0.0,0.0,0.0,0.0,0.0,0.0,0.0,0.0,0.0,0.0,0.0,0.0,0.0,0.0,0.0,0.0,0.0,0.0,0.0,0.0,0.0,0.0,0.0,0.0,0.0,0.0,0.0,0.0,0.0,0.0,0.0,0.0,0.0,0.0,0.0,0.0,0.0,0.0,0.0,0.0,0.0,0.0,0.0,0.0,0.0,0.0,0.0,0.0,0.0,0.0,0.0,0.0,0.0,0.0,0.0,0.0,0.0,0.0,0.0,0.0,0.0,0.0,0.0,0.0,0.0,0.0,0.0,0.0,0.0,0.0,0.0,0.0,0.0,0.0,0.0,0.0,0.0,0.0,0.0,0.0,0.0,0.0,0.0,0.0,0.0,0.0,0.0,0.0,0.0,0.0,0.0,0.0,0.0,0.0,0.0,0.0,0.0,0.0,0.0,0.0,0.0,0.0,0.0,0.0,0.0,0.0,0.0,-0.4409,-0.4436,0.0,0.0,0.0,0.0,0.0,0.0,0.0,0.0,0.0,0.0,0.0,0.0,0.0,0.0,0.0,0.0,0.0,0.0,0.0,0.0,0.0,0.0,0.0,0.0,0.0,0.0,0.0,0.0,0.0,0.0,0.0,0.0,0.0,0.0,0.0,0.0,0.0,1.3473,1.4737,1.6126,1.7591,1.6703,1.5541,1.4158,0.0,0.0,0.0,0.0,0.0,0.0,0.0,0.0,0.0,0.0,0.0,0.0,0.0,0.0,0.0,0.0,0.0,0.0,0.0,0.0,0.0,0.0,0.0,0.0,0.0,0.0,0.0,0.0,0.0,0.0,0.0,0.0,0.0,0.0,0.0,0.0,0.0,0.0,0.0,0.0,0.0,0.0,0.0,0.0,0.0,0.0,0.0,0.0,0.0,0.0,0.0,0.0,0.0,0.0,0.0,0.0,0.0,0.0,0.0,0.0,0.0,0.0,0.0,0.0,0.0,0.0,0.0,0.0,0.0,0.0,-0.5883,-0.5908,0.0,0.0,0.0,0.0,0.0,0.0,0.0,0.0,0.0,0.0,0.0,0.0,0.0,0.0,0.0,0.0,0.0,0.0,0.0,0.0,0.0,0.0,0.0,1.3836,1.4506,1.4961,1.4998,1.4993,0.0,0.0,0.0,0.0,0.0,0.0,1.3437,1.413,1.5159,1.6421,1.7989,1.9388,2.0625,2.0074,1.855,1.6207,1.5839,0.0,0.0,0.0,0.0,0.0,0.0,0.0,0.0,0.0,0.0,0.0,0.0,0.0,0.0,0.0,0.0,0.0,0.0,0.0,0.0,0.0,0.0,0.0,0.0,0.0,0.0,0.0,0.0,0.0,0.0,0.0,0.0,0.0,0.0,0.0,0.0,0.0,0.0,0.0,0.0,0.0,0.0,0.0,0.0,0.0,0.0,0.0,0.0,0.0,0.0,0.0,0.0,0.0,0.0,0.0,0.0,0.0,0.0,0.0,0.0,0.0,0.0,0.0,-0.4741,-0.5251,-0.5652,-0.6346,-0.7014,-0.7605,-0.7633,-0.8029,-0.875,-1.022,0.0,0.0,0.0,0.0,0.0,0.0,0.0,0.0,0.0,0.0,0.0,0.0,0.0,0.0,0.0,0.0,0.0,0.0,0.0,0.0,0.0,1.5062,1.6044,1.8344,1.8514,1.8513,1.8535,0.0,0.0,0.0,0.0,0.0,1.7108,1.7761,1.881,2.0199,2.2862,2.351,2.2301,2.2904,2.2255,2.0581,1.8502,1.7178,1.655,0.0,0.0,0.0,0.0,0.0,0.0,0.0,0.0,0.0,0.0,0.0,0.0,0.0,0.0,0.0,0.0,0.0,0.0,0.0,0.0,0.0,0.0,0.0,0.0,0.0,0.0,0.0,0.0,0.0,0.0,0.0,0.0,0.0,0.0,0.0,0.0,0.0,0.0,0.0,0.0,0.0,1.1946,1.2659,0.0,0.0,0.0,0.0,0.0,0.0,0.0,0.0,0.0,0.0,0.0,0.0,0.0,0.1815,0.0144,-0.1188,-0.2625,-0.4172,-0.5206,-0.598,-0.6575,-0.8144,-0.9147,-0.9666,-1.0288,0.0,-0.8907,-1.0733,0.0,0.0,0.0,0.0,0.0,0.0,0.0,0.0,0.0,0.0,0.0,0.0,0.0,0.0,0.0,0.0,0.0,0.0,0.0,0.0,0.0,1.878,2.0149,2.1308,2.2294,2.242,2.1442,2.1434,0.0,0.0,0.0,1.9341,1.9277,2.043,2.2,2.3891,2.5608,2.6039,2.5298,2.4721,2.412,2.3388,2.1413,1.992,1.8852,1.8051,0.0,0.0,0.0,0.0,0.0,0.0,0.0,0.0,0.0,0.0,0.0,0.0,0.0,0.0,0.0,0.0,0.0,0.0,0.0,0.0,0.0,0.0,0.0,0.0,0.0,0.0,0.0,0.0,0.0,0.0,0.0,0.0,0.0,0.0,0.0,0.0,0.0,0.0,0.0,1.2375,1.3365,1.379,1.3712,1.3288,0.0,0.0,0.0,0.0,0.0,0.0,0.0,0.0,0.0,0.573,0.4051,0.226,0.0417,-0.1131,-0.2706,-0.4261,-0.5473,-0.6504,-0.7413,-0.8496,-0.938,-1.0059,-1.0739,-1.0744,-1.0276,-1.1293,-1.1871,-1.22,0.0,0.0,0.0,0.0,-1.6984,-1.7806,0.0,0.0,0.0,0.0,0.0,0.0,0.0,0.0,0.0,0.0,0.0,0.0,2.0283,2.2207,2.3731,2.4664,2.5915,2.6121,2.4843,2.4336,2.3437,2.1952,2.1445,2.1243,2.1393,2.3418,2.528,2.6928,2.7972,2.8255,2.7757,2.6364,2.5644,2.5508,2.3883,2.2381,2.0988,1.9619,1.8412,1.7302,0.0,0.0,0.0,0.0,0.0,0.0,0.0,0.0,0.0,0.0,0.0,0.0,0.0,0.0,0.0,0.0,0.0,0.0,0.0,0.0,0.0,0.0,0.0,0.0,0.0,0.0,0.0,0.0,0.0,0.0,0.0,0.0,0.0,0.0,0.0,0.0,0.0,1.3987,1.4523,1.4661,1.458,1.4179,0.0,0.0,0.0,0.0,0.0,0.0,0.8788,0.822,0.7141,0.5531,0.4206,0.2532,0.0495,-0.1076,-0.2633,-0.4147,-0.5503,-0.6711,-0.7747,-0.8459,-0.9189,-0.9957,-1.0526,-1.0977,-1.128,-1.1699,-1.2121,-1.2464,-1.2675,-1.3293,-1.4161,-1.5428,-1.6704,-1.7925,0.0,0.0,0.0,0.0,0.0,0.0,0.0,0.0,0.0,0.0,0.0,2.0173,2.3597,2.4075,2.5484,2.887,2.926,2.9308,2.9288,2.7733,2.6394,2.5496,2.3866,2.3317,2.4081,2.7298,2.8985,2.8942,3.0594,3.0528,2.8828,2.7956,2.7439,2.7123,2.5447,2.3895,2.2535,2.1404,2.0781,2.0312,1.8552,0.0,0.0,0.0,0.0,0.0,0.0,0.0,0.0,0.0,0.0,0.0,0.0,0.0,0.0,0.0,0.0,0.0,0.0,0.0,0.0,0.0,0.0,0.0,0.0,0.0,0.0,0.0,0.0,0.0,0.0,0.0,0.0,0.0,0.0,0.0,0.0,0.0,0.0,1.5384,1.5087,0.0,0.0,0.0,0.0,1.1417,1.0899,1.038,0.9773,0.8748,0.7487,0.6007,0.4356,0.26,0.0705,-0.0709,-0.2199,-0.3744,-0.5285,-0.6437,-0.7273,-0.831,-0.9101,-0.9646,-1.0068,-1.0567,-1.1183,-1.1895,-1.2339,-1.2634,-1.2867,-1.339,-1.4154,-1.5432,-1.6661,-1.7864,0.0,0.0,0.0,0.0,0.0,0.0,0.0,0.0,1.8699,1.9459,2.2,2.4455,2.6356,2.8716,3.0857,3.2682,3.3863,3.3805,3.2147,3.1445,3.0232,2.8229,2.7059,2.7108,2.8431,2.9611,3.07,3.1747,3.1718,3.1334,3.0555,2.9021,2.8068,2.7623,2.6343,2.5448,2.4775,2.3176,2.2081,2.1267,1.959,1.7805,0.0,0.0,0.0,0.0,0.0,0.0,0.0,0.0,0.0,0.0,0.0,0.0,0.0,0.0,0.0,0.0,0.0,0.0,0.0,0.0,0.0,0.0,0.0,0.0,0.0,0.0,0.0,0.0,0.0,0.0,0.0,0.0,0.0,0.0,0.0,0.0,0.0,1.5613,1.4992,0.0,1.3782,1.2996,1.2168,1.1272,1.0728,1.0004,0.9062,0.8068,0.6961,0.576,0.4108,0.2685,0.1486,-0.0356,-0.1813,-0.2871,-0.425,-0.5328,-0.6146,-0.6618,-0.7255,-0.799,-0.8268,-0.8955,-0.987,-1.0474,-1.1246,-1.2071,-1.2499,-1.2958,-1.3539,-1.5166,-1.6199,-1.7029,0.0,0.0,0.0,0.0,0.0,0.0,0.0,0.0,2.0126,2.146,2.4405,2.7228,2.9458,3.2149,3.4384,3.5903,3.6813,3.6437,3.4414,3.3434,3.202,3.0016,2.9419,2.9626,3.074,3.1562,3.238,3.318,3.2772,3.229,3.1648,2.9908,2.8933,2.864,2.7573,2.7137,2.7049,2.5594,2.3988,2.2339,2.1016,1.9449,1.767,0.0,0.0,0.0,0.0,0.0,0.0,0.0,0.0,0.0,0.0,0.0,0.0,0.0,0.0,0.0,0.0,0.0,0.0,0.0,0.0,0.0,0.0,0.0,0.0,0.0,0.0,0.0,0.0,0.0,0.0,0.0,0.0,0.0,0.0,1.5112,1.5311,1.5732,1.5014,1.4274,1.387,1.2894,1.2025,1.1336,1.064,0.9807,0.8756,0.7742,0.6647,0.553,0.4047,0.2813,0.1893,0.0151,-0.1205,-0.2071,-0.3288,-0.4237,-0.4812,-0.5194,-0.5712,-0.6277,-0.6661,-0.7295,-0.8149,-0.8862,-0.9637,-1.0554,-1.1762,-1.2462,-1.2956,-1.4378,-1.5441,-1.64,0.0,0.0,0.0,0.0,0.0,0.0,0.0,1.9745,2.1025,2.4664,2.5968,2.8258,3.2787,3.4139,3.5788,3.8432,3.789,3.6992,3.6092,3.3551,3.1714,3.0884,3.0813,3.0774,3.081,3.3236,3.4067,3.3206,3.3789,3.3435,3.2109,3.0761,3.0129,3.0128,2.9141,2.8862,2.9108,2.8527,2.6584,2.3753,2.3051,2.1778,2.0255,0.0,0.0,0.0,0.0,0.0,0.0,0.0,0.0,0.0,0.0,0.0,0.0,0.0,0.0,0.0,0.0,0.0,0.0,0.0,0.0,0.0,0.0,0.0,0.0,0.0,0.0,0.0,0.0,0.0,0.0,0.0,0.0,0.0,1.4184,1.5215,1.582,1.5718,1.5144,1.4646,1.4236,1.2839,1.1866,1.1585,1.0682,0.9827,0.8937,0.7836,0.666,0.5318,0.4172,0.3029,0.1919,0.0718,-0.0343,-0.1299,-0.2506,-0.3168,-0.3381,-0.4233,-0.4562,-0.456,-0.5287,-0.5752,-0.6123,-0.7193,-0.7709,-0.8112,-1.0648,-1.1897,-1.2343,-1.3087,-1.4405,-1.6058,0.0,0.0,0.0,0.0,0.0,0.0,1.9388,2.1569,2.371,2.5506,2.8248,3.1245,3.4525,3.639,3.8224,4.0234,3.963,3.8475,3.695,3.4982,3.3206,3.1661,3.2144,3.278,3.3446,3.4139,3.4908,3.5785,3.4532,3.3764,3.3478,3.1382,3.0089,2.9453,2.8833,2.8508,2.8448,2.8323,2.7568,2.6399,2.4968,2.347,2.2082,0.0,0.0,0.0,0.0,0.0,0.0,0.0,0.0,0.0,0.0,0.0,0.0,0.0,0.0,0.0,0.0,0.0,0.0,0.0,0.0,0.0,0.0,0.0,0.0,0.0,0.0,0.0,0.0,0.0,0.0,0.0,1.1076,1.2431,1.4209,1.4765,1.5053,1.5221,1.4496,1.3864,1.3494,1.2538,1.1674,1.1063,1.0341,0.9355,0.8099,0.7091,0.6072,0.5053,0.3766,0.2719,0.2002,0.0618,-0.0322,-0.0779,-0.165,-0.2082,-0.2158,-0.24,-0.2702,-0.298,-0.3478,-0.4031,-0.4636,-0.5474,-0.6058,-0.6689,-0.9186,-1.0582,-1.1234,-1.204,-1.3957,-1.6288,0.0,0.0,0.0,0.0,0.0,0.0,2.0433,2.2821,2.5174,2.6934,2.9994,3.3041,3.5814,3.757,3.9051,4.0422,3.9091,3.7564,3.6195,3.4443,3.3102,3.2364,3.3109,3.3837,3.4342,3.4698,3.5276,3.6045,3.4683,3.4045,3.4097,3.2307,3.115,3.0566,3.0194,2.9821,2.9609,2.9695,2.951,2.9031,2.7995,2.635,2.4384,2.3578,2.2912,2.2228,2.1032,1.9978,1.899,1.7768,0.0,0.0,0.0,0.0,0.0,0.0,0.0,0.0,0.0,0.0,0.0,0.0,0.0,0.0,0.0,0.0,0.0,0.0,0.0,0.0,0.0,0.0,0.0,0.0,1.1094,1.2346,1.3818,1.4258,1.4426,1.4741,1.42,1.371,1.3341,1.2571,1.185,1.1114,1.0347,0.9317,0.7826,0.6854,0.577,0.4537,0.345,0.2477,0.1743,0.0655,-0.0068,-0.0354,-0.1033,-0.1336,-0.123,-0.1369,-0.1597,-0.1748,-0.2287,-0.268,-0.3056,-0.3836,-0.4361,-0.5029,0.0,0.0,0.0,0.0,-1.3596,-1.5831,0.0,0.0,0.0,0.0,0.0,0.0,2.1853,2.3746,2.5935,2.8601,3.1273,3.4005,3.6832,3.8014,3.8963,3.9873,3.7639,3.5749,3.4659,3.3015,3.2359,3.3004,3.3953,3.4441,3.443,3.5144,3.5446,3.5377,3.4685,3.4386,3.4479,3.3384,3.2788,3.2603,3.2201,3.1823,3.1532,3.1758,3.1578,3.116,3.1225,2.9519,2.6894,2.6117,2.5579,2.4996,2.326,2.1951,2.0731,1.9307,0.0,0.0,0.0,0.0,0.0,0.0,0.0,0.0,0.0,0.0,0.0,0.0,0.0,0.0,0.0,0.0,0.0,0.0,0.0,0.0,0.0,0.0,0.0,0.0,1.1239,1.229,1.3212,1.3631,1.3981,1.4318,1.412,1.3803,1.3319,1.2698,1.2018,1.1338,1.0458,0.9391,0.785,0.6865,0.0,0.0,0.0,0.2287,0.1343,0.0677,0.0282,0.0075,-0.0546,-0.0627,-0.0307,-0.078,-0.0899,-0.0821,-0.142,-0.1633,-0.1548,-0.2257,-0.2805,-0.3443,-0.6221,-0.7792,-0.8764,-1.1237,-1.3272,-1.4868,0.0,0.0,0.0,0.0,0.0,0.0,2.2106,2.472,2.7387,2.9466,3.2095,3.4828,3.7665,3.8813,3.9775,4.0775,3.9096,3.6962,3.4602,3.4013,3.3749,3.3791,3.5239,3.6009,3.5916,3.598,3.6559,3.7662,3.5553,3.5145,3.6254,3.4286,3.3327,3.3265,3.2127,3.1601,3.1529,3.1579,3.1353,3.1002,3.1388,3.0583,2.9135,2.8786,2.8219,2.747,2.5634,2.4946,2.4622,2.2308,2.0636,1.9216,1.7599,1.5207,0.0,0.0,0.0,0.0,0.0,0.0,0.0,0.0,0.0,0.0,0.0,0.0,0.0,0.0,0.0,0.0,0.0,0.0,0.0,1.0553,1.122,1.1934,1.2904,1.3117,1.3397,1.4022,1.3873,1.3503,1.2705,1.2288,1.1537,1.0449,0.9907,0.8843,0.6972,0.6207,0.5116,0.3581,0.2611,0.1836,0.1076,0.0421,0.0145,0.0294,0.0,0.0,0.0742,0.0479,0.0233,0.0152,-0.021,-0.0535,-0.0919,-0.1115,-0.1859,-0.3141,-0.5873,-0.7476,-0.856,-1.0931,-1.2542,-1.3684,0.0,0.0,0.0,0.0,0.0,0.0,2.337,2.5618,2.8072,3.03,3.2577,3.4916,3.7295,3.7617,3.7936,3.8508,3.6938,3.5281,3.379,3.4378,3.4908,3.5157,3.6272,3.6805,3.6608,3.6465,3.6616,3.7013,3.5726,3.5367,3.5889,3.4853,3.429,3.4015,3.3432,3.2987,3.2715,3.2479,3.2307,3.2038,3.2098,3.1525,3.0678,3.0162,2.9343,2.8295,2.719,2.6175,2.5161,2.3393,2.1682,2.0048,1.8335,1.6066,1.3639,0.0,0.0,0.0,0.0,0.0,0.0,0.0,0.0,0.0,0.0,0.0,0.0,0.0,0.0,0.816,0.8472,0.0,0.9788,1.0262,1.0807,1.1344,1.2051,1.2214,1.2662,1.359,1.3225,1.2655,1.206,1.1595,1.0857,0.9793,0.9285,0.8201,0.6461,0.562,0.454,0.3061,0.2146,0.1366,0.0863,0.0402,0.0322,0.055,0.0577,0.0767,0.1217,0.1106,0.0985,0.086,0.0581,0.0418,0.0205,-0.0242,-0.1001,-0.209,-0.426,-0.6307,-0.8311,-1.0095,-1.1709,-1.3152,0.0,0.0,0.0,0.0,0.0,0.0,0.0,2.6307,2.832,3.0886,3.2829,3.4749,3.6654,3.6367,3.5956,3.5741,3.4566,3.365,3.3285,3.4738,3.5822,3.6235,3.7024,3.7295,3.7044,3.6779,3.6434,3.5965,3.5685,3.5462,3.5361,3.5422,3.5288,3.5094,3.4912,3.4425,3.3757,3.3302,3.2849,3.2462,3.2148,3.1553,3.0878,3.0258,2.9464,2.8624,2.793,2.644,2.4585,2.3412,2.1761,1.9924,1.8168,1.6369,1.4402,1.2082,1.0621,0.0,0.0,0.0,0.0,0.0,0.0,0.0,0.0,0.8056,0.7865,0.7766,0.8104,0.8506,0.8723,0.9264,0.9701,0.9713,1.0225,1.0683,1.1017,1.1193,1.169,1.2646,1.2405,1.1907,1.1201,1.085,1.0177,0.9122,0.8578,0.7664,0.617,0.5142,0.3992,0.2936,0.1876,0.1234,0.0919,0.0736,0.0724,0.1049,0.1204,0.1476,0.1882,0.1792,0.1718,0.1658,0.142,0.1365,0.1463,0.0628,-0.0118,-0.0907,-0.256,-0.493,-0.7546,-0.8964,-1.0672,-1.2383,0.0,0.0,0.0,0.0,0.0,0.0,0.0,0.0,2.8297,3.0869,3.2836,3.4707,3.6621,3.6842,3.6288,3.4881,3.5268,3.5228,3.4303,3.5586,3.631,3.6121,3.7272,3.775,3.746,3.7064,3.688,3.693,3.5752,3.5704,3.6702,3.598,3.6049,3.6663,3.5478,3.4381,3.3434,3.2616,3.1446,3.0086,2.9928,2.9352,2.8563,2.8068,2.855,2.918,2.7498,2.6045,2.4559,2.2719,2.1138,1.9561,1.7959,1.6309,1.4539,1.283,1.1546,1.0454,1.0152,0.9961,0.9866,0.9966,0.9532,0.8955,0.0,0.866,0.8477,0.8082,0.8444,0.8762,0.883,0.8977,0.9144,0.9286,0.9523,0.9902,1.0224,1.0249,1.0311,1.0498,1.1216,1.1288,1.0202,0.9989,0.9414,0.8112,0.7693,0.693,0.5703,0.4906,0.4097,0.3477,0.2598,0.2,0.1892,0.1594,0.169,0.2176,0.212,0.2586,0.34,0.3132,0.303,0.3089,0.2487,0.2335,0.2559,0.1556,0.0814,0.0061,-0.1806,-0.3639,-0.5497,-0.7548,-0.9172,-1.0481,0.0,0.0,0.0,0.0,0.0,0.0,0.0,0.0,0.0,3.1732,3.3141,3.4304,3.5172,3.4132,3.3273,3.309,3.347,3.3857,3.4319,3.6151,3.7007,3.6637,3.7765,3.8184,3.7689,3.7181,3.6882,3.6758,3.5885,3.5787,3.6284,3.6064,3.574,3.5295,3.4725,3.3549,3.1913,3.0884,2.9529,2.8077,2.7734,2.6895,2.6019,2.5849,2.5803,2.5883,2.582,2.4691,0.0,2.2101,2.0791,1.9232,1.7903,1.649,1.5083,1.3448,1.2427,1.1762,1.1337,1.1025,1.0762,1.0967,1.0386,0.9856,0.9566,0.8948,0.8354,0.8105,0.8184,0.8212,0.8267,0.8389,0.8534,0.8402,0.8558,0.8665,0.8778,0.859,0.8484,0.8484,0.8925,0.9227,0.905,0.8844,0.8384,0.7545,0.7089,0.6422,0.5675,0.481,0.4167,0.3751,0.3122,0.2801,0.2883,0.2741,0.3022,0.3623,0.36,0.396,0.4576,0.4389,0.4301,0.4223,0.3874,0.3687,0.3574,0.2616,0.1766,0.0839,-0.0809,-0.2387,-0.4051,-0.6648,-0.8406,-0.9539,0.0,0.0,0.0,0.0,0.0,0.0,0.0,0.0,0.0,0.0,3.3172,3.359,3.3583,3.2085,3.1226,3.1631,3.2146,3.2859,3.3885,3.611,3.7125,3.6656,3.7424,3.7603,3.7005,3.6597,3.6146,3.5546,3.5376,3.5216,3.5055,3.5252,3.478,3.368,3.345,3.2226,3.0139,2.873,2.7254,2.5732,2.4979,2.4261,2.3477,2.3296,2.2934,2.2542,2.3681,2.2757,2.1036,2.0526,1.9556,1.824,1.727,1.644,1.5443,1.3987,1.3277,1.2874,1.2293,1.2001,1.1833,1.1665,1.112,1.0457,0.9851,0.8979,0.8193,0.8044,0.7857,0.7792,0.772,0.793,0.7985,0.7619,0.7541,0.7546,0.7408,0.7072,0.6822,0.6883,0.6847,0.7105,0.7732,0.7797,0.7576,0.7078,0.6619,0.6187,0.5787,0.505,0.4471,0.4362,0.3813,0.3689,0.4093,0.4106,0.4459,0.5061,0.5231,0.5484,0.5794,0.5786,0.572,0.5519,0.5354,0.5084,0.4578,0.367,0.2761,0.1708,0.0262,-0.1159,-0.2699,-0.5148,-0.6979,-0.821,0.0,0.0,0.0,0.0,0.0,0.0,0.0,0.0,0.0,0.0,0.0,0.0,0.0,3.2021,3.1655,3.0886,3.2329,3.3236,3.314,3.521,3.6192,3.5672,3.5791,3.5584,3.4906,3.4886,3.4307,3.3208,3.3772,3.3788,3.3268,3.3155,3.2969,3.2697,3.163,3.0143,2.8188,2.6387,2.45,2.2601,2.1633,2.1163,2.1051,2.0407,2.0123,2.0181,2.1209,2.0311,1.854,1.7699,1.6863,1.6062,1.5816,1.556,1.5329,1.4684,1.4136,1.3599,1.3029,1.3057,1.3195,1.2344,1.1531,1.0699,0.9695,0.8938,0.8296,0.7942,0.7801,0.7739,0.7657,0.7677,0.7433,0.6963,0.6889,0.6583,0.6102,0.5927,0.5676,0.5681,0.5221,0.5373,0.6255,0.7038,0.7209,0.6794,0.6543,0.6335,0.6251,0.5526,0.532,0.5527,0.4914,0.491,0.5523,0.5733,0.6087,0.66,0.6788,0.6991,0.7101,0.7224,0.7268,0.7232,0.6831,0.6291,0.5604,0.4785,0.3856,0.2825,0.1517,0.0217,-0.1233,-0.2447,-0.4266,-0.6195,0.0,0.0,0.0,0.0,0.0,0.0,0.0,0.0,0.0,0.0,0.0,0.0,0.0,0.0,0.0,0.0,3.1515,3.1984,3.2951,3.4448,3.484,3.3874,3.4251,3.416,3.3405,3.2822,3.2517,3.2524,3.1732,3.1406,3.1527,3.0485,2.9655,2.9056,2.8057,2.6538,2.4612,2.3062,2.1338,1.9575,1.8936,1.8161,1.7496,1.7943,1.7774,1.746,0.0,1.7995,1.765,1.6867,1.6575,1.6439,1.6202,1.5846,1.5518,1.5041,1.4508,1.4033,1.3685,1.3621,1.3403,1.2129,1.1451,1.0938,0.9815,0.8936,0.8174,0.7813,0.7425,0.7347,0.7412,0.7229,0.7153,0.7047,0.6586,0.6109,0.5886,0.5279,0.4797,0.4519,0.4833,0.5152,0.5438,0.6007,0.6654,0.7345,0.7032,0.6883,0.7269,0.6415,0.6232,0.6598,0.6448,0.6666,0.7466,0.7654,0.8117,0.8857,0.8996,0.8999,0.8958,0.8737,0.8664,0.8611,0.7789,0.7259,0.6767,0.5665,0.4643,0.3515,0.1844,0.0534,-0.0691,-0.2077,-0.3414,-0.4686,0.0,0.0,0.0,0.0,0.0,0.0,0.0,0.0,0.0,0.0,0.0,0.0,0.0,0.0,0.0,0.0,0.0,3.1369,3.207,3.3006,3.3081,3.2119,3.17,3.1122,3.0244,2.9465,2.9103,2.9286,2.8446,2.8009,2.804,2.7042,2.6046,2.5126,2.4281,2.3008,2.1353,1.9837,1.8308,1.6779,1.643,1.5746,1.505,1.6037,1.6119,0.0,1.6033,1.6392,1.6683,1.637,1.6355,1.6438,1.6429,1.6144,1.571,1.5459,1.4978,1.4405,1.4182,1.3816,1.3245,1.1835,1.1183,1.0655,0.9461,0.8571,0.7938,0.7504,0.7343,0.7212,0.7352,0.7509,0.7373,0.7234,0.6749,0.6118,0.5661,0.48,0.406,0.3772,0.4102,0.4548,0.4947,0.5307,0.6194,0.78,0.7426,0.7421,0.8037,0.7377,0.7182,0.7668,0.7575,0.7993,0.914,0.9313,1.0083,1.1256,1.1042,1.0886,1.0779,1.0195,0.9714,0.9332,0.8455,0.7595,0.693,0.5753,0.4709,0.3609,0.2038,0.0732,-0.0573,-0.19,-0.3081,-0.411,0.0,0.0,0.0,0.0,0.0,0.0,0.0,0.0,0.0,0.0,0.0,0.0,0.0,0.0,0.0,0.0,0.0,0.0,3.0497,3.0896,3.0937,3.0391,2.8344,2.6718,2.5658,2.498,2.4354,2.3775,2.3953,2.3679,2.2935,2.2818,2.2128,2.1053,2.0319,1.9329,1.8317,1.6934,1.5514,1.4248,1.4268,1.4007,1.3735,1.4647,1.5,1.4997,1.5352,1.5537,1.5669,1.6049,1.6135,1.61,1.6571,1.6411,1.5973,1.5707,1.5275,1.4709,1.4424,1.3705,1.2727,1.1676,1.0826,0.9885,0.8613,0.7995,0.7603,0.7239,0.7336,0.7508,0.7508,0.8106,0.8282,0.7576,0.7149,0.6629,0.5562,0.4397,0.3639,0.3486,0.3178,0.349,0.4618,0.5079,0.6059,0.8073,0.7836,0.7931,0.8641,0.8165,0.8136,0.8704,0.8323,0.8777,1.0233,1.0841,1.1921,1.3604,1.2944,1.261,1.2554,1.1546,1.0581,0.956,0.8561,0.7425,0.6171,0.5129,0.4128,0.3134,0.2077,0.0698,-0.0792,-0.1963,-0.3248,-0.4565,0.0,0.0,0.0,0.0,0.0,0.0,0.0,0.0,0.0,0.0,0.0,0.0,0.0,0.0,0.0,0.0,0.0,0.0,2.9623,2.8798,2.795,2.704,2.5743,2.4506,2.3438,2.233,2.1508,2.1006,1.9986,1.9137,1.8386,1.7494,1.6865,1.6399,1.5853,1.5544,1.5315,1.4461,1.3887,1.3634,1.3224,1.3015,1.297,1.3854,1.4052,1.3942,1.5079,1.5581,1.5713,1.608,1.6661,1.735,1.7251,1.7237,1.7016,1.6283,1.5663,1.5027,1.3899,1.3199,1.2459,1.0603,1.012,0.9858,0.8833,0.829,0.8207,0.8237,0.8096,0.8273,0.8836,0.8986,0.8971,0.8827,0.7814,0.69,0.6204,0.5103,0.4031,0.3644,0.4005,0.4613,0.5419,0.5792,0.6804,0.8842,0.8424,0.826,0.8997,0.8722,0.8807,0.9384,0.9743,1.053,1.1564,1.3396,1.4559,1.501,1.4895,1.4413,1.3588,1.2211,1.1001,0.9844,0.7702,0.642,0.5558,0.3988,0.287,0.1939,0.0471,-0.076,-0.2009,-0.3492,-0.4661,-0.567,0.0,0.0,0.0,0.0,0.0,0.0,0.0,0.0,0.0,0.0,0.0,0.0,0.0,0.0,0.0,0.0,0.0,0.0,0.0,2.6871,2.5777,2.4334,2.2862,2.1419,1.9937,1.8458,1.743,1.6858,1.5413,1.4457,1.3848,1.3237,1.2869,1.2706,1.2611,1.2677,1.2842,1.2432,1.2233,0.0,0.0,1.2263,1.2366,1.3408,1.3571,1.3468,1.4727,1.5594,1.6221,1.6936,1.7736,1.8253,1.7711,1.7411,1.7201,1.6414,1.5652,1.4797,1.3793,1.2748,1.1606,1.007,0.9392,0.9095,0.8384,0.8197,0.8309,0.8404,0.8583,0.8927,0.9291,0.9812,0.9862,0.9374,0.844,0.7575,0.644,0.5194,0.439,0.4003,0.4232,0.4844,0.5672,0.6306,0.7335,0.8997,0.867,0.8916,0.9774,0.9693,0.9884,1.0724,1.098,1.2119,1.3873,1.574,1.6838,1.7009,1.67,1.5737,1.4248,1.2501,1.069,0.8735,0.6469,0.4919,0.3988,0.2339,0.1267,0.0488,-0.0897,-0.2007,-0.3131,-0.4748,-0.5785,-0.6653,0.0,0.0,0.0,0.0,0.0,0.0,0.0,0.0,0.0,0.0,3.1281,0.0,0.0,0.0,0.0,0.0,0.0,0.0,0.0,0.0,2.4109,2.2067,2.0214,1.8306,1.6332,1.4629,1.3338,1.2439,1.1078,1.0167,0.9721,0.9716,0.9687,0.9655,1.0058,1.043,1.0684,1.0648,1.0661,1.0709,1.1451,1.1783,1.2026,0.0,1.333,1.327,1.4293,1.537,1.6541,1.7787,1.8555,1.8883,1.8076,1.7515,1.698,1.6487,1.5462,1.4231,1.3606,1.2291,1.0796,0.9729,0.8845,0.8319,0.7945,0.7984,0.829,0.8311,0.8977,0.956,0.9579,1.0436,1.0674,0.9422,0.9034,0.8382,0.6626,0.5389,0.4733,0.4614,0.4542,0.5001,0.596,0.6859,0.7894,0.8922,0.9178,0.9678,1.0785,1.0602,1.1133,1.2397,1.2488,1.3891,1.6807,1.7899,1.8766,1.9226,1.8306,1.6774,1.4753,1.2466,0.9827,0.7172,0.498,0.3307,0.1941,0.0511,-0.0511,-0.1128,-0.2089,-0.3155,-0.4228,-0.5537,-0.6639,-0.7556,0.0,0.0,0.0,0.0,0.0,0.0,0.0,0.0,0.0,0.0,3.0905,3.0869,0.0,0.0,0.0,0.0,0.0,0.0,0.0,0.0,0.0,2.0488,1.8998,1.7261,1.5234,1.3811,1.2238,1.0512,0.9257,0.8093,0.7073,0.6799,0.6848,0.7205,0.7419,0.7982,0.8889,0.9006,0.9597,1.0417,1.0707,1.1333,1.218,1.2389,0.0,0.0,1.4046,1.4542,1.4934,1.6549,1.7835,1.8883,1.8828,1.8285,1.7629,1.6861,1.542,1.3881,1.321,1.1991,1.0508,0.9677,0.9256,0.8913,0.8661,0.8604,0.8682,0.9371,0.9654,0.9856,1.0765,1.1124,1.0992,1.0119,0.9323,0.8435,0.7231,0.6505,0.5948,0.5851,0.6317,0.6901,0.7607,0.8392,0.9185,1.0247,1.0906,1.1315,1.1292,1.1464,1.2328,1.4093,1.531,1.6906,1.8843,2.0072,2.0752,2.0766,1.925,1.7239,1.4941,1.1732,0.8885,0.6318,0.3849,0.1946,0.044,-0.0991,-0.2093,-0.2868,-0.3255,-0.4067,-0.4983,-0.5779,-0.6869,-0.8037,0.0,0.0,0.0,0.0,0.0,0.0,0.0,2.8009,2.8753,3.0026,3.0528,3.081,3.0785,3.0381,2.9736,0.0,0.0,0.0,0.0,0.0,0.0,1.8888,1.7943,1.6397,1.4001,1.2626,1.0976,0.9065,0.0,0.6567,0.5466,0.5337,0.5505,0.5935,0.6394,0.7115,0.7989,0.85,0.9241,1.002,1.0507,1.114,1.1807,1.1841,0.0,0.0,1.2789,1.3312,1.3915,1.4905,1.6193,1.7303,1.7684,1.7551,1.6953,1.6144,1.4805,1.3484,1.267,1.1628,1.044,0.9744,0.9331,0.8977,0.868,0.8775,0.8879,0.946,0.9971,1.0538,1.1129,1.1495,1.1482,1.0631,0.9989,0.9152,0.7996,0.7438,0.7047,0.7004,0.7323,0.7902,0.8728,0.9383,1.018,1.1247,1.1909,1.2235,1.2193,1.3225,1.441,1.5478,1.7151,1.8731,2.0131,2.1026,2.1264,2.0929,1.9166,1.6919,1.4105,1.0974,0.8016,0.5292,0.287,0.101,-0.023,-0.1725,-0.276,-0.3339,-0.3827,-0.4422,-0.5245,-0.5915,-0.6778,-0.7724,0.0,0.0,0.0,0.0,0.0,0.0,0.0,2.7701,2.8675,2.9728,3.0424,3.0741,3.0569,2.9923,2.9082,0.0,0.0,0.0,0.0,0.0,0.0,0.0,0.0,0.0,1.3185,0.0,0.0,0.8366,0.7068,0.0,0.0,0.0,0.0,0.0,0.6034,0.671,0.7439,0.8149,0.8824,0.0,0.0,1.0785,1.1074,0.0,0.0,0.0,0.0,1.1832,1.251,1.3201,1.4051,1.5047,1.5644,1.6063,1.5972,1.5053,1.3953,1.2913,1.2364,1.132,1.0287,0.9993,0.9427,0.9066,0.877,0.8876,0.9271,0.9474,1.0193,1.0987,1.1136,1.1582,1.1643,1.0893,1.0518,0.9842,0.8734,0.8232,0.8173,0.8149,0.8347,0.8927,0.9881,1.0404,1.1073,1.2014,1.2781,1.3252,1.3299,1.5179,1.6385,1.6961,1.8827,2.0175,2.1033,2.1592,2.1481,2.0667,1.8765,1.6233,1.3237,1.0216,0.7332,0.4545,0.2167,0.0582,-0.0598,-0.2152,-0.2988,-0.3346,-0.3809,-0.4407,-0.5148,-0.569,-0.6332,-0.6958,0.0,0.0,0.0,0.0,0.0,0.0,0.0,2.7667,2.8805,3.0463,3.0741,3.0507,2.9801,2.9568,2.8862,0.0,0.0,0.0,0.0,0.0,0.0,0.0,0.0,0.0,0.0,0.0,0.0,0.8922,0.7769,0.0,0.0,0.0,0.0,0.0,0.0,0.6392,0.6989,0.7284,0.0,0.0,0.0,0.0,0.0,0.0,0.0,0.0,0.0,0.9868,0.9967,1.1516,1.2031,1.216,1.294,1.4099,1.5106,1.4587,1.3283,1.2189,1.2146,1.1261,1.028,1.0476,1.028,0.9784,0.9541,0.9574,0.9584,0.9728,1.0193,1.0871,1.1122,1.1672,1.1704,1.0711,1.0296,0.9865,0.8842,0.8992,0.9088,0.8975,1.0229,1.1008,1.1,1.1942,1.2627,1.2635,1.3848,1.4658,1.4923,1.6762,1.8125,1.8546,2.0517,2.1669,2.1957,2.2281,2.1813,2.0644,1.8275,1.5702,1.2882,0.9824,0.6935,0.4184,0.2185,0.0494,-0.1003,-0.2131,-0.2884,-0.3503,-0.3581,-0.3965,-0.4514,-0.4646,-0.5063,-0.5755,0.0,0.0,0.0,0.0,0.0,0.0,2.6498,2.7195,2.8037,2.9802,3.0039,2.988,2.9568,2.9058,2.8242,2.7084,0.0,0.0,0.0,0.0,0.0,0.0,0.0,0.0,0.0,0.0,1.0767,0.9235,0.822,0.0,0.0,0.0,0.0,0.0,0.0,0.652,0.6705,0.7215,0.0,0.0,0.0,0.0,0.0,0.0,0.0,0.0,0.0,0.0,0.8546,0.9133,0.9913,1.0641,1.0588,1.1422,1.2422,1.2751,1.2316,1.156,1.1421,1.0982,1.0438,1.053,1.034,1.0036,0.9977,0.9792,0.9754,1.0115,1.0378,1.085,1.1115,1.157,1.1629,1.1022,1.0806,1.0457,0.9692,0.9835,1.0028,0.9896,1.0582,1.1188,1.1869,1.2268,1.2772,1.362,1.4486,1.5375,1.624,1.761,1.8729,1.9305,2.1053,2.1873,2.1888,2.1759,2.1045,1.9523,1.7114,1.4697,1.2099,0.9258,0.6752,0.4577,0.2367,0.0882,-0.0128,-0.1406,-0.2045,-0.2299,-0.254,-0.2925,-0.3324,-0.3355,-0.3615,-0.4125,0.0,0.0,0.0,0.0,0.0,2.3806,2.6164,2.6957,2.781,2.9297,2.9486,2.9511,2.95,2.848,2.76,2.7069,2.5621,0.0,0.0,0.0,0.0,0.0,0.0,0.0,0.0,0.0,1.1002,0.9642,0.8684,0.7763,0.0,0.0,0.6618,0.6402,0.0,0.0,0.0,0.0,0.0,0.0,0.0,0.0,0.0,0.0,0.0,0.0,0.0,0.0,0.0,0.0,0.0,0.9101,0.8753,0.9212,1.0119,1.1156,1.1194,1.1002,1.0867,1.0672,1.0514,1.0547,1.0539,1.042,1.0201,1.0117,1.0046,1.0315,1.0685,1.0982,1.1115,1.1644,1.1799,1.1311,1.1319,1.108,1.0367,1.0548,1.0796,1.0606,1.1328,1.1973,1.2425,1.2828,1.3563,1.4549,1.5328,1.6267,1.7282,1.8359,1.9349,1.985,2.1446,2.1978,2.1561,2.1046,1.9904,1.8139,1.5881,1.36,1.1164,0.8676,0.6584,0.482,0.2676,0.1414,0.0779,-0.0389,-0.0909,-0.0909,-0.1168,-0.156,-0.1699,-0.1856,-0.1993,-0.2117,0.0,0.0,0.0,0.0,0.0,0.0,2.536,2.7074,2.8512,2.9373,2.9497,2.9494,2.9508,2.7962,2.6933,2.6997,2.6178,0.0,0.0,0.0,0.0,0.0,0.0,0.0,0.0,0.0,1.127,1.0191,0.9192,0.8382,0.7773,0.7443,0.7034,0.6584,0.0,0.0,0.0,0.0,0.0,0.0,0.0,0.0,0.0,0.0,0.0,0.0,0.0,0.0,0.0,0.0,0.0,0.0,0.0,0.8199,0.8608,1.0015,1.0346,1.0474,1.0664,1.0611,1.0416,1.0525,1.07,1.0733,1.0352,1.0553,1.0741,1.0451,1.0819,1.1247,1.1247,1.1776,1.2102,1.1596,1.1475,1.1309,1.092,1.1107,1.1302,1.1018,1.3031,1.403,1.2888,1.4173,1.5149,1.5447,1.6486,1.7363,1.7939,1.9304,2.019,2.0591,2.1915,2.2098,2.1218,2.0199,1.8652,1.6737,1.4661,1.2515,1.0129,0.8347,0.6558,0.4508,0.3138,0.2238,0.1581,0.0922,0.0527,0.0527,0.0264,0.0133,0.0,-0.0273,-0.0277,0.0,0.0,0.0,0.0,0.0,0.0,0.0,0.0,2.6028,2.6739,2.7612,2.7733,2.7947,2.8559,2.7629,2.6962,2.6918,2.619,0.0,0.0,0.0,0.0,0.0,0.0,0.0,0.0,0.0,1.1673,1.1078,1.015,0.9408,0.8821,0.8243,0.7573,0.6863,0.6249,0.578,0.0,0.0,0.0,0.0,0.0,0.0,0.3411,0.0,0.0,0.0,0.0,0.0,0.0,0.0,0.0,0.0,0.0,0.0,0.0,0.8759,0.9435,1.0046,1.048,1.08,1.0998,1.1131,1.1256,1.1293,1.1364,1.1273,1.1188,1.1269,1.1432,1.1644,1.1644,1.2041,1.2265,1.2013,1.2467,1.2635,1.192,1.2492,1.2783,1.2194,1.3746,1.4787,1.4524,1.5659,1.649,1.6481,1.7391,1.8106,1.858,1.9811,2.0545,2.0903,2.1655,2.1594,2.0578,1.9233,1.7457,1.4912,1.3309,1.12,0.8859,0.7833,0.6681,0.5182,0.4208,0.3521,0.3113,0.255,0.2418,0.2438,0.2437,0.2458,0.2354,0.1966,0.1971,0.1965,0.0,0.0,0.0,0.0,0.0,0.0,0.0,2.5607,2.6272,2.6844,2.6908,2.7108,2.766,2.6981,2.6498,2.645,2.5675,0.0,0.0,0.0,0.0,0.0,0.0,0.0,1.3608,1.2671,1.1975,1.1505,1.0754,1.0044,0.9365,0.8816,0.7962,0.6848,0.6117,0.549,0.0,0.0,0.0,0.0,0.0,0.0,0.1837,0.0,0.0,0.0,0.0,0.0,0.0,0.0,0.0,0.0,0.0,0.0,0.0,0.0,0.8726,0.9374,1.0314,1.0838,1.1199,1.1547,1.1704,1.1925,1.2065,1.1872,1.1678,1.1927,1.1963,1.2041,1.2305,1.2437,1.2507,1.2458,1.2814,1.3038,1.2481,1.3247,1.4026,1.4374,1.5171,1.5885,1.649,1.7255,1.7631,1.7824,1.8608,1.9358,1.9639,2.0541,2.1189,2.163,2.1586,2.0967,2.0053,1.8557,1.6662,1.4173,1.2505,1.0489,0.8371,0.7654,0.6737,0.5915,0.5256,0.494,0.0,0.4327,0.4335,0.4664,0.4412,0.4611,0.4692,0.3875,0.3749,0.3754,0.0,0.0,0.0,0.0,0.0,0.0,0.0,2.557,2.665,2.6801,2.6763,2.6712,2.6716,2.6009,2.5535,2.5512,2.4716,0.0,0.0,0.0,0.0,0.0,0.0,0.0,1.3549,1.2843,1.2207,1.1612,1.1052,1.0379,0.9687,0.928,0.8269,0.6756,0.6069,0.5332,0.0,0.0,0.0,0.0,0.0,0.0,0.0,0.0,0.0,0.0,0.0,0.0,0.0,0.0,0.0,0.0,0.0,0.0,0.0,0.0,0.0,0.0,0.0,1.0844,1.1188,1.1744,1.2171,1.2344,1.2194,1.2211,0.0,1.2473,1.2429,1.2576,1.3384,1.3112,1.2856,1.3054,1.2917,1.287,1.2803,1.3563,1.5093,1.7223,1.7078,1.7365,1.881,1.8725,1.8894,1.9358,2.0279,2.0969,2.1117,2.1489,2.1964,2.258,2.1644,2.0684,1.9755,1.8013,1.6063,1.3997,1.1969,1.0138,0.8434,0.7776,0.7076,0.6575,0.6403,0.6328,0.6324,0.6234,0.6381,0.6744,0.641,0.6689,0.699,0.5541,0.5188,0.5437,0.0,0.0,0.0,0.0,0.0,0.0,0.0,0.0,0.0,0.0,2.5371,2.4971,2.4971,2.4216,2.3707,0.0,0.0,0.0,0.0,0.0,0.0,0.0,0.0,0.0,1.3718,1.2893,1.2592,1.2801,1.1904,1.149,1.1535,1.053,0.919,0.7489,0.6106,0.4291,0.0,0.0,0.0,0.0,0.0,0.0,0.0,0.0,0.0,0.0,0.2165,0.2458,0.0,0.0,0.0,0.0,0.0,0.0,0.0,0.0,0.8219,0.9,1.0376,0.0,1.1625,1.2104,1.2519,1.2902,0.0,1.2974,1.3078,1.3175,1.3319,1.3707,1.454,1.4077,1.3987,1.4999,1.5325,1.5397,1.536,1.6159,1.7269,1.813,1.8863,1.9387,1.9793,2.0402,2.0986,2.1133,2.1739,2.2123,2.2459,2.2704,2.2688,2.258,2.1929,2.0956,1.9696,1.7596,1.5231,1.2736,1.1566,0.985,0.7938,0.8353,0.8207,0.792,0.8571,0.8755,0.8469,0.8628,0.8511,0.8198,0.8082,0.8079,0.797,0.7235,0.7009,0.68,0.0,0.0,0.0,0.0,0.0,0.0,0.0,0.0,0.0,0.0,0.0,2.4659,2.3891,2.3725,0.0,0.0,0.0,0.0,0.0,0.0,0.0,0.0,0.0,1.6029,1.3793,1.3407,1.321,1.3159,1.2729,1.2363,1.1997,1.1008,0.9493,0.7539,0.5511,0.3514,0.0,0.0,0.0,0.0,0.0777,0.0,0.0,0.0,0.0,0.0,0.1897,0.2279,0.0,0.3383,0.3856,0.4263,0.0,0.0,0.0,0.0,0.8275,0.9035,1.0345,1.1418,1.235,1.3046,1.351,1.3792,1.393,1.3846,1.3883,1.4205,1.4629,1.5147,1.5779,1.5451,1.5409,1.6103,1.6415,1.6616,1.7173,1.8091,1.9046,1.9671,2.0374,2.1009,2.1318,2.1765,2.2205,2.2474,2.2848,2.3174,2.3444,2.3553,2.3374,2.3049,2.2134,2.1133,2.0043,1.7978,1.5874,1.3709,1.2258,1.0791,0.9345,0.9739,0.9711,0.9541,1.0311,1.0451,1.0242,1.0107,0.9992,0.9836,0.961,0.9496,0.9414,0.8671,0.8173,0.7833,0.0,0.0,0.0,0.0,0.0,0.0,0.0,0.0,0.0,0.0,0.0,0.0,0.0,0.0,0.0,0.0,0.0,0.0,0.0,0.0,0.0,0.0,1.7198,1.6115,1.4317,1.421,1.3887,1.3353,1.3486,1.2979,1.1898,1.1176,0.9624,0.724,0.5015,0.3234,0.0,0.0,0.0,0.0,0.0936,0.0,0.0,0.0,0.0,0.0,0.0,0.0,0.0,0.3343,0.3865,0.4565,0.5196,0.0,0.0,0.0,0.0,0.0,1.0331,1.1881,1.3139,1.3831,1.427,1.4627,1.4873,1.4891,1.4864,1.5366,1.5875,1.644,1.6919,1.6817,1.6698,1.6937,1.7112,1.7653,1.8839,1.9962,2.0724,2.1418,2.1929,2.2531,2.2768,2.291,2.318,2.357,2.3816,2.4088,2.4102,2.4209,2.4026,2.3565,2.2346,2.1434,2.0682,1.8673,1.6981,1.5434,1.3649,1.2148,1.1207,1.1233,1.1183,1.1314,1.1769,1.1865,1.1747,1.1188,1.1214,1.1504,1.0906,1.0669,1.0745,0.9688,0.9218,0.8764,0.0,0.0,0.0,0.0,0.0,0.0,0.0,0.0,0.0,0.0,0.0,0.0,0.0,0.0,0.0,0.0,0.0,0.0,0.0,0.0,0.0,1.7759,1.6713,1.6239,1.6413,1.5124,1.4501,1.4626,1.4042,1.329,1.2392,1.1881,1.0019,0.7098,0.5919,0.4342,0.2555,0.245,0.0,0.0,0.1975,0.0,0.0,0.0,0.0,0.0,0.0,0.0,0.0,0.357,0.4268,0.4977,0.5543,0.0,0.0,0.0,0.0,0.0,1.123,1.295,1.4208,1.3199,1.4068,1.5201,1.5046,1.5412,1.58,1.6186,1.6619,1.7174,1.7855,1.7806,1.7867,1.9181,1.9628,2.0296,2.1705,2.213,2.2633,2.3342,2.3851,2.4196,2.4066,2.4176,2.415,2.4388,2.436,2.451,2.4916,2.4611,2.4423,2.3956,2.2992,2.2046,2.124,1.902,1.7107,1.5434,1.4504,1.3297,1.1967,1.2402,1.2842,1.313,1.3258,1.3321,1.3412,1.2954,1.2408,1.1959,1.1541,1.1202,1.1036,1.0422,1.0053,0.9692,0.0,0.0,0.0,0.0,0.0,0.0,0.0,0.0,0.0,0.0,0.0,0.0,0.0,0.0,0.0,0.0,0.0,0.0,0.0,0.0,1.9642,1.9511,1.7752,1.6646,1.6308,1.6189,1.5984,1.5703,1.5339,1.4608,1.3529,1.1535,0.9594,0.7697,0.6435,0.5094,0.3814,0.3668,0.3249,0.2671,0.0,0.0,0.0,0.0,0.0,0.0,0.0,0.0,0.0,0.0,0.4235,0.5081,0.5659,0.0,0.0,0.0,0.0,0.0,1.1431,1.3013,1.4336,1.3815,1.4852,1.6005,1.6163,1.638,1.6627,1.7308,1.7855,1.8328,1.8821,1.898,1.9245,2.0441,2.1408,2.2306,2.2722,2.3396,2.4036,2.4488,2.481,2.5034,2.517,2.4848,2.4679,2.4782,2.4596,2.4559,2.4535,2.4376,2.4072,2.3321,2.2521,2.1474,2.0298,1.9107,1.7792,1.6788,1.538,1.4271,1.377,1.3778,1.3733,1.3786,1.4082,1.4104,1.4,1.3428,1.2838,1.2543,1.2121,1.1776,1.1384,1.0992,1.0744,1.0302,0.0,0.0,0.0,0.0,0.0,0.0,0.0,0.0,0.0,0.0,0.0,0.0,0.0,0.0,0.0,0.0,0.0,0.0,0.0,1.9623,1.9526,2.0553,1.8878,1.7643,1.7059,1.7416,1.7334,1.6745,1.644,1.5504,1.397,1.0952,0.9196,0.8409,0.7095,0.6078,0.5355,0.5044,0.4581,0.4,0.0,0.0,0.0,0.0,0.0,0.0,0.0,0.0,0.0,0.0,0.0,0.0,0.0,0.0,0.0,0.883,0.9656,1.0578,1.162,1.3008,1.4213,1.4641,1.5635,1.657,1.7308,1.7198,1.7258,1.831,1.9009,1.9381,1.9618,2.0049,2.0693,2.1592,2.2874,2.3695,2.3872,2.4521,2.5119,2.5513,2.5648,2.5744,2.5956,2.5484,2.5031,2.4996,2.4682,2.4232,2.3904,2.3833,2.3403,2.2465,2.174,2.0696,1.9328,1.8795,1.8132,1.7524,1.6012,1.5201,1.4911,1.4645,1.4444,1.4462,1.4573,1.4578,1.4367,1.3572,1.3111,1.3052,1.2553,1.2186,1.1893,1.1689,1.1399,1.1029,0.0,0.0,0.0,0.0,0.0,0.0,0.0,0.0,0.0,0.0,0.0,0.0,0.0,0.0,0.0,0.0,0.0,0.0,0.0,1.957,1.9116,1.9427,1.9218,1.9617,2.0695,1.8843,1.7852,1.7796,1.6798,1.5042,1.2616,1.0497,0.9288,0.8925,0.8306,0.768,0.7099,0.663,0.6056,0.5405,0.4656,0.0,0.0,0.0,0.0,0.0,0.0,0.0,0.0,0.0,0.0,0.0,0.0,0.0,0.836,0.8855,0.9681,1.0786,1.2256,1.3479,1.4528,1.5257,1.5786,1.6412,1.747,1.745,1.7633,1.9158,1.9639,1.9876,2.0113,2.1146,2.2337,2.3413,2.3903,2.4617,2.5977,2.5697,2.581,2.6999,2.6865,2.6586,2.6415,2.5783,2.5326,2.4996,2.4408,2.3961,2.3504,2.3224,2.2786,2.2208,2.1155,2.0118,1.8912,1.8117,1.7138,1.6207,1.6013,1.5572,1.4732,1.4895,1.5113,1.5403,1.4933,1.4789,1.4895,1.3832,1.3406,1.307,1.2635,1.2488,1.2488,1.234,1.2259,1.2132,0.0,0.0,0.0,0.0,0.0,0.0,0.0,0.0,0.0,0.0,0.0,0.0,0.0,0.0,0.0,0.0,0.0,0.0,0.0,1.9575,1.9313,2.0038,1.9266,1.9072,1.9599,1.9353,1.9167,1.8982,1.6783,1.4809,1.2968,1.1607,1.0622,0.9918,0.9646,0.8709,0.7355,0.7444,0.6868,0.5837,0.5154,0.4732,0.0,0.0,0.0,0.0,0.0,0.0,0.0,0.0,0.5001,0.6007,0.664,0.7621,0.8692,0.9167,0.9897,1.0735,1.1791,1.3308,1.4711,1.5199,1.6064,1.694,1.7623,1.8073,1.8665,1.9671,2.0124,2.0515,2.0911,2.1885,2.2882,2.3644,2.4552,2.54,2.5962,2.6221,2.6502,2.6908,2.6906,2.6779,2.6532,2.5613,2.4975,2.4567,2.3818,2.3201,2.2841,2.2308,2.1764,2.09,1.9876,1.8594,1.713,1.6716,1.5972,1.4999,1.5523,1.5572,1.501,1.504,1.4968,1.4822,1.4597,1.4236,1.3573,1.3058,1.2609,1.2519,1.2776,1.2811,1.2958,1.3006,1.3087,1.3159,0.0,0.0,0.0,0.0,0.0,0.0,0.0,0.0,0.0,0.0,0.0,0.0,0.0,0.0,0.0,0.0,0.0,0.0,2.0116,1.9181,1.8941,1.9713,1.8831,1.8427,1.867,1.9545,1.9655,1.8957,1.6666,1.488,1.3564,1.2554,1.1761,1.1137,1.0704,0.9812,0.8636,0.8215,0.7584,0.6809,0.5817,0.5282,0.0,0.0,0.0,0.0,0.0,0.0,0.0,0.0,0.5065,0.6014,0.6716,0.7652,0.8649,0.9192,0.9966,1.0861,1.1503,1.3077,1.451,1.5177,1.6085,1.713,1.7897,1.8508,1.9106,2.0342,2.0722,2.1309,2.1952,2.2611,2.3147,2.4136,2.5041,2.5701,2.6141,2.6377,2.6636,2.6737,2.688,2.6838,2.6692,2.5526,2.4734,2.4309,2.3332,2.247,2.2017,2.145,2.0666,1.9711,1.8664,1.7507,1.5834,1.5658,1.5143,1.4111,1.4906,1.5163,1.5161,1.504,1.4782,1.4283,1.4283,1.3755,1.2877,1.2526,1.2354,1.2368,1.2831,1.3202,1.3494,1.3687,1.3763,1.3821,0.0,0.0,0.0,0.0,0.0,0.0,0.0,0.0,0.0,0.0,0.0,0.0,0.0,0.0,0.0,0.0,0.0,0.0,1.9286,1.8366,1.7874,1.8087,1.7845,1.799,1.8654,1.9341,1.9,1.758,1.6477,1.5311,1.4173,1.3054,1.2577,1.2543,1.1424,1.108,1.1261,0.9048,0.8313,0.8451,0.6797,0.5866,0.5479,0.0,0.0,0.0,0.0,0.0,0.0,0.0,0.5403,0.5937,0.7092,0.7812,0.8351,0.8898,1.0052,1.1225,1.1621,1.2637,1.3897,1.5347,1.6094,1.6809,1.8421,1.8683,1.9117,2.0825,2.1567,2.2234,2.3038,2.3199,2.368,2.4958,2.519,2.5634,2.6411,2.635,2.6397,2.6858,2.7041,2.6983,2.6983,2.5669,2.4734,2.4451,2.3054,2.1927,2.0958,2.0522,1.9866,1.8688,1.7893,1.6861,1.5434,1.5252,1.48,1.3925,1.4297,1.4625,1.4708,1.4879,1.471,1.4096,1.4096,1.3642,1.287,1.2721,1.2657,1.2671,1.2821,1.3339,1.4096,1.4096,1.4287,1.4399,0.0,0.0,0.0,0.0,0.0,0.0,0.0,0.0,0.0,0.0,0.0,0.0,0.0,0.0,0.0,0.0,0.0,0.0,1.8398,1.75,1.7137,1.7504,1.6867,1.6556,1.6651,1.7151,1.7194,1.6822,1.6524,1.582,1.466,1.3857,1.3258,1.2865,1.2492,1.1686,1.0598,1.0123,0.9691,0.9212,0.8054,0.7217,0.6593,0.0,0.0,0.0,0.0,0.0,0.0,0.0,0.0,0.0,0.7196,0.8147,0.8862,0.8886,0.9853,1.0984,1.1039,1.2625,1.452,1.545,1.6883,1.8361,1.9312,1.9681,2.0054,2.1785,2.2229,2.249,2.3273,2.3741,2.4221,2.4843,2.5229,2.5725,2.6253,2.6523,2.6772,2.7291,2.7625,2.7475,2.6676,2.6124,2.5214,2.4148,2.2749,2.1854,2.1343,2.0084,1.9031,1.8173,1.7001,1.5964,1.5062,1.434,1.3802,1.3722,1.4094,1.4424,1.4513,1.4562,1.4326,1.4096,1.3979,1.3476,1.2721,1.2678,1.2593,1.2507,1.326,1.3626,1.3909,1.4088,1.4155,1.4359,0.0,0.0,0.0,0.0,0.0,0.0,0.0,0.0,0.0,0.0,1.3555,1.3993,0.0,0.0,0.0,0.0,0.0,0.0,0.0,1.7148,1.6694,1.685,1.6476,1.6464,1.6808,1.693,1.6937,1.6788,1.6625,1.6077,1.5196,1.4878,1.4346,1.3659,1.3609,1.2822,1.1419,1.0976,1.0606,1.014,0.8994,0.8172,0.7526,0.0,0.0,0.0,0.0,0.0,0.0,0.0,0.0,0.0,0.7186,0.8048,0.8956,0.9072,1.0023,1.1147,1.1531,1.3068,1.4898,1.614,1.7367,1.8609,1.9876,2.0466,2.1279,2.2449,2.2567,2.2877,2.3649,2.4111,2.4431,2.4892,2.5259,2.5731,2.5991,2.6461,2.7041,2.7289,2.7734,2.7568,2.6801,2.6091,2.514,2.3846,2.2563,2.1577,2.0925,1.9698,1.8569,1.7658,1.6613,1.5583,1.467,1.4146,1.3716,1.3637,1.407,1.4331,1.4521,1.4809,1.4753,1.4332,1.408,1.356,1.3058,1.3118,1.3051,1.3062,1.3683,1.3901,1.3877,1.3841,1.3922,1.3874,0.0,0.0,0.0,0.0,0.0,0.0,0.0,0.0,0.0,0.0,1.3189,1.3705,0.0,0.0,0.0,0.0,0.0,0.0,0.0,1.7086,1.6532,1.621,1.6555,1.7223,1.8226,1.7999,1.763,1.7158,1.6821,1.6331,1.5824,1.5905,1.5562,1.483,1.4693,1.4117,1.3098,1.1673,1.1116,1.1065,0.9712,0.884,0.8268,0.7795,0.0,0.0,0.0,0.0,0.0,0.0,0.0,0.0,0.7188,0.7882,0.8777,0.95,1.0459,1.1531,1.2656,1.3658,1.4924,1.7036,1.7729,1.8228,2.0134,2.1396,2.2165,2.2874,2.2959,2.3304,2.4048,2.4214,2.438,2.4814,2.5362,2.565,2.565,2.641,2.6939,2.6939,2.7365,2.7423,2.6967,2.5842,2.4521,2.3529,2.2525,2.1314,2.0123,1.9316,1.8404,1.7109,1.6343,1.5453,1.4539,1.4408,1.4095,1.3746,1.4222,1.4501,1.4583,1.525,1.5328,1.472,1.4421,1.4186,1.4055,1.4211,1.4042,1.4063,1.4235,1.4301,1.4131,1.3658,1.3436,1.3515,0.0,0.0,0.0,0.0,0.0,0.0,0.0,0.0,0.0,0.0,0.0,0.0,0.0,0.0,0.0,0.0,0.0,0.0,0.0,1.632,1.6425,1.6222,1.6753,1.7076,1.7076,1.7387,1.7284,1.6866,1.7539,1.7424,1.665,1.6447,1.6219,1.5822,1.465,1.3849,1.3281,1.1883,1.1235,1.1063,1.0183,0.9215,0.8327,0.7962,0.745,0.0,0.0,0.0,0.0,0.0,0.0,0.0,0.771,0.8542,0.9262,0.934,1.0726,1.2173,1.219,1.3648,1.544,1.6752,1.8519,2.0245,2.0814,2.127,2.1946,2.2793,2.3342,2.3883,2.4416,2.471,2.4789,2.4714,2.508,2.5469,2.575,2.6228,2.6746,2.7018,2.716,2.6998,2.6324,2.5525,2.4617,2.3616,2.2295,2.1188,2.0195,1.9157,1.8139,1.7103,1.6131,1.5453,1.5332,1.4408,1.4033,1.4209,1.4702,1.4919,1.4871,1.4991,1.5292,1.5381,1.5675,1.5506,1.5177,1.4936,1.4785,1.4768,1.4525,1.4399,1.4374,1.4181,1.3883,1.3846,0.0,0.0,0.0,0.0,0.0,0.0,0.0,0.0,0.0,0.0,0.0,0.0,0.0,0.0,0.0,0.0,0.0,0.0,0.0,0.0,1.7102,1.7094,1.7559,1.7708,1.7515,1.7591,1.7557,1.741,1.7906,1.7712,1.6889,1.6995,1.6737,1.615,1.5567,1.4541,1.3216,1.2488,1.1764,1.1167,1.0591,0.9785,0.887,0.8535,0.8094,0.7588,0.7544,0.0,0.0,0.0,0.0,0.0,0.0,0.0,0.9469,0.9864,1.0783,1.1893,1.274,1.4116,1.5753,1.7462,1.9279,2.0521,2.0653,2.0991,2.146,2.2169,2.2822,2.3516,2.4103,2.4462,2.4609,2.4742,2.513,2.5611,2.5749,2.6459,2.6855,2.6833,2.6662,2.6162,2.5452,2.4593,2.3658,2.2427,2.1724,2.0902,1.9966,1.92,1.8244,1.7074,1.6291,1.5714,1.5202,1.467,1.4408,1.4408,1.4953,1.5385,1.558,1.5793,1.5886,1.6169,1.6603,1.6603,1.631,1.6028,1.5744,1.5603,1.522,1.4964,1.4716,1.4475,1.4402,1.4244,0.0,0.0,0.0,0.0,0.0,0.0,0.0,0.0,0.0,0.0,0.0,0.0,0.0,0.0,0.0,0.0,0.0,0.0,0.0,0.0,0.0,1.8319,1.8499,1.8548,1.8428,1.8121,1.8051,1.8221,1.8217,1.7949,1.7408,1.7661,1.7297,1.6382,1.6376,1.5243,1.3258,1.2892,1.2153,1.1266,1.0761,1.0158,0.9479,0.9152,0.8664,0.8154,0.8259,0.8129,0.7917,0.7851,0.0,0.0,0.0,0.0,0.9325,1.022,1.0726,1.1306,1.3204,1.4531,1.5914,1.8325,1.9542,2.0219,2.0267,2.0653,2.1132,2.1554,2.2099,2.2755,2.3483,2.3824,2.4142,2.4603,2.5216,2.5707,2.5941,2.6383,2.6617,2.629,2.5725,2.5069,2.4324,2.3412,2.2339,2.1188,2.0993,2.0438,1.9522,1.9176,1.8407,1.7205,1.6602,1.5844,1.5062,1.48,1.4539,1.4277,1.505,1.5725,1.6131,1.6404,1.6695,1.6875,1.7168,1.7449,1.7308,1.6875,1.6593,1.6301,1.612,1.5737,1.5397,1.5227,1.51,1.5205,0.0,0.0,0.0,0.0,0.0,0.0,0.0,0.0,0.0,0.0,1.5125,1.6328,0.0,0.0,0.0,0.0,0.0,0.0,1.8118,0.0,0.0,1.9189,1.9,1.8752,1.8589,1.8243,1.8278,1.8704,1.8687,1.9006,1.9489,1.8621,1.7993,1.7537,1.6008,1.4834,1.3863,1.221,1.1409,1.1153,1.0475,0.9915,0.9457,0.9273,0.9165,0.9157,0.8891,0.885,0.8874,0.855,0.8317,0.0,0.0,0.0,0.8845,0.9524,1.0306,1.1015,1.1709,1.382,1.6442,1.8152,1.928,2.0002,2.0231,2.0509,2.0853,2.1269,2.182,2.2312,2.2742,2.308,2.3471,2.4128,2.4712,2.5228,2.5884,2.5722,2.5535,2.4804,2.4444,2.3994,2.2932,2.2195,2.159,2.1175,2.0554,1.9903,1.9249,1.8824,1.8337,1.7598,1.625,1.5574,1.5443,1.453,1.4006,1.4015,1.4512,1.4964,1.5496,1.6183,1.6708,1.7308,1.758,1.7861,1.7721,1.7017,1.6875,1.7168,1.7117,1.7117,1.7087,1.7151,1.7113,1.7055,0.0,0.0,0.0,0.0,0.0,0.0,0.0,0.0,0.0,0.0,0.0,1.7143,0.0,0.0,0.0,1.9287,1.9567,1.9635,1.929,1.9319,1.959,2.0196,1.9604,1.9591,2.03,1.9404,1.9337,2.0078,1.9531,1.973,2.0649,1.9532,1.8778,1.8325,1.6769,1.5515,1.4323,1.2717,1.1824,1.1415,1.0428,1.0198,1.0349,0.9525,0.9572,1.0043,0.9254,0.9217,0.9399,0.8917,0.8965,0.9142,0.9053,0.0,0.0,0.0,1.0463,1.1246,1.2782,1.4625,1.6475,1.8117,1.909,1.9685,2.0219,2.061,2.0943,2.0943,2.1266,2.1707,2.2128,2.2691,2.3117,2.3661,2.4424,2.5003,2.5397,2.5432,2.5266,2.4538,2.3933,2.3196,2.2399,2.1577,2.0798,2.0272,1.9786,1.9279,1.8915,1.8244,1.7613,1.6722,1.5913,1.5173,1.466,1.4137,1.3796,1.3776,1.3863,1.4104,1.4754,1.5302,1.611,1.7017,1.758,1.7861,1.7861,1.758,1.758,1.7861,1.7993,1.8154,1.8347,1.8799,1.9078,1.912,0.0,0.0,0.0,0.0,0.0,0.0,0.0,0.0,0.0,0.0,0.0,0.0,0.0,0.0,0.0,0.0,2.0166,2.0425,2.0654,2.0488,2.066,2.1331,2.0665,2.0765,2.1775,2.0605,2.0362,2.1168,2.0447,2.0506,2.1353,2.0564,1.9897,1.9208,1.7734,1.6326,1.4907,1.3573,1.2673,1.2067,1.1099,1.1013,1.1376,1.0351,1.0377,1.0929,0.9957,0.9872,1.003,0.9532,0.9711,0.9999,0.9722,0.9902,0.0,0.0,0.0,1.1255,1.3436,1.4719,1.586,1.753,1.8545,1.9299,1.9975,2.0698,2.122,2.1081,2.1081,2.1346,2.1622,2.2077,2.251,2.3147,2.3841,2.4442,2.4858,2.5048,2.4876,2.4153,2.3364,2.249,2.1753,2.0902,2.0094,1.9584,1.92,1.8828,1.8571,1.7787,1.7012,1.6094,1.5443,1.466,1.3744,1.335,1.3162,1.3035,1.2893,1.3189,1.3913,1.4319,1.5117,1.6298,1.7107,1.758,1.7861,1.7721,1.797,1.8476,1.8749,1.9059,1.937,2.0195,2.0812,2.1349,0.0,0.0,0.0,0.0,0.0,0.0,0.0,0.0,0.0,0.0,0.0,0.0,1.8246,1.8836,1.9449,1.9841,2.0183,2.0736,2.1571,2.1487,2.1795,2.2556,2.2424,0.0,2.2077,2.1388,2.1126,2.1378,2.1383,2.1465,2.1597,2.1879,2.1422,2.0401,1.8465,1.6915,1.5676,1.4528,1.3807,1.3366,1.2768,1.2478,1.2321,1.1948,1.1943,1.1938,1.1325,1.1166,1.1218,1.0846,1.0429,1.0243,1.0564,1.0369,1.0086,0.0,0.0,0.0,1.2238,1.3233,1.4235,1.5974,1.7502,1.8765,1.9687,2.0551,2.1346,2.1634,2.1484,2.1207,2.1207,2.122,2.1597,2.2701,2.2948,2.3268,2.4233,2.4162,2.3868,2.3158,2.2443,2.1608,2.0694,2.0015,1.9456,1.92,1.8828,1.8571,1.8571,1.7658,1.6872,1.6473,1.4791,1.3744,1.3481,1.2033,1.1387,1.1394,1.1659,1.2281,1.3124,1.3528,1.4305,1.5192,1.6008,1.6885,1.7861,1.7449,1.7886,1.8672,1.9288,1.9795,2.0391,2.1408,2.2415,2.3413,0.0,0.0,0.0,0.0,0.0,0.0,0.0,0.0,0.0,0.0,0.0,0.0,0.0,1.8751,1.9314,1.9779,2.0235,2.0819,2.1662,2.1661,2.2238,2.3543,2.2968,2.3012,2.3818,2.261,2.2247,2.2945,2.2104,2.2059,2.2821,2.2189,2.1768,2.1375,1.8951,1.7573,1.7022,1.4944,1.4308,1.4551,1.3339,1.3139,1.3567,1.2652,1.2813,1.3383,1.2458,1.2223,1.235,1.1988,1.1607,1.1381,1.1302,1.1091,1.0881,1.09,1.1185,1.1668,1.2536,1.3416,1.4313,1.6068,1.7235,1.8419,1.965,2.0693,2.1411,2.1454,2.1356,2.1283,2.1183,2.1207,2.1383,2.1761,2.2238,2.2762,2.3419,2.3475,2.3433,2.2727,2.2297,2.1608,2.0551,2.0002,1.9571,1.9456,1.8956,1.8442,1.7927,1.7141,1.6234,1.5183,1.4137,1.3087,1.2033,1.0982,1.0724,1.085,1.085,1.1326,1.2419,1.2823,1.3468,1.4336,1.488,1.5772,1.6736,1.7159,1.7654,1.853,1.9163,2.0086,2.1181,2.2195,2.3534,2.4953,0.0,0.0,0.0,0.0,0.0,0.0,0.0,0.0,0.0,1.8162,0.0,0.0,0.0,0.0,2.015,2.0776,2.1153,2.1712,2.2547,2.2576,2.3173,2.4494,2.3916,2.3951,2.4747,2.3509,2.2987,2.3224,2.2531,2.2313,2.2644,2.2291,2.1995,2.1724,1.9559,1.8533,1.8222,1.6243,1.5581,1.5751,1.4578,1.4348,1.4657,1.3903,1.4093,1.4599,1.3808,1.3532,1.3585,1.3284,1.2843,1.2445,1.2181,1.1706,1.1345,1.1475,1.1755,1.2117,1.274,1.3295,1.4109,1.5891,1.6785,1.761,1.9548,2.0391,2.0869,2.1015,2.1141,2.0971,2.0649,2.0747,2.097,2.1195,2.147,2.179,2.229,2.2712,2.2605,2.2057,2.1846,2.1477,2.0409,1.9786,1.9484,1.9571,1.886,1.8349,1.7916,1.7012,1.5714,1.3875,1.3087,1.2033,1.0717,1.0054,1.0054,1.0326,1.0193,1.0611,1.1851,1.2178,1.2909,1.378,1.4101,1.4873,1.5953,1.6506,1.7141,1.8006,1.8898,2.0062,2.1411,2.2879,2.4558,2.6587,0.0,0.0,0.0,0.0,0.0,0.0,0.0,0.0,2.0383,1.9717,0.0,0.0,0.0,0.0,0.0,2.2875,2.3064,2.3513,2.4383,2.4378,2.4713,2.5557,2.5421,2.5154,2.4747,2.4044,2.3173,2.2167,2.2663,2.2248,2.1005,2.2187,2.2321,2.1481,2.0404,1.9695,1.9332,1.8363,1.762,1.6916,1.6539,1.6097,1.5607,1.5875,1.5835,1.5605,1.5432,1.5172,1.4911,1.4751,1.4213,1.3473,1.2921,1.2126,1.1478,1.1882,1.2035,1.2182,0.0,0.0,0.0,1.5528,1.5913,1.6473,1.9212,1.9671,1.9768,2.0302,2.0588,2.0429,1.9515,1.9804,2.0476,2.0995,2.0749,2.0634,2.1302,2.161,2.1628,2.1078,2.1304,2.1056,2.0098,1.9472,1.9274,1.9546,1.8692,1.8289,1.8559,1.7152,1.5313,1.2816,1.1769,1.0717,0.9661,0.9256,0.925,0.9655,0.9655,1.0373,1.1523,1.1694,1.2473,1.3611,1.3796,1.4494,1.5545,1.5545,1.6365,1.751,1.8406,1.9652,2.1212,2.3261,2.5766,2.8288,0.0,0.0,0.0,0.0,0.0,2.126,2.1187,2.1182,2.1061,0.0,0.0,0.0,2.0771,2.2134,2.331,2.3868,2.3996,2.4414,2.5281,2.5301,2.5935,2.7323,2.6699,2.6092,2.5649,2.4339,2.3625,2.3646,2.2943,2.2675,2.2808,2.3257,2.3065,2.2255,2.2145,2.1666,2.0719,1.8609,1.7954,1.8333,1.7614,1.7321,1.7219,1.7087,1.707,1.7128,1.6839,1.6722,1.6734,1.6452,1.579,1.4721,1.3496,1.3009,1.2892,1.2609,1.2963,1.3377,1.3259,0.0,0.0,0.0,0.0,0.0,1.7575,1.8276,1.8865,1.9401,1.9338,1.9233,1.9409,1.9096,1.9049,1.9518,1.9845,2.0172,2.0647,2.0781,2.0605,1.9998,2.0065,1.9749,1.8912,1.8605,1.8629,1.8896,1.8722,1.8289,1.7776,1.5834,1.3875,1.2173,1.0711,0.9782,0.9256,0.8723,0.8811,0.9514,0.977,1.048,1.1741,1.2427,1.3001,1.3611,1.4056,1.4472,1.4837,1.5629,1.6285,1.6989,1.8209,1.9827,2.1666,2.3962,2.6747,2.9761,0.0,0.0,0.0,2.2554,2.3288,2.3809,2.3432,2.3508,2.3476,0.0,0.0,0.0,2.3914,2.5145,2.6036,2.641,2.6158,2.621,2.6732,2.6754,2.7147,2.8055,2.7426,2.6792,2.6283,2.5031,2.4267,2.4135,2.3295,2.293,2.3049,2.3348,2.3177,2.2539,2.2506,2.2147,2.1446,1.9488,1.8944,1.9326,1.8848,1.8665,1.8526,1.8185,1.8208,1.83,1.7829,1.775,1.7833,1.754,1.6553,1.5299,1.4167,1.3723,1.3659,1.3278,1.3792,1.4403,1.4264,1.4311,1.4628,1.5584,0.0,0.0,1.7566,1.7885,1.7937,1.8482,1.8395,1.8198,1.8007,1.7866,1.7939,1.7837,1.8372,1.8863,1.9609,1.9764,1.9604,1.8908,1.9222,1.9123,1.7966,1.7824,1.7907,1.8274,1.7952,1.7245,1.6337,1.466,1.2808,1.1048,0.9739,0.8955,0.8568,0.8044,0.8274,0.9368,0.9626,1.0445,1.1446,1.2322,1.2909,1.3361,1.3891,1.4408,1.467,1.5974,1.6668,1.7169,1.8572,2.0508,2.2767,2.5222,2.8155,3.1257,0.0,0.0,2.538,2.5693,2.6569,2.703,2.6379,2.6734,2.6861,0.0,2.6201,2.6901,2.8684,2.9205,2.9476,2.9698,2.8969,2.8515,2.8576,2.8427,2.8335,2.8349,2.7928,2.7447,2.686,2.5913,2.4982,2.4181,2.366,2.3142,2.2651,2.3073,2.299,2.2562,2.2231,2.1971,2.1727,2.0841,2.0432,2.0245,2.0161,1.9903,1.9541,1.9271,1.9349,1.9447,1.8712,1.8536,1.8508,1.818,1.7079,1.5832,1.5139,1.4592,1.432,1.4113,1.4564,1.5284,1.535,1.5299,1.5596,1.7068,1.6343,0.0,1.8177,1.779,1.7019,1.736,1.7383,1.7066,1.5887,1.6398,1.6827,1.6204,1.6486,1.7248,1.8392,1.8714,1.8593,1.769,1.8408,1.8481,1.72,1.6873,1.6952,1.7303,1.6523,1.5628,1.4572,1.355,1.1931,0.9748,0.873,0.797,0.7714,0.7335,0.7842,0.9227,0.9608,1.0161,1.1024,1.171,1.2282,1.2909,1.3544,1.4371,1.5024,1.6452,1.7194,1.778,1.9549,2.1718,2.4277,2.6953,2.9792,3.2601,0.0,2.5799,2.6552,2.6841,2.8283,2.938,2.9368,2.9417,2.9428,2.9385,2.9101,2.9513,3.1002,3.1226,3.1343,3.1568,3.078,3.0304,3.0317,2.9628,2.9446,2.9863,2.927,2.8612,2.7934,2.6325,2.5439,2.5357,2.4043,2.3651,2.4149,2.4077,2.3961,2.3743,2.3384,2.317,2.2977,2.2626,2.2569,2.2625,2.1194,2.0694,2.087,2.0685,2.0572,2.0474,2.0095,2.0015,1.9974,1.9179,1.8637,1.7999,1.6979,1.6486,1.6244,1.564,1.5683,1.5994,1.6082,1.6038,1.6051,1.5944,1.6343,0.0,1.5683,1.6022,1.6275,1.5814,1.5526,1.5332,1.535,1.5283,1.5111,1.4872,1.528,1.6009,1.7115,1.7427,1.7253,1.6563,1.68,1.665,1.5718,1.5569,1.5413,1.5187,1.471,1.4057,1.3339,1.2067,1.0538,0.873,0.7581,0.7075,0.6947,0.6823,0.7419,0.8711,0.9587,1.0383,1.1331,1.216,1.2614,1.2969,1.3743,1.4428,1.5199,1.6583,1.7474,1.8273,2.0631,2.2772,2.4957,2.8052,3.1236,3.4272,2.7046,2.7975,2.898,2.9766,3.1027,3.2035,3.2367,3.2374,3.2462,3.2596,3.2547,3.2685,3.3016,3.351,3.3874,3.3991,3.363,3.3197,3.2767,3.187,3.1188,3.0844,3.0073,2.9237,2.8397,2.7175,2.638,2.5992,2.4666,2.4092,2.428,2.413,2.3974,2.3822,2.3668,2.3516,2.3442,2.3049,2.3069,2.3309,2.2438,2.2208,2.2298,2.1724,2.1624,2.1528,2.0648,2.0319,2.0112,1.9104,1.8736,1.8581,1.7625,1.7428,1.7501,1.6807,1.6936,1.7127,1.6912,1.6856,1.6828,1.6733,1.6741,0.0,0.0,1.5748,1.5591,1.5171,1.4479,1.4013,1.3654,1.3442,1.326,1.3041,1.3463,1.3841,1.4169,1.5297,1.5798,1.521,1.5035,1.4855,1.4154,1.3771,1.3367,1.295,1.2871,1.2616,1.1775,1.0767,0.9356,0.7426,0.6545,0.6148,0.6102,0.6106,0.6946,0.836,0.9214,0.9943,1.055,1.1333,1.1657,1.1797,1.2817,1.3698,1.4585,1.6223,1.7561,1.8892,2.1256,2.3598,2.5909,2.8855,3.1716,3.4584,2.9024,2.9976,3.108,3.236,3.3486,3.4364,3.4792,3.509,3.5286,3.5265,3.5652,3.5751,3.5165,3.585,3.6445,3.6637,3.6398,3.5935,3.5233,3.3952,3.2705,3.1571,3.0508,2.9537,2.8662,2.7879,2.7085,2.6375,2.5161,2.4431,2.4237,2.3994,2.3935,2.3901,2.3917,2.3915,2.398,2.3444,2.3579,2.4011,2.4008,2.3749,2.3327,2.2505,2.2206,2.2178,2.1064,2.0506,2.02,1.9184,1.8988,1.9063,1.8187,1.8203,1.8495,1.7804,1.7938,1.8111,1.7606,1.7538,1.7554,1.7548,1.7038,1.6428,0.0,0.0,0.0,1.4477,1.3588,1.2679,1.1797,1.1576,1.1507,1.1091,1.1423,1.1478,1.0914,1.2615,1.3659,1.3364,1.3218,1.3041,1.2597,1.1793,1.1256,1.1152,1.1126,1.0848,1.0197,0.9303,0.8027,0.6132,0.538,0.4979,0.5036,0.5275,0.6239,0.7693,0.8528,0.8954,0.9335,0.9944,1.0253,1.026,1.1408,1.2591,1.3812,1.5782,1.7588,1.9364,2.1627,2.4154,2.6829,2.9232,3.1784,3.4507,2.9266,3.0005,3.1109,3.2238,3.4067,3.5497,3.5786,3.6672,3.7118,3.6639,3.7394,3.7957,3.7937,3.805,3.8461,3.9286,3.796,3.703,3.6928,3.4574,3.281,3.1982,3.0485,2.9539,2.9315,2.7791,2.6853,2.6541,2.5192,2.4667,2.4994,2.4575,2.461,2.4937,2.4979,2.5119,2.53,2.5131,2.5449,2.6066,2.5558,2.4401,2.2999,2.2775,2.2285,2.1865,2.159,2.1328,2.1167,2.098,2.085,2.072,1.9797,1.9718,1.9766,1.8457,1.8331,1.8459,1.7978,1.7867,1.7584,1.6526,1.6613,1.6507,1.4445,0.0,1.4057,1.286,0.0,1.1508,1.0661,0.0,0.0,0.8976,0.9592,0.9784,0.8851,0.9173,0.9872,1.067,1.1199,1.1287,1.0626,0.9861,0.9553,0.999,0.8863,0.8214,0.8438,0.703,0.5831,0.5065,0.4169,0.3785,0.4015,0.4248,0.4986,0.6133,0.7085,0.7627,0.7739,0.8244,0.8738,0.9111,1.0239,1.1701,1.337,1.5048,1.6915,1.9125,2.1541,2.4111,2.6754,2.9217,3.1913,3.4778,2.9935,3.1195,3.2661,3.3735,3.477,3.5946,3.7289,3.8899,3.9391,3.7746,3.8833,3.9596,3.9131,3.9622,4.0103,4.0454,4.0333,3.9568,3.8054,3.581,3.3943,3.2524,3.093,2.9716,2.8966,2.8073,2.7238,2.6455,2.5353,2.4906,2.5085,2.4586,2.4743,2.5368,2.5435,2.5664,2.599,2.6023,2.6013,2.5872,2.5648,2.4735,2.3615,2.3684,2.2983,2.1991,2.1945,2.161,2.1269,2.0913,2.0851,2.0883,2.0476,2.0168,1.9829,1.9256,1.8923,1.8384,1.7572,1.7668,1.758,1.6229,1.6189,1.6033,1.4355,1.347,1.2759,1.1944,0.0,0.0,0.0,0.0,0.0,0.0,0.7846,0.7786,0.6727,0.7019,0.7751,0.8981,0.9145,0.9057,0.8948,0.8508,0.8432,0.8752,0.7616,0.7027,0.7243,0.6098,0.5185,0.4631,0.3661,0.3164,0.325,0.3482,0.3975,0.4624,0.5452,0.5881,0.6023,0.639,0.7128,0.8105,0.9176,1.0808,1.253,1.4169,1.6012,1.8078,2.0086,2.2779,2.6025,2.8441,3.1094,3.3845,3.0991,3.2295,3.3567,3.4458,3.5277,3.6541,3.8763,4.0384,4.0754,3.9058,4.0161,4.1052,4.0743,4.1356,4.1947,4.2376,4.2407,4.1435,3.9286,3.7104,3.5139,3.3446,3.1528,3.0163,2.9357,2.8477,2.7552,2.6744,2.5759,2.5332,2.55,2.4965,2.508,2.5735,2.6054,2.6384,2.6734,2.6967,2.6768,2.6324,2.6147,2.5378,2.4467,2.4125,2.3242,2.2215,2.2214,2.1946,2.1574,2.1196,2.1145,2.1071,2.0931,2.0537,1.9952,1.9542,1.9062,1.8474,1.7289,1.7274,1.7406,1.5999,1.5632,1.5207,1.3881,1.2669,1.1597,1.1078,1.0112,0.0,0.0,0.0,0.7477,0.6617,0.0,0.6306,0.5204,0.5345,0.592,0.7215,0.7229,0.7316,0.7623,0.7452,0.7261,0.7393,0.6333,0.5665,0.576,0.4807,0.4159,0.3714,0.2789,0.231,0.2283,0.2395,0.2643,0.2915,0.3398,0.3804,0.401,0.4658,0.5643,0.7079,0.8313,0.9912,1.1853,1.3507,1.5289,1.7102,1.8849,2.1572,2.4987,2.7604,3.0221,3.3003,3.2509,3.2957,3.3208,3.3567,3.5428,3.7618,4.0001,4.046,4.0569,4.0604,4.1446,4.2422,4.3389,4.3513,4.4192,4.588,4.375,4.1843,4.0797,3.8297,3.6236,3.4884,3.2327,3.1022,3.1287,2.8736,2.7552,2.7843,2.6509,2.6094,2.6531,2.6012,2.585,2.61,2.7087,2.7529,2.7621,2.8119,2.8429,2.85,2.764,2.6598,2.545,2.3426,2.2585,2.2484,2.2438,2.2443,2.2466,2.2716,2.2504,2.202,2.1181,2.0874,2.0526,1.8675,1.8575,1.8724,1.7134,1.6895,1.676,1.5455,1.4912,1.419,1.2247,1.1619,1.1107,1.0035,0.9846,0.9524,0.8862,0.8726,0.8126,0.6121,0.6083,0.0,0.0,0.3913,0.3978,0.4881,0.5836,0.6651,0.7046,0.6444,0.6032,0.598,0.4638,0.3788,0.3805,0.2627,0.1877,0.2021,0.1348,0.1011,0.101,0.0673,0.0565,0.0574,0.0934,0.1294,0.1651,0.2917,0.4398,0.6013,0.7443,0.9379,1.1667,1.3058,1.4822,1.6868,1.8227,2.0709,2.3805,2.657,2.9477,3.2409,3.3785,3.4558,3.483,3.447,3.5182,3.6419,3.8175,4.0057,4.154,4.2253,4.3218,4.4424,4.5942,4.5629,4.5541,4.6094,4.4243,4.233,4.0717,3.823,3.634,3.5271,3.3351,3.1882,3.0958,2.9935,2.8804,2.7639,2.6809,2.6595,2.7021,2.6406,2.6505,2.7255,2.7953,2.8187,2.8096,2.8854,2.8632,2.7753,2.6857,2.6283,2.5761,2.4212,2.3404,2.302,2.3097,2.3032,2.3103,2.3277,2.3009,2.2488,2.2423,2.1362,2.0105,1.9684,1.9031,1.8305,1.7246,1.6927,1.66,1.5345,1.4424,1.3368,1.2247,1.1385,1.0636,0.9983,0.9731,0.9392,0.8818,0.829,0.757,0.6357,0.5913,0.5298,0.0,0.3441,0.3343,0.3644,0.4849,0.5605,0.551,0.5625,0.544,0.478,0.387,0.2986,0.2168,0.1363,0.0745,0.0433,-0.0217,-0.0542,-0.0542,-0.0768,-0.1111,-0.1242,-0.0804,-0.0233,0.0235,0.1563,0.3386,0.5646,0.6773,0.8592,1.0747,1.2374,1.3936,1.5589,1.7991,2.0397,2.2888,2.6126,2.9003,3.1993,3.5337,3.5811,3.5739,3.4994,3.5446,3.6368,3.7713,4.0345,4.2441,4.3086,4.4622,4.6232,4.7701,4.7383,4.7057,4.6917,4.5235,4.3131,4.0692,3.8958,3.7415,3.599,3.4799,3.3682,3.264,3.1748,3.0551,2.9066,2.8155,2.7819,2.7964,2.7143,2.7202,2.7996,2.842,2.8631,2.8688,2.9173,2.8848,2.7828,2.7014,2.6425,2.6091,2.5118,2.4332,2.3719,2.3592,2.361,2.3737,2.4134,2.3699,2.2978,2.3044,2.1843,2.0399,1.9908,1.9202,1.8483,1.7285,1.6856,1.6418,1.5193,1.415,1.3063,1.198,1.1258,1.0626,1.0088,0.9788,0.9646,0.9682,0.8814,0.7809,0.7015,0.6098,0.4885,0.0,0.2926,0.2738,0.2267,0.38,0.4803,0.4623,0.4559,0.4376,0.4089,0.2883,0.1936,0.1281,0.0503,-0.0102,-0.0621,-0.1145,-0.1463,-0.1671,-0.2126,-0.2596,-0.2861,-0.2478,-0.1716,-0.0694,0.0591,0.2505,0.4885,0.5977,0.7575,0.9456,1.1052,1.264,1.418,1.6747,1.9372,2.2017,2.5564,2.9415,3.3407,3.7026,3.6772,3.5952,3.5294,3.6261,3.7548,3.8629,4.1259,4.3142,4.3312,4.5735,4.7822,4.871,4.8755,4.8607,4.838,4.6568,4.409,4.0919,4.0453,3.9319,3.7097,3.6606,3.6294,3.6104,3.4023,3.262,3.1894,3.0418,2.9529,2.9201,2.8057,2.7824,2.8326,2.8496,2.8819,2.9165,2.9105,2.9095,2.8932,2.7736,2.6976,2.6496,2.5974,2.5275,2.4454,2.4082,2.4193,2.4609,2.5099,2.4546,2.3672,2.3186,2.2351,2.1194,1.9509,1.9228,1.9074,1.7296,1.6724,1.6356,1.4969,1.4174,1.3265,1.153,1.1179,1.1132,1.0439,1.0201,1.0384,1.1225,1.0184,0.8814,0.7981,0.6522,0.4698,0.2365,0.2405,0.2257,0.1022,0.2695,0.4014,0.4255,0.3207,0.284,0.3714,0.1716,0.061,0.1041,-0.0097,-0.088,-0.1177,-0.1595,-0.2113,-0.2615,-0.3278,-0.3858,-0.414,-0.3957,-0.3013,-0.134,-0.0116,0.1641,0.3749,0.4843,0.623,0.78,0.9133,1.0866,1.292,1.4984,1.7996,2.1418,2.5271,3.0537,3.6235,3.6879,3.7326,3.759,3.7542,3.7836,3.8244,3.8743,4.1264,4.3605,4.4971,4.6982,4.8865,5.0391,4.9352,4.8425,4.8213,4.5706,4.365,4.2382,4.0966,3.9734,3.8753,3.7792,3.6868,3.5877,3.4395,3.3048,3.1821,3.0395,2.9669,2.9639,2.8241,2.7889,2.8454,2.8325,2.8323,2.843,2.8632,2.851,2.7904,2.7452,2.7071,2.6764,2.6303,2.569,2.5178,2.4792,2.4735,2.4948,2.5024,2.4581,2.3913,2.3404,2.2117,2.0572,2.0102,1.9349,1.8338,1.7502,1.673,1.5927,1.5463,1.4115,1.2965,1.2501,1.2193,1.1894,1.1119,1.1506,1.1535,1.0341,0.981,0.9097,0.7525,0.5927,0.4215,0.2498,0.2257,0.1833,0.0673,0.1226,0.1619,0.1441,0.1897,0.1938,0.1538,0.1224,0.0762,0.0182,-0.0733,-0.149,-0.2013,-0.2411,-0.2902,-0.3192,-0.4135,-0.4484,-0.421,-0.4471,-0.3698,-0.2116,-0.111,0.034,0.2268,0.3084,0.4246,0.5631,0.7844,0.9691,1.155,1.5074,1.9419,2.3965,2.7188,3.1214,3.5187,3.7573,3.8573,3.9472,3.9611,4.0333,4.0708,4.0062,4.2096,4.439,4.6212,4.8024,4.9514,5.042,4.9574,4.8728,4.8394,4.6329,4.4595,4.3526,4.2559,4.1563,4.0552,3.989,3.8938,3.7636,3.6627,3.5109,3.2998,3.1901,3.0919,3.0046,2.8781,2.8417,2.889,2.8472,2.8415,2.8657,2.8544,2.8228,2.7547,2.7357,2.7138,0.0,2.6382,2.5849,2.5289,2.5075,2.498,2.4972,2.5159,2.4677,2.401,2.3577,2.2425,2.1024,2.0305,1.9478,1.8533,1.742,1.6652,1.5891,1.5117,1.4223,1.3268,1.2822,1.273,1.2565,1.1924,1.2073,1.2041,1.0952,0.9931,0.8631,0.6565,0.5078,0.3679,0.2332,0.1897,0.1273,0.0216,0.0145,0.0145,0.0,0.0654,0.1126,0.1077,0.0938,0.0647,0.0257,-0.0613,-0.1251,-0.1921,-0.2493,-0.297,-0.3341,-0.4258,-0.4701,-0.4454,-0.469,-0.3977,-0.2589,-0.1923,-0.0655,0.0997,0.1664,0.2787,0.4257,0.6654,0.9033,1.1535,1.6787,2.1239,2.4911,2.7582,3.0815,3.4287,3.8588,4.0106,4.1288,4.1276,4.2852,4.3717,4.2448,4.3827,4.5603,4.7237,4.8942,4.9942,4.9819,4.9519,4.9124,4.8656,4.741,4.5988,4.4416,4.4396,4.3764,4.2244,4.2106,4.141,3.9926,3.9101,3.7313,3.4465,3.3605,3.2258,3.0455,2.9302,2.8967,2.9212,2.8682,2.8635,2.9032,2.85,2.8014,2.7453,2.7264,2.7014,2.6844,2.6311,2.5776,2.5145,2.5108,2.4977,2.4906,2.527,2.4826,2.4038,2.3602,2.2772,2.1787,2.0212,1.9526,1.892,1.7145,1.6456,1.5865,1.4548,1.4166,1.3869,1.3081,1.3132,1.3237,1.2506,1.2294,1.213,1.1829,1.0074,0.7835,0.5563,0.4499,0.3496,0.2177,0.1556,0.088,-0.0136,-0.0556,0.0,-0.0542,-0.0212,0.044,0.142,0.0827,0.0539,0.1052,0.0253,-0.0518,-0.0959,-0.1774,-0.2417,-0.2956,-0.3828,-0.4185,-0.4175,-0.4353,-0.3679,-0.2365,-0.2069,-0.1159,0.0217,0.0856,0.204,0.3694,0.6071,0.925,1.318,1.9436,2.3138,2.5239,2.7473,3.0307,3.3531,3.8861,4.0826,4.2317,4.1627,4.3088,4.473,4.5952,4.7078,4.7916,4.815,4.9632,5.0554,5.0296,4.9444,4.8732,4.8277,4.6936,4.5806,4.5059,4.45,4.3816,4.3089,4.243,4.141,3.9926,3.8189,3.6222,3.4178,3.2388,3.1055,3.0135,2.9173,2.8647,2.8415,2.8056,2.7878,2.772,2.7718,2.7477,2.696,2.6578,2.6536,2.6563,2.609,2.5668,2.5192,2.5228,2.5091,2.4913,2.4893,2.4565,2.4088,2.3359,2.2073,2.0741,2.0087,1.9051,1.7896,1.6912,1.5956,1.5221,1.4619,1.403,1.3631,1.3634,1.3538,1.3356,1.3068,1.294,1.2457,1.0997,0.9156,0.7346,0.5347,0.5237,0.4787,0.2802,0.2181,0.1471,0.0359,-0.0217,-0.0502,-0.0558,-0.0215,0.0361,0.1348,0.1014,0.136,0.2905,0.1389,0.0758,0.1242,0.0178,-0.0805,-0.1431,-0.2422,-0.2544,-0.1857,-0.2366,-0.1837,-0.0396,-0.0204,0.0208,0.0733,0.1903,0.2976,0.4146,0.7467,1.2537,1.8552,2.1778,2.424,2.642,2.8822,3.1264,3.37,4.102,4.2107,4.315,4.3694,4.4916,4.6424,4.8161,4.916,4.9541,4.9094,4.9537,4.9815,4.9567,4.8895,4.8436,4.8418,4.72,4.643,4.6302,4.5685,4.5032,4.4489,4.3333,4.1999,4.0565,3.8983,3.6837,3.432,3.3139,3.1759,3.0278,2.9278,2.8684,2.8389,2.817,2.7977,2.7847,2.8196,2.7878,2.7259,2.705,2.6768,2.6341,2.6077,2.5585,2.5186,2.512,2.4861,2.4707,2.4687,2.4338,2.3859,2.3203,2.198,2.0637,1.982,1.8737,1.7749,1.6689,1.5953,1.5357,1.4915,1.4482,1.4101,1.4013,1.3843,1.3556,1.2978,1.3007,1.2534,1.0602,0.8831,0.7234,0.6002,0.5456,0.4637,0.3334,0.2587,0.1713,0.0643,0.0072,-0.0072,0.0276,0.0211,0.0353,0.0823,0.0984,0.1614,0.2727,0.1842,0.1498,0.2108,0.1334,0.0809,0.0545,0.0091,0.0183,0.0932,0.0938,0.1332,0.2138,0.2374,0.2611,0.2746,0.3792,0.5129,0.6839,1.2206,1.7419,2.2185,2.4336,2.6167,2.7819,2.9713,3.1884,3.4275,4.3318,4.3775,4.4509,4.5852,4.7033,4.8161,4.944,5.0247,5.0507,4.9847,4.9466,4.9163,4.8881,4.8521,4.8343,4.8567,4.7644,4.7098,4.7196,4.646,4.581,4.5355,4.3756,4.23,4.0918,3.9657,3.752,3.4451,3.3841,3.2476,3.037,2.9372,2.8817,2.8654,2.8475,2.845,2.853,2.8742,2.8381,2.7765,2.7568,2.6954,2.6195,2.585,2.553,2.5211,2.4956,2.47,2.4615,2.4464,2.4186,2.3667,2.2969,2.198,2.0907,1.9729,1.8827,1.79,1.6763,1.6074,1.555,1.5144,1.473,1.423,1.4182,1.3849,1.3388,1.2804,1.2607,1.2141,1.028,0.8881,0.7659,0.6887,0.5929,0.496,0.4049,0.3099,0.2124,0.1287,0.0575,0.0498,0.1297,0.0682,0.0339,0.0533,0.1025,0.1856,0.2958,0.2526,0.2561,0.3396,0.2936,0.2718,0.2851,0.3052,0.3462,0.4281,0.4763,0.5106,0.5303,0.5475,0.5429,0.5327,0.6195,0.8231,1.1192,1.7325,2.1644,2.4555,2.6487,2.7897,2.9148,3.0676,3.2777,3.5305,4.4537,4.5841,4.6948,4.7069,4.8437,4.9532,4.945,5.0046,5.047,5.0355,5.0038,4.9694,4.9378,4.9043,4.8639,4.8231,4.7715,4.7291,4.687,4.5585,4.4744,4.444,4.2901,4.14,4.0081,3.8853,3.6982,3.432,3.3087,3.1577,2.9949,2.9236,2.882,2.8702,2.8807,2.898,2.9227,2.8578,2.8233,2.8133,2.706,2.6457,2.614,2.5529,2.5423,2.5486,2.4786,2.4786,2.5041,2.4444,2.4034,2.3667,2.2969,2.2176,2.1177,2.0473,1.9196,1.7994,1.7326,1.6211,1.5159,1.5047,1.408,1.3313,1.3524,1.3007,1.2552,1.2412,1.1762,1.0889,0.9857,0.9667,0.9163,0.75,0.7549,0.714,0.5389,0.4274,0.3465,0.2938,0.1661,0.1192,0.2092,0.1046,0.0568,0.1224,0.1327,0.2605,0.565,0.4462,0.4498,0.6298,0.5902,0.5689,0.5684,0.6349,0.7183,0.8293,0.8535,0.8802,0.9057,0.8823,0.8477,0.8086,0.9343,1.2789,1.7537,2.0642,2.331,2.5585,2.7479,2.887,2.9969,3.2129,3.4413,3.6908,4.6424,4.6869,4.7688,4.8668,4.8845,4.9129,4.9939,5.0163,5.0145,4.9872,4.9655,4.9461,4.9188,4.875,4.8344,4.7955,4.75,4.7062,4.6684,4.5418,4.4505,4.4044,4.2252,4.0888,4.0038,3.8813,3.6974,3.4622,3.3751,3.2384,3.0574,2.995,2.9555,2.9327,2.952,2.9557,2.9619,2.944,2.9036,2.8362,2.7787,2.7213,2.6573,2.5968,2.5801,2.5611,2.464,2.4619,2.4829,2.3795,2.3553,2.3493,2.2794,2.182,2.0817,2.0201,1.9379,1.8365,1.7699,1.6763,1.5885,1.5596,1.4716,1.3993,1.3788,1.3138,1.2527,1.2206,1.1437,1.0673,1.0513,0.9943,0.9266,0.8638,0.8056,0.7323,0.6245,0.4894,0.378,0.312,0.222,0.1668,0.171,0.0978,0.0895,0.1909,0.1099,0.1532,0.3713,0.3764,0.4293,0.5582,0.6999,0.7654,0.7277,0.8887,0.9957,1.0449,1.125,1.1334,1.1007,1.1244,1.1042,1.0608,1.1984,1.4865,1.8688,2.1569,2.4006,2.6105,2.7697,2.9067,3.0509,3.2399,3.4687,3.7147,4.8236,4.8163,4.861,4.9987,4.9504,4.9257,5.0258,5.0197,4.9879,4.9499,4.9309,4.9118,4.8959,4.8495,4.8108,4.7829,4.7111,4.6605,4.6318,4.4844,4.3796,4.334,4.1456,4.0154,3.938,3.8334,3.6749,3.459,3.4067,3.2876,3.113,3.0629,3.0308,3.0177,3.0254,3.0308,3.0341,3.0137,2.9712,2.8992,2.8393,2.758,2.6816,2.6088,2.5804,2.5644,2.4532,2.4556,2.4808,2.3499,2.3071,2.2969,2.2385,2.1642,2.0744,2.0201,1.9471,1.8827,1.8164,1.7326,1.6441,1.5976,1.5168,1.4496,1.4091,1.3402,1.2636,1.2114,1.1387,1.0833,1.1049,1.0396,0.9628,0.9367,0.8478,0.7539,0.6565,0.5156,0.3921,0.322,0.2455,0.1898,0.173,0.1153,0.1268,0.2351,0.145,0.1603,0.3233,0.3752,0.4681,0.6152,0.8593,0.9683,0.9409,1.1182,1.2083,1.2051,1.2783,1.2715,1.1865,1.1785,1.1658,1.1619,1.3144,1.5455,1.838,2.1568,2.3929,2.5876,2.7584,2.9033,3.0483,3.2623,3.4896,3.7253,4.98,4.9977,5.0197,5.0883,5.0769,5.0471,5.0221,4.9959,4.9721,4.9446,4.9193,4.8959,4.8822,4.8495,4.8111,4.7741,4.6557,4.573,4.5538,4.3453,4.2106,4.1827,4.046,3.9082,3.774,3.7307,3.6134,3.4101,3.3455,3.2485,3.1414,3.1021,3.101,3.129,3.097,3.1193,3.1691,3.0367,3.0012,3.0163,2.8415,2.7377,2.6697,2.5486,2.5227,2.5429,2.453,2.4661,2.502,2.3927,2.2938,2.2131,2.1831,2.1553,2.1212,2.0473,1.9745,1.9104,1.8827,1.7699,1.6494,1.5927,1.507,1.4304,1.4304,1.363,1.2887,1.2257,1.1651,1.1334,1.1389,1.1159,1.0575,0.9498,0.8945,0.8054,0.6189,0.492,0.3997,0.3439,0.2237,0.1741,0.2574,0.1829,0.1607,0.2332,0.2635,0.3604,0.5545,0.5108,0.6254,0.9424,1.1028,1.195,1.2455,1.3419,1.3678,1.3181,1.3217,1.2597,1.1559,1.0062,0.979,1.0445,1.2394,1.4778,1.7513,2.0866,2.3076,2.4573,2.7281,2.8692,2.9715,3.2932,3.5272,3.7273,5.0017,5.0345,5.0726,5.0803,5.0529,5.0237,5.0038,4.9741,4.9446,4.9257,4.9164,4.8962,4.8678,4.8231,4.7911,4.7699,4.6418,4.5503,4.5223,4.3323,4.2023,4.1528,4.0408,3.9291,3.8058,3.76,3.6432,3.459,3.4067,3.3029,3.1615,3.1748,3.1696,3.1502,3.1619,3.1469,3.1263,3.065,2.9977,2.9269,2.8276,2.7502,2.6804,2.5947,2.5622,2.5502,2.4183,2.4143,2.4449,2.2858,2.2182,2.1903,2.1107,2.0476,1.9887,1.9783,1.9356,1.8839,1.8568,1.7644,1.66,1.5967,1.5295,1.4735,1.4351,1.3811,1.325,1.2625,1.2106,1.1801,1.1822,1.1356,1.0768,1.0086,0.9168,0.799,0.6369,0.5112,0.4273,0.4202,0.3673,0.3572,0.3967,0.3321,0.2814,0.2656,0.146,0.1537,0.3396,0.5596,0.7079,0.7789,1.1205,1.2609,1.1857,1.2541,1.2406,1.1347,1.1058,1.0254,0.9029,0.7523,0.7151,0.7663,0.9127,1.1183,1.3735,1.7513,2.0529,2.2894,2.5753,2.8032,2.9973,3.2123,3.4258,3.6418,5.0459,5.0907,5.1244,5.072,5.0632,5.0443,4.9955,4.9566,4.9321,4.9262,4.9168,4.8887,4.8307,4.7791,4.7397,4.727,4.5702,4.4617,4.4307,4.2777,4.1609,4.1169,4.0459,3.9413,3.8002,3.7524,3.6385,3.4523,3.3887,3.311,3.2219,3.2191,3.1961,3.1716,3.1695,3.1377,3.0841,3.0465,2.9864,2.9039,2.8176,2.7429,2.67,2.5793,2.5493,2.5418,2.4095,2.3989,2.4309,2.2855,2.209,2.1602,2.0697,1.9692,1.897,1.9161,1.8899,1.8394,1.7919,1.7295,1.6545,1.5735,1.518,1.4812,1.4422,1.4084,1.3743,1.3298,1.2803,1.2349,1.2282,1.1707,1.1037,1.024,0.8991,0.7613,0.6152,0.5007,0.4217,0.4209,0.4119,0.4148,0.4347,0.4185,0.3844,0.3339,0.2778,0.2797,0.3638,0.5594,0.7202,0.8196,1.1435,1.2609,1.159,1.1548,1.0716,0.9021,0.8172,0.7155,0.616,0.4863,0.4339,0.4724,0.6127,0.8159,1.0807,1.5158,1.8683,2.1547,2.4736,2.7262,2.9449,3.1638,3.3567,3.5466,5.1089,5.1586,5.1713,5.0855,5.0994,5.0912,4.9948,4.9506,4.9289,4.9289,4.9127,4.8661,4.771,4.7095,4.6608,4.6327,4.4581,4.3337,4.2917,4.1855,4.1071,4.0659,4.0368,3.9359,3.7483,3.7053,3.5923,3.4101,3.3096,3.2788,3.2998,3.2317,3.1907,3.1825,3.126,3.0911,3.0542,2.9959,2.961,2.9306,2.8053,2.7173,2.6602,2.5301,2.4964,2.5136,2.4363,2.4293,2.4557,2.3482,2.2451,2.1372,2.059,1.9443,1.8574,1.8718,1.844,1.8024,1.7296,1.677,1.6168,1.5308,1.486,1.4591,1.4578,1.4475,1.436,1.4065,1.3508,1.3009,1.2738,1.2099,1.1219,0.9913,0.8606,0.7119,0.5628,0.4632,0.4079,0.3936,0.3877,0.387,0.4069,0.4552,0.4632,0.419,0.5719,0.637,0.5638,0.5313,0.667,1.0009,1.1541,1.2125,1.1515,1.0288,0.8536,0.6321,0.4823,0.3786,0.3122,0.2177,0.1758,0.1809,0.351,0.5836,0.8796,1.3627,1.7468,2.0777,2.426,2.6641,2.8464,3.1343,3.3129,3.4554,5.0932,5.0967,5.1355,5.2298,5.1323,5.024,4.9816,4.9544,4.9396,4.916,4.8539,4.7921,4.7494,4.6102,4.504,4.4696,4.3888,4.3215,4.2917,4.1901,4.092,3.9962,3.9727,3.8772,3.6915,3.6437,3.5464,3.3949,3.3475,3.3011,3.24,3.1632,3.1275,3.1326,3.0745,3.0503,3.048,3.022,2.9693,2.8893,2.8198,2.7535,2.6815,2.6119,2.5851,2.573,2.4818,2.4585,2.4498,2.3536,2.281,2.2095,2.1383,2.0528,1.9548,1.8481,1.8012,1.7637,1.7126,1.6612,1.6154,1.5595,1.5218,1.504,1.486,1.4599,1.4112,1.346,1.2857,1.2469,1.2381,1.1882,1.1272,1.023,0.9103,0.7771,0.594,0.5315,0.5047,0.5047,0.5171,0.5423,0.5618,0.5408,0.4838,0.3774,0.3811,0.4058,0.4373,0.5396,0.6998,0.9199,1.0254,1.0095,0.8843,0.7389,0.5732,0.3807,0.2929,0.2293,0.1952,0.1315,0.0935,0.1012,0.2983,0.5329,0.8067,1.2879,1.6996,2.0581,2.4123,2.6944,2.917,3.0677,3.2387,3.4192,5.0791,5.0738,5.0914,5.1672,5.1433,5.0844,4.9834,4.9612,4.9427,4.9197,4.8352,4.7549,4.6974,4.5584,4.4418,4.3721,4.318,4.2725,4.2423,4.1455,4.0558,3.9824,3.9203,3.8252,3.6922,3.641,3.5563,3.425,3.3562,3.299,3.2663,3.1958,3.1516,3.1213,3.0837,3.0434,3.0094,3.0186,2.9491,2.8305,2.8319,2.7774,2.6869,2.6739,2.6346,2.5836,2.5081,2.4589,2.4166,2.3486,2.2827,2.2252,2.1649,2.0839,1.9866,1.8724,1.8054,1.7681,1.7016,1.649,1.5869,1.4979,1.4656,1.4487,1.4233,1.3847,1.3522,1.32,1.2814,1.2575,1.2441,1.2006,1.1202,1.008,0.8874,0.759,0.6154,0.5404,0.5193,0.5668,0.5794,0.5982,0.626,0.602,0.5418,0.4278,0.459,0.495,0.516,0.666,0.7693,0.8095,0.8353,0.7727,0.6093,0.405,0.2626,0.1798,0.1256,0.0993,0.0911,0.0782,0.093,0.1251,0.3523,0.5983,0.8786,1.3131,1.7222,2.0976,2.4237,2.7036,2.9442,3.076,3.2367,3.4175,5.0692,5.0661,5.0545,5.0283,5.119,5.1462,4.9919,4.9582,4.9459,4.9332,4.8343,4.7285,4.6376,4.5215,4.4125,4.3141,4.2688,4.2216,4.169,4.084,4.0123,3.9614,3.8631,3.7729,3.6966,3.6477,3.5719,3.4574,3.3583,3.3076,3.3085,3.2461,3.1891,3.1365,3.0976,3.0422,2.9747,3.0086,2.9368,2.8015,2.8706,2.8266,2.7166,2.7236,2.6738,2.5946,2.5344,2.4715,2.4042,2.3556,2.2954,2.2389,2.1862,2.1096,2.0175,1.9383,1.8598,1.7871,1.696,1.6141,1.5339,1.4194,1.3747,1.3577,1.3131,1.2883,1.2726,1.2883,1.27,1.2622,1.2608,1.2155,1.1288,0.9796,0.8601,0.7411,0.624,0.5347,0.5148,0.598,0.6075,0.6148,0.6392,0.635,0.5969,0.5279,0.6263,0.6873,0.6736,0.8049,0.8112,0.6556,0.6107,0.4893,0.2706,0.0493,-0.0418,-0.0086,-0.0263,-0.0266,-0.0089,0.0778,0.152,0.2403,0.5047,0.7668,1.0463,1.4232,1.8005,2.171,2.4607,2.7205,2.9566,3.1151,3.2706,3.4296,5.0696,5.0696,5.0542,5.0038,4.9977,4.9852,4.9558,4.949,4.9427,4.923,4.7788,4.6652,4.6274,4.4595,4.3359,4.2994,4.2727,4.2163,4.1197,4.0771,3.9849,3.8181,3.7785,3.7153,3.618,3.5825,3.517,3.4114,3.4178,3.3681,3.2615,3.1551,3.1384,3.1848,3.0388,2.998,3.0366,3.0745,3.0192,2.9252,2.966,2.9407,2.8675,2.7873,2.7397,2.6979,2.5949,2.5444,2.5116,2.4757,2.4279,2.3688,2.3132,2.2548,2.1746,2.0836,1.9605,1.8209,1.6894,1.557,1.4471,1.4275,1.3729,1.3051,1.243,1.2153,1.184,1.1452,1.123,1.1278,1.1928,1.2063,1.1595,1.0251,0.9507,0.838,0.6248,0.5983,0.6049,0.6009,0.629,0.6459,0.64,0.6013,0.5791,0.5916,0.6216,0.6769,0.7819,0.786,0.6515,0.37,0.3547,0.1467,-0.2652,-0.3228,-0.3156,-0.2272,-0.1993,-0.1347,-0.0436,0.1411,0.3017,0.4599,0.7906,1.0463,1.2584,1.6281,1.9384,2.2232,2.5499,2.8153,3.0363,3.1625,3.2962,3.4463,5.0459,5.0397,5.0089,4.9469,4.9421,4.949,4.949,4.949,4.9059,4.79,4.7281,4.6591,4.5616,4.423,4.3321,4.3069,4.2844,4.2109,4.0613,4.0223,3.9364,3.7958,3.7213,3.6569,3.5922,3.5294,3.4701,3.4096,3.3662,3.3208,3.2752,3.2008,3.1951,3.2394,3.1551,3.089,3.0476,3.1323,3.0488,2.8685,3.0221,3.0012,2.8778,2.8948,2.8546,2.7732,2.685,2.6115,2.5481,2.4953,2.4484,2.4014,2.3441,2.2528,2.1463,2.0512,1.9158,1.7636,1.6188,1.5072,1.4196,1.3656,1.2899,1.2141,1.1436,1.0941,1.0692,1.0864,1.0858,1.1067,1.1817,1.1927,1.1622,1.0621,0.9408,0.812,0.6855,0.5871,0.5368,0.5565,0.5607,0.5662,0.5727,0.5603,0.5617,0.579,0.6526,0.7183,0.7609,0.7624,0.5895,0.2133,-0.0643,-0.3403,-0.5995,-0.603,-0.5532,-0.4494,-0.3862,-0.2751,-0.1022,0.1405,0.371,0.6094,0.9562,1.2317,1.4629,1.7639,2.052,2.3351,2.6549,2.9204,3.1243,3.2623,3.4238,3.5844,5.0114,4.9906,4.9445,4.8539,4.8301,4.8234,4.8234,4.8265,4.7754,4.6067,4.6442,4.6376,4.5031,4.4046,4.3393,4.3214,4.2995,4.219,4.0558,3.9921,3.9135,3.8082,3.7116,3.6363,3.5878,3.5179,3.4675,3.432,3.3363,3.2973,3.3144,3.2392,3.2431,3.3003,3.2541,3.1689,3.0754,3.1995,3.093,2.8685,3.0887,3.0689,2.9146,2.9949,2.9483,2.8363,2.7577,2.6777,2.5964,2.5287,2.4677,2.4103,2.3573,2.243,2.0997,2.0121,1.857,1.6788,1.5405,1.4547,1.3731,1.2659,1.1911,1.1235,1.0438,1.0048,1.0023,1.0606,1.0877,1.1361,1.2155,1.2249,1.1849,1.0883,0.9262,0.7833,0.6949,0.5584,0.4734,0.494,0.4886,0.485,0.4893,0.524,0.5575,0.5823,0.6979,0.7664,0.7647,0.7261,0.4608,-0.0633,-0.5086,-0.7894,-0.9029,-0.8782,-0.8098,-0.704,-0.6003,-0.4444,-0.2238,0.0569,0.3545,0.6663,1.0081,1.315,1.5957,1.8434,2.1243,2.439,2.7328,2.978,3.1918,3.3453,3.5069,3.6567,4.9537,4.9352,4.8776,4.7143,4.5488,4.4389,4.4389,4.467,4.4662,4.4087,4.4942,4.546,4.4957,4.4011,4.3359,4.3214,4.2995,4.2482,4.1538,4.0554,3.938,3.8164,3.7679,3.6956,3.601,3.5907,3.5522,3.4635,3.4287,3.3946,3.3684,3.1883,3.2015,3.3774,3.2183,3.152,3.1566,3.2863,3.228,3.0618,3.1987,3.1965,3.1014,3.0187,2.9667,2.9143,2.7781,2.7245,2.7072,2.6412,2.5437,2.439,2.3987,2.2818,2.1406,2.0495,1.8342,1.5999,1.4764,1.3701,1.2613,1.1435,1.0802,1.0295,0.9491,0.986,1.0347,1.0451,1.1085,1.2014,1.319,1.3286,1.2648,1.0948,0.9695,0.8118,0.5718,0.525,0.4905,0.4274,0.4684,0.4722,0.4069,0.4922,0.5834,0.6575,0.7539,0.8246,0.8685,0.6559,0.1658,-0.6499,-0.9075,-1.0995,-1.2491,-1.1957,-1.1319,-1.0638,-0.8666,-0.6769,-0.4813,-0.1219,0.2289,0.5781,0.9389,1.2821,1.6046,1.8306,2.1422,2.4986,2.7171,2.9577,3.201,3.3594,3.4442,3.5154,4.9257,4.8343,4.7318,4.6685,4.5164,4.3986,4.3986,4.4116,4.4055,4.3667,4.3118,4.2897,4.3272,4.2947,4.266,4.2591,4.2995,4.2596,4.1143,4.0996,3.9899,3.7536,3.7061,3.6713,3.6318,3.6191,3.572,3.484,3.4481,3.424,3.403,3.3057,3.3252,3.4447,3.3713,3.2919,3.219,3.3047,3.2369,3.0804,3.1997,3.2006,3.124,3.1215,3.0777,3.0046,2.9274,2.8598,2.7884,2.7424,2.6287,2.4998,2.457,2.2882,2.0707,1.8548,1.6868,1.5273,1.3476,1.2546,1.1866,1.1261,1.0494,0.9852,0.9748,1.0094,1.0639,1.1237,1.2079,1.2976,1.3978,1.3976,1.3398,1.2261,1.0113,0.8041,0.6293,0.4908,0.3796,0.3111,0.3254,0.3258,0.3007,0.3957,0.4797,0.5272,0.6676,0.7189,0.6425,0.1644,-0.3844,-0.9699,-1.3204,-1.5286,-1.5833,-1.512,-1.4356,-1.3433,-1.1143,-0.8808,-0.6416,-0.301,0.0438,0.3843,0.7729,1.1692,1.568,1.8548,2.2029,2.5815,2.8302,3.0576,3.257,3.3836,3.5174,3.6474,4.8604,4.7499,4.6434,4.6108,4.5212,4.4395,4.4061,4.3986,4.386,4.3566,4.2543,4.2066,4.2616,4.269,4.2656,4.2587,4.31,4.2774,4.1283,4.0926,3.9799,3.7506,3.7155,3.6811,3.652,3.6318,3.5908,3.5309,3.4771,3.4631,3.4701,3.3651,3.3727,3.4672,3.4346,3.3545,3.2517,3.3639,3.2978,3.1389,3.2495,3.2507,3.191,3.1966,3.1541,3.0866,3.0098,2.9342,2.8604,2.8011,2.6703,2.5246,2.4804,2.2697,1.9879,1.7171,1.5755,1.4652,1.2569,1.1367,1.0645,1.0212,0.9751,0.9387,0.9477,1.0302,1.1302,1.2195,1.3431,1.4544,1.5365,1.501,1.4136,1.2842,1.0336,0.786,0.6022,0.4333,0.2862,0.1748,0.1746,0.1618,0.1252,0.2554,0.3555,0.4056,0.5252,0.4819,0.2245,-0.317,-0.8193,-1.2491,-1.6309,-1.865,-1.9334,-1.8174,-1.6982,-1.5816,-1.3273,-1.0654,-0.8076,-0.4678,-0.1218,0.2399,0.6633,1.1165,1.5828,1.9175,2.3009,2.6914,2.9079,3.1083,3.2927,3.4269,3.5652,3.6969,4.741,4.701,4.628,4.53,4.5407,4.5287,4.4172,4.3986,4.386,4.3566,4.3497,4.3497,4.3497,4.3497,4.3461,4.3461,4.3428,4.3065,4.226,4.0166,3.8793,3.8289,3.8088,3.7533,3.652,3.636,3.6276,3.6225,3.5343,3.5215,3.5766,3.3439,3.3119,3.4462,3.3761,3.3017,3.2476,3.4635,3.4418,3.2685,3.3729,3.3834,3.3203,3.2292,3.1865,3.1511,2.9867,2.9348,2.9098,2.7979,2.6504,2.5059,2.4577,2.2214,1.9136,1.6683,1.533,1.418,1.2135,1.0378,0.8857,0.797,0.8287,0.8803,0.8386,1.0326,1.2422,1.3237,1.5079,1.6689,1.7385,1.6454,1.485,1.25,1.0238,0.7653,0.4424,0.3477,0.2305,0.02,0.0199,-0.0101,-0.1243,0.0538,0.212,0.3005,0.3245,0.1125,-0.3899,-0.7148,-1.085,-1.5085,-1.8163,-2.0858,-2.3195,-2.1083,-1.9192,-1.76,-1.4866,-1.2285,-0.9774,-0.6388,-0.2498,0.1755,0.6378,1.1372,1.661,2.0286,2.4375,2.8367,2.9214,3.0826,3.2944,3.4803,3.5571,3.6095,4.6919,4.627,4.5616,4.5291,4.4841,4.4395,4.4061,4.3986,4.386,4.3566,4.3642,4.3713,4.3671,4.3188,4.282,4.2754,4.3235,4.2876,4.1314,3.9438,3.8222,3.7861,3.7517,3.7096,3.669,3.6643,3.6561,3.6561,3.6111,3.595,3.6114,3.5292,3.5224,3.5728,3.5008,3.4254,3.3568,3.3596,3.3337,3.2817,3.2393,3.237,3.2499,3.2013,3.1201,3.0317,3.0454,2.9788,2.8769,2.8117,2.6825,2.5,2.246,2.0723,1.9101,1.6254,1.5018,1.4089,1.1649,1.0076,0.9044,0.876,0.8318,0.8158,0.8913,1.0585,1.249,1.4272,1.5874,1.7203,1.8187,1.7342,1.5496,1.2418,1.0131,0.7379,0.3391,0.1515,-0.0143,-0.2097,-0.2814,-0.3417,-0.3976,-0.2476,-0.1302,-0.0863,-0.1176,-0.3071,-0.6969,-0.9631,-1.2677,-1.6374,-1.8555,-2.0414,-2.2093,-2.1955,-2.1085,-1.9406,-1.5189,-1.1998,-0.9669,-0.3937,0.0136,0.3017,0.8649,1.3767,1.8338,2.1942,2.5816,2.9558,3.0284,3.1799,3.3688,3.4796,3.5707,3.6574,4.5631,4.5164,4.4804,4.4772,4.4326,4.3986,4.3986,4.3986,4.3923,4.3697,4.3808,4.3845,4.3804,4.3361,4.3033,4.2897,4.2717,4.2106,4.0878,3.9143,3.8036,3.7685,3.7392,3.7126,3.6891,3.6766,3.6684,3.6684,3.6208,3.6091,3.6367,3.5614,3.538,3.5469,3.5059,3.4337,3.3294,3.3394,3.322,3.2791,3.2274,3.2125,3.219,3.1671,3.1124,3.0556,3.0357,2.9885,2.9193,2.8093,2.6382,2.4298,2.1556,2.0034,1.8738,1.594,1.4583,1.3433,1.0882,0.9164,0.8017,0.7736,0.7415,0.7423,0.8474,1.0286,1.2335,1.427,1.588,1.707,1.7469,1.6213,1.4085,1.0848,0.7881,0.4735,0.1172,-0.1042,-0.2959,-0.4852,-0.578,-0.6457,-0.7059,-0.5874,-0.4915,-0.4488,-0.514,-0.689,-0.9822,-1.1716,-1.3853,-1.6278,-1.7403,-1.8543,-1.9684,-1.921,-1.9727,-2.121,-1.3932,-1.0744,-1.0886,-0.236,0.2803,0.5282,1.0234,1.5636,2.1147,2.4394,2.7665,3.068,3.1212,3.2501,3.4166,3.5107,3.5814,3.6398,4.4085,4.3986,4.3992,4.3929,4.3992,4.3986,4.3986,4.3986,4.3986,4.4017,4.4017,4.3992,4.3934,4.3869,4.3734,4.3634,4.2062,4.1009,4.0805,3.9246,3.8104,3.7721,3.7649,3.7429,3.7048,3.6846,3.669,3.662,3.5804,3.5729,3.6318,3.4857,3.4198,3.4237,3.4359,3.3593,3.23,3.3621,3.3567,3.2582,3.2782,3.2575,3.2112,3.1214,3.125,3.1526,2.9876,2.9713,2.996,2.7829,2.5452,2.3152,2.1415,1.9822,1.803,1.5556,1.3915,1.2333,0.9902,0.782,0.6121,0.5217,0.5365,0.6054,0.703,0.9157,1.1298,1.2804,1.4322,1.5336,1.5008,1.3135,1.0673,0.7683,0.3898,0.0445,-0.2003,-0.4156,-0.6143,-0.7874,-0.8625,-0.9397,-1.0368,-0.9491,-0.864,-0.8147,-0.8806,-1.0217,-1.2448,-1.3411,-1.4257,-1.5163,-1.5137,-1.5435,-1.6245,-1.3955,-1.5678,-2.117,-1.0704,-0.8158,-1.2186,-0.1242,0.4824,0.6982,1.0567,1.657,2.4007,2.6843,2.942,3.1597,3.1977,3.3029,3.439,3.5571,3.5888,3.5806,4.4423,4.4177,4.4123,4.4023,4.4085,4.4116,4.4023,4.3986,4.4079,4.4354,4.414,4.4055,4.4153,4.4023,4.3897,4.3771,4.2128,4.1009,4.0805,3.9246,3.8171,3.7967,3.7792,3.7613,3.7466,3.7241,3.6767,3.6015,3.5801,3.5448,3.4917,3.4561,3.4387,3.4394,3.3873,3.3382,3.2925,3.2682,3.2562,3.24,3.1712,3.139,3.1316,3.092,3.0316,2.9738,2.9748,2.9512,2.8904,2.659,2.4541,2.2536,2.0069,1.8669,1.739,1.446,1.245,1.0736,0.8495,0.6173,0.3899,0.2231,0.092,0.0915,0.4075,0.5024,0.5713,0.7293,0.6498,0.6067,0.7889,0.68,0.4459,0.084,-0.0412,-0.2267,-0.6124,-0.8265,-0.9612,-1.0031,-1.145,-1.2798,-1.397,-1.302,-1.2435,-1.2736,-1.2108,-1.2528,-1.445,-1.3717,-1.323,-1.3285,-1.2197,-1.1752,-1.1874,-1.0623,-0.9789,-0.9309,-0.2376,-0.1724,-0.6379,0.0699,0.2441,0.0186,0.5942,1.3359,2.1648,2.529,2.8579,3.1391,3.2244,3.3108,3.4073,3.5551,3.5941,3.5724,4.4579,4.4304,4.4244,4.4147,4.4177,4.4147,4.3986,4.3986,4.4048,4.4237,4.4079,4.4055,4.4116,4.4055,4.3775,4.3282,4.1908,4.0895,4.0394,3.9094,3.8303,3.8204,3.807,3.7753,3.7254,3.7148,3.6719,3.5925,3.561,3.5148,3.4616,3.4191,3.4016,3.4055,3.3633,3.3211,3.2826,3.2301,3.2117,3.2051,3.1365,3.1031,3.0902,3.0522,3.017,2.9844,2.969,2.8935,2.774,2.5968,2.4058,2.2009,1.9727,1.8134,1.6488,1.3216,1.1162,0.9263,0.6284,0.3645,0.1222,-0.0947,-0.3024,-0.3723,-0.0538,0.0082,0.0159,0.0883,0.022,-0.0136,0.0939,-0.0081,-0.1231,-0.1764,-0.3045,-0.4668,-0.6668,-0.7937,-0.9376,-1.132,-1.1049,-1.133,-1.2988,-1.262,-1.3003,-1.4862,-1.4434,-1.4436,-1.5279,-1.3922,-1.2728,-1.1948,-1.0137,-0.9015,-0.8777,-0.7195,-0.482,-0.1712,0.1495,-0.0206,-0.5936,-0.0216,0.1112,-0.0883,0.2949,0.9889,1.8964,2.5659,2.8996,3.0021,3.1678,3.2991,3.3991,3.4377,3.4188,3.3664,4.4665,4.4354,4.4333,4.4304,4.4237,4.4177,4.4017,4.4017,4.4055,4.4055,4.4017,4.3986,4.4017,4.3875,4.3447,4.2622,4.1572,4.063,3.9937,3.8935,3.8433,3.8433,3.8368,3.7874,3.6913,3.691,3.6532,3.5757,3.5155,3.473,3.4447,3.3565,3.3283,3.3458,3.3108,3.2791,3.2507,3.2127,3.188,3.1765,3.1287,3.0937,3.0675,3.0126,3.0217,3.0467,2.9534,2.824,2.6788,2.5481,2.3599,2.1455,1.9332,1.7354,1.5086,1.1665,0.9462,0.7311,0.3618,0.0678,-0.1914,-0.4323,-0.6823,-0.8243,-0.6636,-0.5725,-0.5345,-0.5633,-0.5736,-0.5772,-0.5839,-0.6849,-0.6767,-0.3876,-0.5439,-0.6588,-0.5341,-0.5348,-0.6435,-0.8916,-0.7741,-0.7657,-0.9965,-1.1104,-1.2997,-1.6137,-1.6165,-1.6003,-1.5916,-1.4248,-1.2658,-1.1248,-0.8915,-0.7442,-0.6952,-0.4698,-0.1755,0.1745,0.1739,-0.1613,-0.768,-0.3003,-0.1639,-0.2855,-0.1341,0.4949,1.4857,2.4024,2.7657,2.7727,3.043,3.2396,3.3542,3.2642,3.177,3.0944,4.4684,4.4411,4.4354,4.4207,4.4266,4.4199,4.4017,4.4147,4.4237,4.4237,4.4116,4.4055,4.4147,4.3392,4.2723,4.2451,4.102,4.0042,3.9841,3.8967,3.846,3.846,3.8496,3.8063,3.7228,3.729,3.6344,3.4363,3.4324,3.3898,3.3155,3.2275,3.2243,3.2847,3.1402,3.1376,3.2472,3.1668,3.1533,3.1806,3.0967,3.0768,3.0851,2.9902,2.9848,3.0152,2.9178,2.7805,2.6149,2.4562,2.273,2.0624,1.7562,1.5025,1.2516,0.9422,0.6365,0.3449,0.0945,-0.2414,-0.5793,-0.8088,-1.065,-1.3111,-1.4995,-1.3025,-1.0922,-1.1255,-1.3008,-1.4003,-1.2375,-1.2583,-1.229,-1.0186,-0.9289,-0.7394,-0.3257,-0.2191,-0.0322,0.3717,0.0068,-0.3917,-0.6907,-1.1612,-1.5532,-1.8131,-1.7474,-1.7142,-1.7634,-1.5081,-1.3141,-1.2049,-0.951,-0.776,-0.7103,-0.4853,-0.3105,-0.184,-0.2798,-0.5227,-0.8853,-0.7533,-1.0091,-1.5429,-1.1919,-0.4085,0.6684,1.3656,1.9277,2.3985,2.8259,3.0662,3.1657,3.065,2.9916,2.8969,4.5444,4.4806,4.4383,4.4354,4.4296,4.4237,4.4177,4.4147,4.4147,4.4147,4.4085,4.4017,4.4085,4.3632,4.2881,4.1793,4.0861,4.0013,3.9307,3.8934,3.8743,3.8803,3.8796,3.8456,3.7645,3.7202,3.625,3.4754,3.4613,3.3876,3.2559,3.2486,3.2358,3.225,3.1418,3.1611,3.2639,3.1661,3.16,3.2091,3.1566,3.1345,3.1244,3.0311,2.9861,2.951,2.7688,2.6509,2.547,2.3428,2.1631,1.9713,1.66,1.3709,1.0742,0.6978,0.35,0.0204,-0.2788,-0.5979,-0.9032,-1.1447,-1.4054,-1.6386,-1.778,-1.7194,-1.6373,-1.6443,-1.7108,-1.7255,-1.5912,-1.5447,-1.3454,-0.7955,-0.5785,-0.3169,0.1408,0.4718,0.7135,0.8371,0.4216,-0.0704,-0.5692,-1.0489,-1.4809,-1.8338,-1.8399,-1.8393,-1.8648,-1.6926,-1.538,-1.4146,-1.2166,-1.0737,-0.986,-0.8508,-0.7705,-0.7512,-0.7936,-0.8285,-0.8706,-1.1886,-1.4992,-1.7762,-1.6633,-1.0675,-0.1168,0.6676,1.3642,1.9811,2.4526,2.7822,2.9799,2.9196,2.7585,2.5433]},{"header":{"parameterUnit":"m.s-1","parameterCategory":1,"la1":30.6,"la2":28.766,"lo1":-90.7593,"lo2":-88.6598,"dy":0.0162,"dx":0.0183,"nx":116,"ny":114,"refTime":"2023-10-06T12:00:00:Z","depth":0,"parameterNumber":3,"parameterNumberName":"V-component_of_WINDS"},"data":[0.0,0.0,0.0,0.0,0.0,0.0,0.0,0.0,0.0,0.0,0.0,0.0,0.0,0.0,0.0,0.0,0.0,0.0,0.0,0.0,0.0,0.0,0.0,0.0,0.0,0.0,0.0,0.0,0.0,0.0,0.0,0.0,0.0,0.0,0.0,0.0,0.0,0.0,0.0,0.0,0.0,0.0,0.0,0.0,0.0,0.0,0.0,0.0,0.0,0.0,0.0,0.0,0.0,0.0,0.0,0.0,0.0,0.0,0.0,0.0,0.0,0.0,0.0,0.0,0.0,0.0,0.0,0.0,0.0,0.0,0.0,0.0,0.0,0.0,0.0,0.0,0.0,0.0,0.0,0.0,0.0,0.0,0.0,0.0,0.0,0.0,0.0,0.0,0.0,0.0,0.0,0.0,0.0,0.0,0.0,0.0,0.0,0.0,0.0,0.0,0.0,0.0,0.0,0.0,0.0,0.0,0.0,0.0,0.0,0.0,0.0,0.0,0.0,0.0,0.0,0.0,0.0,0.0,0.0,0.0,0.0,0.0,0.0,0.0,0.0,0.0,0.0,0.0,0.0,0.0,0.0,0.0,0.0,0.0,0.0,0.0,0.0,0.0,0.0,0.0,0.0,0.0,0.0,0.0,0.0,0.0,0.0,0.0,0.0,0.0,0.0,0.0,0.0,0.0,0.0,0.0,0.0,0.0,0.0,0.0,0.0,0.0,0.0,0.0,0.0,0.0,0.0,0.0,0.0,0.0,0.0,0.0,0.0,0.0,0.0,0.0,0.0,0.0,0.0,0.0,0.0,0.0,0.0,0.0,0.0,0.0,0.0,0.0,0.0,0.0,0.0,0.0,0.0,0.0,0.0,0.0,0.0,0.0,0.0,0.0,0.0,0.0,0.0,0.0,0.0,0.0,0.0,0.0,0.0,0.0,0.0,0.0,0.0,0.0,0.0,0.0,0.0,0.0,0.0,0.0,0.0,0.0,0.0,0.0,0.0,0.0,0.0,0.0,0.0,0.0,0.0,0.0,0.0,0.0,0.0,0.0,0.0,0.0,0.0,0.0,0.0,0.0,0.0,0.0,0.0,0.0,0.0,0.0,0.0,0.0,0.0,0.0,0.0,0.0,0.0,0.0,0.0,0.0,0.0,0.0,0.0,0.0,0.0,0.0,0.0,0.0,0.0,0.0,0.0,0.0,0.0,0.0,0.0,0.0,0.0,0.0,0.0,0.0,0.0,0.0,0.0,0.0,0.0,0.0,0.0,0.0,0.0,0.0,0.0,0.0,0.0,0.0,0.0,0.0,0.0,0.0,0.0,0.0,0.0,0.0,0.0,0.0,0.0,0.0,0.0,0.0,0.0,0.0,0.0,0.0,0.0,0.0,0.0,0.0,0.0,0.0,0.0,0.0,0.0,0.0,0.0,0.0,0.0,0.0,0.0,0.0,0.0,0.0,0.0,0.0,0.0,0.0,0.0,0.0,0.0,0.0,0.0,0.0,0.0,0.0,0.0,0.0,0.0,0.0,0.0,0.0,0.0,0.0,0.0,0.0,0.0,0.0,0.0,0.0,0.0,0.0,0.0,0.0,0.0,0.0,0.0,0.0,0.0,0.0,0.0,0.0,0.0,0.0,0.0,0.0,0.0,0.0,0.0,0.0,0.0,0.0,0.0,0.0,0.0,0.0,0.0,0.0,0.0,0.0,0.0,0.0,0.0,0.0,0.0,0.0,0.0,0.0,0.0,0.0,0.0,0.0,0.0,0.0,0.0,0.0,0.0,0.0,0.0,0.0,0.0,0.0,0.0,0.0,0.0,0.0,0.0,0.0,0.0,0.0,0.0,0.0,0.0,0.0,0.0,0.0,0.0,0.0,0.0,0.0,0.0,0.0,0.0,0.0,0.0,0.0,0.0,0.0,0.0,0.0,0.0,0.0,0.0,0.0,0.0,0.0,0.0,0.0,0.0,0.0,0.0,0.0,0.0,0.0,0.0,0.0,0.0,0.0,0.0,0.0,0.0,0.0,0.0,0.0,0.0,0.0,0.0,0.0,0.0,0.0,0.0,0.0,0.0,0.0,0.0,0.0,0.0,0.0,0.0,0.0,0.0,0.0,0.0,0.0,0.0,0.0,0.0,0.0,0.0,0.0,0.0,0.0,0.0,0.0,0.0,0.0,0.0,0.0,0.0,0.0,0.0,0.0,0.0,0.0,0.0,0.0,0.0,0.0,0.0,0.0,0.0,0.0,0.0,0.0,0.0,0.0,0.0,0.0,0.0,0.0,0.0,0.0,0.0,0.0,0.0,0.0,0.0,0.0,0.0,0.0,0.0,0.0,0.0,0.0,0.0,0.0,0.0,0.0,0.0,0.0,0.0,0.0,0.0,0.0,0.0,0.0,0.0,0.0,0.0,0.0,0.0,0.0,0.0,0.0,0.0,0.0,0.0,0.0,0.0,0.0,0.0,0.0,0.0,0.0,0.0,0.0,0.0,0.0,0.0,0.0,0.0,0.0,0.0,0.0,0.0,0.0,0.0,0.0,0.0,0.0,0.0,0.0,0.0,0.0,0.0,0.0,0.0,0.0,0.0,0.0,0.0,0.0,0.0,0.0,0.0,0.0,0.0,0.0,0.0,0.0,0.0,0.0,0.0,0.0,0.0,0.0,0.0,0.0,0.0,0.0,0.0,0.0,0.0,0.0,0.0,0.0,0.0,0.0,0.0,0.0,0.0,0.0,0.0,0.0,0.0,0.0,0.0,0.0,0.0,0.0,0.0,0.0,0.0,0.0,0.0,0.0,0.0,0.0,0.0,0.0,0.0,0.0,0.0,0.0,0.0,0.0,0.0,0.0,0.0,0.0,0.0,0.0,0.0,0.0,0.0,0.0,0.0,0.0,0.0,0.0,0.0,0.0,0.0,0.0,0.0,0.0,0.0,0.0,0.0,0.0,0.0,0.0,0.0,0.0,0.0,0.0,0.0,0.0,0.0,0.0,0.0,0.0,0.0,0.0,0.0,0.0,0.0,0.0,0.0,0.0,0.0,0.0,0.0,0.0,0.0,0.0,0.0,0.0,0.0,0.0,0.0,0.0,0.0,0.0,0.0,0.0,0.0,0.0,0.0,0.0,0.0,0.0,0.0,0.0,0.0,0.0,0.0,0.0,0.0,0.0,0.0,0.0,0.0,0.0,0.0,0.0,0.0,0.0,0.0,0.0,0.0,0.0,0.0,0.0,0.0,0.0,0.0,0.0,0.0,0.0,0.0,0.0,0.0,0.0,0.0,0.0,0.0,0.0,0.0,0.0,0.0,0.0,0.0,0.0,0.0,0.0,0.0,0.0,0.0,0.0,0.0,0.0,0.0,0.0,0.0,0.0,0.0,0.0,0.0,0.0,0.0,0.0,0.0,0.0,0.0,0.0,0.0,0.0,0.0,0.0,0.0,0.0,0.0,0.0,0.0,0.0,0.0,0.0,0.0,0.0,0.0,0.0,0.0,0.0,0.0,0.0,0.0,0.0,0.0,0.0,0.0,0.0,0.0,0.0,0.0,0.0,0.0,0.0,0.0,0.0,0.0,0.0,0.0,0.0,0.0,0.0,0.0,0.0,0.0,0.0,0.0,0.0,0.0,0.0,0.0,0.0,0.0,0.0,0.0,0.0,0.0,0.0,0.0,0.0,0.0,0.0,0.0,0.0,0.0,0.0,0.0,0.0,0.0,0.0,0.0,0.0,0.0,0.0,0.0,0.0,0.0,0.0,0.0,0.0,0.0,0.0,0.0,0.0,0.0,0.0,0.0,0.0,0.0,0.0,0.0,0.0,0.0,0.0,0.0,0.0,0.0,0.0,0.0,0.0,0.0,0.0,0.0,0.0,0.0,0.0,0.0,0.0,0.0,0.0,0.0,0.0,0.0,0.0,0.0,0.0,0.0,0.0,0.0,0.0,0.0,0.0,0.0,0.0,0.0,0.0,0.0,0.0,0.0,0.0,0.0,0.0,0.0,0.0,0.0,0.0,0.0,0.0,0.0,0.0,0.0,0.0,0.0,0.0,0.0,0.0,0.0,0.0,0.0,0.0,0.0,0.0,0.0,0.0,0.0,0.0,0.0,0.0,0.0,0.0,0.0,0.0,0.0,0.0,0.0,0.0,0.0,0.0,0.0,0.0,0.0,0.0,0.0,0.0,0.0,0.0,0.0,0.0,0.0,0.0,0.0,0.0,0.0,0.0,0.0,0.0,0.0,0.0,0.0,0.0,0.0,0.0,0.0,0.0,0.0,0.0,0.0,0.0,0.0,0.0,0.0,0.0,0.0,0.0,0.0,0.0,0.0,0.0,0.0,0.0,0.0,0.0,0.0,0.0,0.0,0.0,0.0,0.0,0.0,0.0,0.0,0.0,0.0,0.0,0.0,0.0,0.0,0.0,0.0,0.0,0.0,0.0,0.0,0.0,0.0,0.0,0.0,0.0,0.0,0.0,0.0,0.0,0.0,0.0,0.0,0.0,0.0,0.0,0.0,0.0,0.0,0.0,0.0,0.0,0.0,0.0,0.0,0.0,0.0,0.0,0.0,0.0,0.0,0.0,0.0,0.0,0.0,0.0,0.0,0.0,0.0,0.0,0.0,0.0,0.0,0.0,0.0,0.0,0.0,0.0,0.0,0.0,0.0,0.0,0.0,0.0,0.0,0.0,0.0,0.0,0.0,0.0,0.0,0.0,0.0,0.0,0.0,0.0,0.0,0.0,0.0,0.0,0.0,0.0,0.0,0.0,0.0,0.0,0.0,0.0,0.0,0.0,0.0,0.0,0.0,0.0,0.0,0.0,0.0,0.0,0.0,0.0,0.0,0.0,0.0,0.0,0.0,0.0,0.0,0.0,0.0,0.0,0.0,0.0,0.0,0.0,0.0,0.0,0.0,0.0,0.0,0.0,0.0,0.0,0.0,0.0,0.0,0.0,0.0,0.0,0.0,0.0,0.0,0.0,0.0,0.0,0.0,0.0,0.0,0.0,0.0,0.0,0.0,0.0,0.0,0.0,0.0,0.0,0.0,0.0,0.0,0.0,0.0,0.0,0.0,0.0,0.0,0.0,0.0,0.0,0.0,0.0,0.0,0.0,0.0,0.0,0.0,0.0,0.0,0.0,0.0,0.0,0.0,0.0,0.0,0.0,0.0,0.0,0.0,0.0,0.0,0.0,0.0,0.0,0.0,0.0,0.0,0.0,0.0,0.0,0.0,0.0,0.0,0.0,0.0,0.0,0.0,0.0,0.0,0.0,0.0,0.0,0.0,0.0,0.0,0.0,0.0,0.0,0.0,0.0,0.0,0.0,0.0,0.0,0.0,0.0,0.0,0.0,0.0,0.0,0.0,0.0,0.0,0.0,0.0,0.0,0.0,0.0,0.0,0.0,0.0,0.0,0.0,0.0,0.0,0.0,0.0,0.0,0.0,0.0,0.0,0.0,0.0,0.0,0.0,0.0,0.0,0.0,0.0,0.0,0.0,0.0,0.0,0.0,0.0,0.0,0.0,0.0,0.0,0.0,0.0,0.0,0.0,0.0,0.0,0.0,0.0,0.0,0.0,0.0,0.0,0.0,0.0,0.0,0.0,0.0,0.0,0.0,0.0,0.0,0.0,0.0,0.0,0.0,0.0,0.0,0.0,0.0,0.0,0.0,0.0,0.0,0.0,0.0,0.0,0.0,0.0,0.0,0.0,0.0,0.0,0.0,0.0,0.0,0.0,0.0,0.0,0.0,0.0,0.0,0.0,0.0,0.0,0.0,0.0,0.0,0.0,0.0,0.0,0.0,0.0,0.0,0.0,0.0,0.0,0.0,0.0,0.0,0.0,0.0,0.0,0.0,0.0,0.0,0.0,0.0,0.0,0.0,0.0,0.0,0.0,0.0,0.0,0.0,0.0,0.0,0.0,0.0,0.0,0.0,0.0,0.0,0.0,0.0,0.0,0.0,0.0,0.0,0.0,0.0,0.0,0.0,0.0,0.0,0.0,0.0,0.0,0.0,0.0,0.0,0.0,0.0,0.0,0.0,0.0,0.0,0.0,0.0,0.0,0.0,0.0,0.0,0.0,0.0,0.0,0.0,0.0,0.0,0.0,0.0,0.0,0.0,0.6355,0.5405,0.0,0.0,0.0,0.0,0.0,0.0,0.0,0.0,0.0,0.0,0.0,0.0,0.0,0.0,0.0,0.0,0.0,0.0,0.0,0.0,0.0,0.0,0.0,0.0,0.0,0.0,0.0,0.0,0.0,0.0,0.0,0.0,0.0,0.0,0.0,0.0,0.0,-0.565,-0.7029,-0.8529,-1.0156,-1.0641,-1.124,-1.1933,0.0,0.0,0.0,0.0,0.0,0.0,0.0,0.0,0.0,0.0,0.0,0.0,0.0,0.0,0.0,0.0,0.0,0.0,0.0,0.0,0.0,0.0,0.0,0.0,0.0,0.0,0.0,0.0,0.0,0.0,0.0,0.0,0.0,0.0,0.0,0.0,0.0,0.0,0.0,0.0,0.0,0.0,0.0,0.0,0.0,0.0,0.0,0.0,0.0,0.0,0.0,0.0,0.0,0.0,0.0,0.0,0.0,0.0,0.0,0.0,0.0,0.0,0.0,0.0,0.0,0.0,0.0,0.0,0.0,0.0,0.7843,0.7329,0.0,0.0,0.0,0.0,0.0,0.0,0.0,0.0,0.0,0.0,0.0,0.0,0.0,0.0,0.0,0.0,0.0,0.0,0.0,0.0,0.0,0.0,0.0,-0.1393,-0.0855,0.0098,0.0262,0.0458,0.0,0.0,0.0,0.0,0.0,0.0,-0.2521,-0.3392,-0.4526,-0.5936,-0.7405,-0.8887,-1.0283,-0.99,-1.0124,-1.0829,-1.0886,0.0,0.0,0.0,0.0,0.0,0.0,0.0,0.0,0.0,0.0,0.0,0.0,0.0,0.0,0.0,0.0,0.0,0.0,0.0,0.0,0.0,0.0,0.0,0.0,0.0,0.0,0.0,0.0,0.0,0.0,0.0,0.0,0.0,0.0,0.0,0.0,0.0,0.0,0.0,0.0,0.0,0.0,0.0,0.0,0.0,0.0,0.0,0.0,0.0,0.0,0.0,0.0,0.0,0.0,0.0,0.0,0.0,0.0,0.0,0.0,0.0,0.0,0.0,0.9509,0.9282,0.9089,0.9147,0.9436,0.9822,0.9948,0.9783,0.9466,0.9488,0.0,0.0,0.0,0.0,0.0,0.0,0.0,0.0,0.0,0.0,0.0,0.0,0.0,0.0,0.0,0.0,0.0,0.0,0.0,0.0,0.0,-0.1683,-0.1263,-0.0761,-0.0242,0.0283,0.085,0.0,0.0,0.0,0.0,0.0,-0.2328,-0.3412,-0.4646,-0.6079,-0.7872,-0.8615,-0.8393,-0.8224,-0.7717,-0.6936,-0.8383,-0.9376,-0.9846,0.0,0.0,0.0,0.0,0.0,0.0,0.0,0.0,0.0,0.0,0.0,0.0,0.0,0.0,0.0,0.0,0.0,0.0,0.0,0.0,0.0,0.0,0.0,0.0,0.0,0.0,0.0,0.0,0.0,0.0,0.0,0.0,0.0,0.0,0.0,0.0,0.0,0.0,0.0,0.0,0.0,1.1188,1.1856,0.0,0.0,0.0,0.0,0.0,0.0,0.0,0.0,0.0,0.0,0.0,0.0,0.0,0.836,0.9413,0.859,0.9081,1.0867,1.0976,1.0843,1.0677,1.2363,1.3003,1.277,1.3228,0.0,0.9427,1.0922,0.0,0.0,0.0,0.0,0.0,0.0,0.0,0.0,0.0,0.0,0.0,0.0,0.0,0.0,0.0,0.0,0.0,0.0,0.0,0.0,0.0,-0.1808,-0.1365,-0.093,-0.0681,-0.0245,0.0374,0.0702,0.0,0.0,0.0,-0.1141,-0.1941,-0.3099,-0.4326,-0.5736,-0.6444,-0.6492,-0.5899,-0.5255,-0.447,-0.3652,-0.3631,-0.4874,-0.6908,-0.6481,0.0,0.0,0.0,0.0,0.0,0.0,0.0,0.0,0.0,0.0,0.0,0.0,0.0,0.0,0.0,0.0,0.0,0.0,0.0,0.0,0.0,0.0,0.0,0.0,0.0,0.0,0.0,0.0,0.0,0.0,0.0,0.0,0.0,0.0,0.0,0.0,0.0,0.0,0.0,1.2484,1.3482,1.361,1.3242,1.2555,0.0,0.0,0.0,0.0,0.0,0.0,0.0,0.0,0.0,0.8994,0.978,1.0302,1.0617,1.1232,1.2083,1.3114,1.3461,1.3949,1.4548,1.4716,1.4866,1.4983,1.4987,1.3814,1.1874,1.1901,1.0925,0.9319,0.0,0.0,0.0,0.0,0.3882,0.294,0.0,0.0,0.0,0.0,0.0,0.0,0.0,0.0,0.0,0.0,0.0,0.0,-0.2446,-0.2089,-0.1659,-0.1077,-0.1075,-0.0798,-0.0217,0.0053,0.0153,0.0192,0.0,-0.0556,-0.1496,-0.2875,-0.3947,-0.4748,-0.443,-0.3845,-0.3101,-0.2075,-0.1008,-0.0056,0.1043,-0.0293,-0.3324,-0.3459,-0.3746,-0.4234,0.0,0.0,0.0,0.0,0.0,0.0,0.0,0.0,0.0,0.0,0.0,0.0,0.0,0.0,0.0,0.0,0.0,0.0,0.0,0.0,0.0,0.0,0.0,0.0,0.0,0.0,0.0,0.0,0.0,0.0,0.0,0.0,0.0,0.0,0.0,0.0,0.0,1.5264,1.5779,1.5382,1.5567,1.5139,0.0,0.0,0.0,0.0,0.0,0.0,1.2492,1.278,1.2431,1.134,1.2391,1.2878,1.2607,1.406,1.5124,1.5752,1.6447,1.7257,1.8141,1.7344,1.7013,1.7074,1.6683,1.5823,1.4634,1.3224,1.1964,1.0788,0.9336,0.7987,0.6603,0.4976,0.3323,0.1726,0.0,0.0,0.0,0.0,0.0,0.0,0.0,0.0,0.0,0.0,0.0,-0.3466,-0.2689,-0.2637,-0.2286,-0.145,-0.1469,-0.128,-0.0703,0.0303,0.0806,0.0779,0.0208,-0.0407,-0.0999,-0.299,-0.3687,-0.3042,-0.2072,-0.1066,-0.0,0.0854,0.234,0.4296,0.4601,0.3146,0.0443,0.028,0.0136,-0.0177,-0.2114,0.0,0.0,0.0,0.0,0.0,0.0,0.0,0.0,0.0,0.0,0.0,0.0,0.0,0.0,0.0,0.0,0.0,0.0,0.0,0.0,0.0,0.0,0.0,0.0,0.0,0.0,0.0,0.0,0.0,0.0,0.0,0.0,0.0,0.0,0.0,0.0,0.0,0.0,1.7161,1.814,0.0,0.0,0.0,0.0,1.6611,1.6863,1.6774,1.6184,1.6628,1.6335,1.5057,1.5574,1.5962,1.6156,1.7095,1.7912,1.8611,1.9896,2.0415,2.0257,2.0699,2.0321,1.9241,1.8935,1.812,1.6816,1.5294,1.3116,1.0649,1.0053,0.8571,0.6525,0.4135,0.1384,-0.0975,0.0,0.0,0.0,0.0,0.0,0.0,0.0,0.0,-0.4923,-0.4448,-0.4326,-0.4147,-0.388,-0.2955,-0.2225,-0.1856,-0.1701,-0.1254,-0.0281,0.0069,0.0396,0.0862,0.0768,0.0296,-0.062,-0.1487,-0.1609,-0.0831,0.0138,0.1437,0.3009,0.4014,0.5456,0.7079,0.7616,0.7478,0.6696,0.4821,0.3894,0.3559,0.2319,0.0505,0.0,0.0,0.0,0.0,0.0,0.0,0.0,0.0,0.0,0.0,0.0,0.0,0.0,0.0,0.0,0.0,0.0,0.0,0.0,0.0,0.0,0.0,0.0,0.0,0.0,0.0,0.0,0.0,0.0,0.0,0.0,0.0,0.0,0.0,0.0,0.0,0.0,2.1004,2.1213,0.0,1.9867,2.0205,2.0351,1.9923,2.0177,1.9848,1.8788,1.8556,1.8374,1.813,1.7974,1.8241,1.8887,2.0387,2.1251,2.1449,2.293,2.3545,2.3345,2.2891,2.2327,2.1659,2.0337,1.9314,1.8465,1.7176,1.5198,1.2832,1.1453,0.9545,0.7237,0.5148,0.2602,0.0297,0.0,0.0,0.0,0.0,0.0,0.0,0.0,0.0,-0.5771,-0.5152,-0.4854,-0.4618,-0.4271,-0.3166,-0.2178,-0.1568,-0.1286,-0.0795,0.0075,0.0511,0.0838,0.1179,0.1413,0.1164,0.0335,0.0138,0.0424,0.1231,0.2795,0.4323,0.5866,0.7111,0.8639,1.0283,1.0792,1.1449,1.2043,0.9953,0.8201,0.683,0.5927,0.449,0.2799,0.0,0.0,0.0,0.0,0.0,0.0,0.0,0.0,0.0,0.0,0.0,0.0,0.0,0.0,0.0,0.0,0.0,0.0,0.0,0.0,0.0,0.0,0.0,0.0,0.0,0.0,0.0,0.0,0.0,0.0,0.0,0.0,0.0,0.0,2.372,2.4149,2.411,2.4381,2.4233,2.3429,2.3624,2.3728,2.3503,2.3483,2.2826,2.1403,2.1126,2.0923,2.0639,2.0344,2.0669,2.1636,2.3124,2.3993,2.4287,2.5846,2.6381,2.5964,2.5532,2.474,2.3634,2.2308,2.1037,1.9795,1.8581,1.7033,1.5213,1.3063,1.055,0.794,0.6215,0.4101,0.2014,0.0,0.0,0.0,0.0,0.0,0.0,0.0,-0.6226,-0.6178,-0.5694,-0.5401,-0.4856,-0.3808,-0.3287,-0.2267,-0.0671,-0.0165,0.0161,0.0315,0.1685,0.2287,0.1821,0.229,0.2287,0.1749,0.1742,0.2233,0.3197,0.5882,0.7642,0.8604,0.9995,1.1868,1.4049,1.4213,1.5025,1.6135,1.5408,1.3038,0.9718,0.8618,0.7659,0.6679,0.0,0.0,0.0,0.0,0.0,0.0,0.0,0.0,0.0,0.0,0.0,0.0,0.0,0.0,0.0,0.0,0.0,0.0,0.0,0.0,0.0,0.0,0.0,0.0,0.0,0.0,0.0,0.0,0.0,0.0,0.0,0.0,0.0,2.6124,2.6893,2.7402,2.642,2.7603,2.8135,2.7203,2.707,2.7128,2.7291,2.6776,2.5768,2.4224,2.4479,2.4015,2.2585,2.2785,2.3399,2.4378,2.5302,2.6209,2.7039,2.8641,2.8929,2.8039,2.8753,2.7634,2.5216,2.4874,2.3284,2.0838,1.9497,1.8497,1.7595,1.486,1.1691,0.8523,0.7329,0.5638,0.3892,0.0,0.0,0.0,0.0,0.0,0.0,-0.644,-0.706,-0.7419,-0.6834,-0.6133,-0.5229,-0.4086,-0.2624,-0.1168,0.0176,0.1211,0.1764,0.1775,0.26,0.3197,0.3328,0.3591,0.3518,0.3147,0.3287,0.3823,0.4711,0.6167,0.795,1.0076,1.1655,1.3475,1.5496,1.6147,1.6792,1.7348,1.7102,1.6077,1.4333,1.2517,1.1132,0.9947,0.0,0.0,0.0,0.0,0.0,0.0,0.0,0.0,0.0,0.0,0.0,0.0,0.0,0.0,0.0,0.0,0.0,0.0,0.0,0.0,0.0,0.0,0.0,0.0,0.0,0.0,0.0,0.0,0.0,0.0,0.0,3.1715,3.2383,3.1,3.1129,3.1208,3.0865,3.091,3.0599,2.9781,2.9899,2.9828,2.9393,2.9406,2.8792,2.7341,2.6934,2.63,2.5401,2.5584,2.5873,2.6173,2.8314,2.949,2.9755,3.148,3.1768,3.0862,3.0492,2.9407,2.777,2.5979,2.4752,2.385,2.0977,1.9511,1.889,1.6658,1.3544,1.0115,0.8748,0.7111,0.5608,0.0,0.0,0.0,0.0,0.0,0.0,-0.6639,-0.725,-0.7576,-0.7091,-0.6375,-0.5381,-0.416,-0.2545,-0.0937,0.0794,0.1963,0.2627,0.261,0.3392,0.4138,0.4909,0.4948,0.4831,0.4597,0.4876,0.5508,0.6356,0.761,0.9522,1.2074,1.3964,1.5958,1.7915,1.8685,1.9274,1.9598,1.9469,1.8891,1.7965,1.6738,1.4984,1.2965,1.0995,1.1299,1.2512,1.0948,1.0179,0.9624,0.7726,0.0,0.0,0.0,0.0,0.0,0.0,0.0,0.0,0.0,0.0,0.0,0.0,0.0,0.0,0.0,0.0,0.0,0.0,0.0,0.0,0.0,0.0,0.0,0.0,3.4921,3.6112,3.5533,3.4852,3.4402,3.4311,3.3862,3.3304,3.2611,3.2748,3.2559,3.1826,3.2084,3.1706,3.0536,2.9688,2.8683,2.7479,2.6653,2.6957,2.8501,3.0032,3.1367,3.2459,3.3812,3.3997,3.3141,3.3018,3.1796,2.9636,2.8267,2.7212,2.6307,2.3557,2.1436,1.9801,0.0,0.0,0.0,0.0,0.9042,0.8417,0.0,0.0,0.0,0.0,0.0,0.0,-0.6681,-0.7034,-0.7192,-0.6867,-0.6363,-0.5538,-0.4196,-0.2908,-0.1276,0.087,0.2055,0.2813,0.3185,0.42,0.5197,0.6266,0.6293,0.6228,0.6071,0.6513,0.7211,0.8086,0.97,1.184,1.4547,1.6736,1.8835,2.0871,2.1415,2.1973,2.2388,2.2134,2.1501,2.0722,2.0766,1.8805,1.5606,1.4033,1.4992,1.694,1.4889,1.4323,1.4181,1.1091,0.0,0.0,0.0,0.0,0.0,0.0,0.0,0.0,0.0,0.0,0.0,0.0,0.0,0.0,0.0,0.0,0.0,0.0,0.0,0.0,0.0,0.0,0.0,0.0,3.7941,3.9581,3.9201,3.8228,3.7394,3.7057,3.6547,3.5957,3.5389,3.5368,3.5151,3.4637,3.4749,3.4446,3.3667,3.2645,0.0,0.0,0.0,2.7522,3.0752,3.1008,3.2264,3.457,3.5738,3.5893,3.5155,3.5734,3.4324,3.1356,3.0983,2.9916,2.8356,2.6466,2.3702,2.0573,1.9582,1.7097,1.3823,1.1738,1.1286,1.1616,0.0,0.0,0.0,0.0,0.0,0.0,-0.6653,-0.7322,-0.7659,-0.7278,-0.6822,-0.6063,-0.4792,-0.3652,-0.2346,-0.0712,0.0682,0.2261,0.4095,0.5235,0.6103,0.6721,0.7249,0.7572,0.7634,0.7894,0.8693,0.9916,1.1552,1.3844,1.6809,1.9201,2.1334,2.3184,2.3235,2.349,2.3975,2.4232,2.3626,2.2524,2.312,2.1019,1.742,1.6703,1.7124,1.8441,2.1225,2.2265,2.1689,1.7824,1.8177,2.0697,2.2832,2.1921,0.0,0.0,0.0,0.0,0.0,0.0,0.0,0.0,0.0,0.0,0.0,0.0,0.0,0.0,0.0,0.0,0.0,0.0,0.0,4.0443,4.1154,4.1278,3.9714,4.1287,4.1853,3.9872,3.864,3.761,3.6897,3.6461,3.687,3.8328,3.73,3.6483,3.6289,3.5199,3.3241,3.0257,2.9847,3.0022,3.0801,3.2185,3.3164,3.371,3.668,0.0,3.7805,3.6559,3.5624,3.4843,3.207,3.0659,3.0064,2.6891,2.4304,2.2003,1.8627,1.6597,1.5442,1.431,1.3568,1.3215,0.0,0.0,0.0,0.0,0.0,0.0,-0.6646,-0.7165,-0.7522,-0.7485,-0.6999,-0.6235,-0.491,-0.4203,-0.2902,-0.0756,0.1048,0.2777,0.4599,0.5676,0.6707,0.7633,0.8374,0.9006,0.9467,0.9856,1.0759,1.2116,1.4073,1.6492,1.9284,2.1991,2.3899,2.5284,2.5538,2.5541,2.5445,2.6184,2.6396,2.6293,2.6342,2.5188,2.3223,2.2217,2.1417,2.1516,2.6836,2.6635,2.3877,2.4651,2.6775,2.9307,3.0818,3.0698,3.0101,0.0,0.0,0.0,0.0,0.0,0.0,0.0,0.0,0.0,0.0,0.0,0.0,0.0,0.0,4.2982,4.3081,0.0,4.5082,4.5818,4.5451,4.5079,4.4976,4.5984,4.5659,4.2776,4.1006,3.9835,3.9447,3.8527,3.9147,4.1998,4.1033,4.0307,4.0226,3.9366,3.7657,3.4983,3.6382,3.6811,3.5966,3.6834,3.6874,3.6011,3.7769,3.9055,3.9825,3.8969,3.7604,3.5849,3.3276,3.195,3.1366,2.7772,2.5488,2.3893,2.0938,1.9267,1.8449,1.731,1.6645,1.6241,0.0,0.0,0.0,0.0,0.0,0.0,0.0,-0.6865,-0.7192,-0.7558,-0.7128,-0.6284,-0.4988,-0.4465,-0.3146,-0.0312,0.1736,0.3463,0.4826,0.5891,0.7125,0.8532,0.9575,1.0518,1.1237,1.195,1.3081,1.4531,1.6735,1.9254,2.1989,2.4803,2.6712,2.7666,2.7895,2.7753,2.7336,2.8192,2.9191,3.014,2.9847,2.9682,2.943,2.8093,2.6647,2.5887,3.0884,2.9754,2.648,3.0238,3.2722,3.4684,3.7251,3.8798,3.957,3.891,3.7347,0.0,0.0,0.0,0.0,0.0,0.0,0.0,0.0,4.4551,4.518,4.5791,4.716,4.824,4.8241,4.822,4.8771,5.056,4.9701,4.9205,5.0212,4.9973,4.8694,4.5988,4.3622,4.222,4.217,4.1213,4.1987,4.5341,4.4652,4.4025,4.3904,4.3447,4.243,4.0714,4.2967,4.3498,4.2099,4.2142,4.1478,4.0064,3.9396,3.9777,4.1051,4.1055,3.9337,3.6173,3.4228,3.2901,3.192,2.8782,2.6953,2.5961,2.4358,2.3193,2.2231,2.0253,1.9452,1.9159,0.0,0.0,0.0,0.0,0.0,0.0,0.0,0.0,-0.7121,-0.7625,-0.7279,-0.6511,-0.5228,-0.4442,-0.2936,-0.0304,0.1771,0.3392,0.4592,0.6035,0.747,0.9006,1.06,1.1993,1.299,1.3858,1.5182,1.6927,1.921,2.188,2.4872,2.7608,2.9717,3.1175,3.0035,2.9755,3.0236,3.0548,3.1309,3.2405,3.3238,3.3176,3.257,3.2431,3.2269,3.2124,3.1633,3.3336,3.5401,3.2446,3.1635,3.3043,3.9637,4.2485,4.3452,4.3662,4.1632,3.9014,3.7558,3.9223,4.1901,4.4043,4.6334,4.8913,0.0,5.2454,5.2049,5.1756,5.2568,5.307,5.2069,5.2242,5.253,5.2664,5.2661,5.2154,5.0818,5.0374,5.0122,4.9924,4.6719,4.4448,4.4189,4.4598,4.576,4.7833,4.6596,4.5688,4.5621,4.5714,4.5676,4.5453,4.5747,4.5816,4.5625,4.5636,4.5554,4.5299,4.2212,4.0817,4.0914,4.0935,3.9611,3.7176,3.4481,3.2377,3.0792,2.9686,2.8699,2.789,2.7558,2.7179,2.6427,2.256,2.0845,2.035,0.0,0.0,0.0,0.0,0.0,0.0,0.0,0.0,0.0,-0.7545,-0.7347,-0.6746,-0.5413,-0.3738,-0.24,-0.1517,0.0657,0.2442,0.3456,0.5726,0.7951,0.9817,1.1817,1.3522,1.4846,1.5878,1.7493,1.9648,2.1883,2.4481,2.7466,3.0127,3.1759,3.2484,3.2809,3.2682,3.2333,3.3264,3.4421,3.5615,3.5338,3.505,3.4685,3.4617,3.4554,3.4347,3.3954,3.5262,0.0,3.4691,3.4263,3.5607,4.0688,4.2959,4.3804,4.4333,4.3697,4.3516,4.6771,4.5922,4.5261,4.9983,5.2816,5.4507,5.4955,5.494,5.5073,5.59,5.6441,5.6634,5.6152,5.5305,5.465,5.4591,5.4805,5.4709,5.3899,5.203,5.0701,5.0701,4.9356,4.8028,4.7107,4.7146,4.7548,4.8321,4.8153,4.797,4.7946,4.7766,4.763,4.7665,4.7632,4.7495,4.7138,4.6482,4.6112,4.6029,4.4503,4.31,4.1781,4.1762,4.0082,3.7065,3.5374,3.3666,3.1988,3.067,2.9948,2.9558,2.8504,2.7984,2.7516,2.5475,2.4414,2.391,0.0,0.0,0.0,0.0,0.0,0.0,0.0,0.0,0.0,0.0,-0.7202,-0.6529,-0.4944,-0.3019,-0.1978,-0.2351,-0.0351,0.1435,0.2592,0.5477,0.8145,1.0338,1.2613,1.4529,1.609,1.7456,1.9219,2.1464,2.3974,2.6417,2.8897,3.1602,3.3149,3.3827,3.5249,3.5478,3.4978,3.6444,3.7512,3.8149,3.7384,3.6829,3.65,3.5873,3.5827,3.6075,3.5948,3.5894,3.5891,3.6095,3.6586,3.7607,4.0197,4.1469,4.2142,4.273,4.4466,4.7222,5.2205,5.1471,5.0748,5.6703,5.9278,6.0073,5.8869,5.8336,5.8294,5.9103,5.968,6.0201,6.0683,5.9237,5.7731,5.6914,5.7279,5.7318,5.6272,5.3716,5.1818,5.1416,5.1145,5.0558,4.9517,4.923,4.9225,4.9575,4.9442,4.9497,4.9821,4.9077,4.8662,4.8633,4.8444,4.8218,4.799,4.693,4.6309,4.6208,4.5914,4.4664,4.2576,4.1828,4.0062,3.7486,3.6366,3.5063,3.3635,3.2213,3.1559,3.1281,3.0038,2.9508,2.9368,2.9198,2.8252,2.7063,0.0,0.0,0.0,0.0,0.0,0.0,0.0,0.0,0.0,0.0,0.0,0.0,0.0,-0.238,-0.2005,-0.2363,-0.0988,0.0653,0.2608,0.5419,0.8023,1.0229,1.2674,1.4739,1.6463,1.8257,2.0108,2.1876,2.5218,2.7361,2.8413,3.1739,3.414,3.5683,3.7198,3.8065,3.862,4.0246,4.0374,3.9544,3.9637,3.9181,3.8174,3.6253,3.6679,3.8156,3.692,3.5003,3.3447,3.6089,3.7217,3.7612,3.7716,3.8034,3.8422,3.8757,4.3831,4.9453,4.993,5.4914,6.0771,6.4254,6.5397,6.5697,6.5853,6.4619,6.3011,6.1363,6.2405,6.4183,6.5924,6.486,6.2804,5.9948,6.0468,6.0109,5.6861,5.523,5.3999,5.2938,5.1847,5.1125,5.0945,5.0883,5.1293,5.2492,5.0555,4.9794,5.0907,4.9458,4.8577,4.8514,4.7756,4.7717,4.8475,4.7546,4.7029,4.696,4.6104,4.477,4.3011,4.0454,3.9215,3.9023,3.7309,3.6136,3.5379,3.4592,3.3843,3.3122,3.309,3.3085,3.3219,3.3935,3.1864,2.8834,0.0,0.0,0.0,0.0,0.0,0.0,0.0,0.0,0.0,0.0,0.0,0.0,0.0,0.0,0.0,0.0,-0.2342,-0.0698,0.1079,0.4688,0.7804,1.0114,1.3234,1.5658,1.7297,1.8854,2.0715,2.288,2.5926,2.8402,3.0446,3.2835,3.5185,3.7527,3.8618,3.9159,3.9388,4.1392,4.1209,3.9694,3.97,3.8726,3.7097,3.5793,3.4697,3.354,0.0,2.9655,2.9816,3.4016,3.5544,3.5865,3.7041,3.7789,3.9649,4.6987,5.4145,5.9019,5.5928,6.0197,6.5877,6.7076,6.664,6.6251,6.769,6.6748,6.5389,6.4804,6.5164,6.5763,6.6345,6.6011,6.5312,6.4342,6.2663,6.067,5.8454,5.7453,5.6241,5.4383,5.3885,5.3502,5.2846,5.1722,5.1407,5.226,5.1672,5.1416,5.1718,5.1319,5.0752,5.0114,4.9819,4.979,4.9953,4.9015,4.8505,4.8375,4.6282,4.4729,4.3541,4.1552,4.033,3.9662,3.8716,3.7785,3.6964,3.6279,3.5873,3.5687,3.5186,3.4996,3.5188,3.6582,3.6285,3.5,0.0,0.0,0.0,0.0,0.0,0.0,0.0,0.0,0.0,0.0,0.0,0.0,0.0,0.0,0.0,0.0,0.0,-0.2194,-0.007,0.3615,0.6881,0.9438,1.2248,1.4595,1.6421,1.7704,1.9723,2.2472,2.5501,2.8502,3.1416,3.3693,3.5685,3.7426,3.8858,3.9851,4.0585,4.1823,4.1364,3.9769,3.8942,3.7322,3.5241,3.3811,3.2687,0.0,2.8629,2.8108,2.9338,3.3564,3.4482,3.4269,3.647,3.8976,4.2585,5.0172,5.6889,6.178,6.1431,6.3634,6.6586,6.8873,6.8665,6.8235,6.9515,6.8568,6.7071,6.5863,6.5724,6.5856,6.5801,6.5902,6.5995,6.605,6.4216,6.2121,6.0164,5.9337,5.8061,5.5693,5.5199,5.4733,5.3836,5.2702,5.233,5.2983,5.284,5.2801,5.2988,5.2492,5.1927,5.1305,5.0687,5.0465,5.0547,4.9642,4.9013,4.8756,4.644,4.491,4.4052,4.2465,4.1254,4.0421,3.9775,3.9073,3.8324,3.7925,3.7675,3.7483,3.7327,3.7258,3.7535,3.9564,4.0273,3.9945,0.0,0.0,0.0,0.0,0.0,0.0,0.0,0.0,0.0,0.0,0.0,0.0,0.0,0.0,0.0,0.0,0.0,0.0,-0.0799,0.2228,0.5177,0.8072,0.9829,1.1826,1.4222,1.5308,1.7452,2.0759,2.4163,2.7602,3.1137,3.3989,3.5413,3.5564,3.7816,4.0074,4.2127,4.165,4.0949,3.9958,3.7661,3.5333,3.2955,3.0709,3.0756,3.1797,2.9968,3.0005,3.1428,3.5013,3.4801,3.3565,3.6363,4.1397,4.672,4.8702,5.2836,5.8451,6.5741,6.5176,6.3981,6.9772,7.1371,7.1468,7.1436,7.0171,6.8053,6.4792,6.4388,6.4643,6.4643,6.4847,6.51,6.5225,6.5274,6.4425,6.2017,6.0974,5.9498,5.7003,5.5964,5.5085,5.4139,5.398,5.4233,5.4838,5.4044,5.3872,5.4554,5.3047,5.2103,5.2011,5.0411,4.9779,5.0298,4.9411,4.8719,4.8235,4.6676,4.5471,4.4513,4.3089,4.2048,4.1411,4.0711,4.006,3.9521,3.963,3.9276,3.8741,3.9633,3.9994,4.0344,4.2807,4.3708,4.3433,0.0,0.0,0.0,0.0,0.0,0.0,0.0,0.0,0.0,0.0,0.0,0.0,0.0,0.0,0.0,0.0,0.0,0.0,-0.1229,0.132,0.4053,0.6993,0.9561,1.1952,1.4083,1.5781,1.7262,1.8584,2.279,2.622,2.886,3.0764,3.2397,3.3811,3.4587,3.7068,4.069,4.0835,4.091,4.0748,3.9238,3.6499,3.3138,3.1118,2.9132,2.7661,2.8966,2.8254,2.8494,4.0562,4.3689,4.2408,4.1647,4.3759,4.7721,5.3678,5.8971,6.3199,6.4696,6.6356,6.8048,6.9903,7.0883,7.1274,7.0661,6.876,6.6842,6.5893,6.4769,6.392,6.3884,6.4967,6.5916,6.5935,6.6023,6.5654,6.4428,6.3075,6.1509,5.9576,5.9122,5.8608,5.7597,5.7521,5.7489,5.7448,5.5537,5.4455,5.4496,5.3552,5.2627,5.1893,5.0713,5.0077,5.0089,4.9994,4.9546,4.8716,4.8343,4.7143,4.5148,4.4406,4.3715,4.3069,4.259,4.2328,4.2214,4.2391,4.2364,4.2299,4.3161,4.3548,4.3821,4.5648,4.6289,4.6177,0.0,0.0,0.0,0.0,0.0,0.0,0.0,0.0,0.0,0.0,0.0,0.0,0.0,0.0,0.0,0.0,0.0,0.0,0.0,0.0469,0.288,0.573,0.7872,0.9988,1.2098,1.3472,1.5019,1.6785,2.0177,2.3025,2.5373,2.7443,2.9247,3.0676,3.181,3.346,3.5523,3.7155,3.7098,0.0,0.0,3.324,3.1193,2.8918,2.6492,2.4423,2.5507,2.887,3.42,4.2995,4.6205,4.6339,4.5544,4.8493,5.294,5.6776,6.1073,6.4737,6.5597,6.7955,7.0298,7.0535,7.1337,7.1494,6.9535,6.7984,6.6475,6.4927,6.4115,6.3516,6.3109,6.469,6.5986,6.5662,6.634,6.6484,6.5387,6.4204,6.2776,6.108,6.0516,5.9882,5.8907,5.8764,5.8684,5.8452,5.7159,5.629,5.6148,5.4972,5.3985,5.3307,5.1658,5.048,5.0026,4.9921,4.9603,4.9049,4.9196,4.8076,4.5886,4.5461,4.4957,4.4423,4.394,4.4023,4.447,4.4626,4.4669,4.4763,4.5655,4.5972,4.6222,4.8204,4.8877,4.8885,0.0,0.0,0.0,0.0,0.0,0.0,0.0,0.0,0.0,0.0,-0.1708,0.0,0.0,0.0,0.0,0.0,0.0,0.0,0.0,0.0,0.1845,0.459,0.5749,0.735,0.9524,1.0434,1.233,1.5361,1.7305,1.9324,2.1455,2.4049,2.5737,2.6707,2.8802,2.9251,2.8576,3.1367,3.0743,2.7898,2.7644,2.7759,2.7825,0.0,2.3561,2.2195,2.2435,3.066,4.1724,4.3749,4.5924,4.7938,4.8998,5.3905,5.9215,5.8949,6.1444,6.4863,6.7629,6.9706,7.1178,7.1489,7.2037,7.1628,6.8407,6.7459,6.632,6.3127,6.2878,6.3029,6.2236,6.4078,6.5543,6.4984,6.638,6.7056,6.58,6.4854,6.3691,6.2094,6.112,6.0183,5.9193,5.9056,5.8966,5.8819,5.878,5.862,5.8189,5.6514,5.5336,5.4787,5.252,5.0953,5.0231,4.9853,4.9533,4.944,4.9621,4.8716,4.6792,4.6523,4.6233,4.5928,4.547,4.5857,4.6796,4.6872,4.6872,4.6979,4.7845,4.8139,4.8331,5.0557,5.1291,5.1322,0.0,0.0,0.0,0.0,0.0,0.0,0.0,0.0,0.0,0.0,-0.1417,-0.1348,0.0,0.0,0.0,0.0,0.0,0.0,0.0,0.0,0.0,0.4122,0.5313,0.7018,0.9381,1.0937,1.2673,1.4669,1.653,1.7861,1.8791,2.0174,2.1392,2.2508,2.371,2.3856,2.3157,2.3614,2.3169,2.2339,2.3495,2.3894,2.3649,2.2699,0.0,0.0,2.7126,3.1363,3.6053,4.4857,4.9336,5.1532,5.3916,5.6695,5.9514,6.1844,6.4229,6.6736,6.9577,7.0709,7.1379,7.2285,7.1513,7.006,6.8084,6.6477,6.4851,6.2702,6.1829,6.1362,6.105,6.3089,6.4817,6.4801,6.634,6.7482,6.7386,6.6047,6.4727,6.3677,6.273,6.1764,6.0854,6.0672,6.0557,6.0426,6.0311,5.9599,5.8092,5.6346,5.4482,5.2598,5.1686,5.1269,5.1422,5.0955,5.0724,5.076,5.0477,4.9713,4.8492,4.8403,4.8529,4.8811,4.8911,4.9532,5.0389,5.0459,5.0464,5.0504,5.1381,5.1676,5.1753,5.277,5.3073,5.2988,0.0,0.0,0.0,0.0,0.0,0.0,0.0,-0.2081,-0.2074,-0.1771,-0.1066,-0.0807,-0.1479,-0.1725,-0.2014,0.0,0.0,0.0,0.0,0.0,0.0,0.3331,0.4724,0.6335,0.8247,1.0043,1.177,1.3439,0.0,1.5757,1.6336,1.7321,1.8291,1.9263,2.0593,2.1263,2.1368,2.117,2.0515,1.9665,2.0293,2.0842,2.1191,2.0407,0.0,0.0,2.8556,3.2538,3.6249,4.3287,4.8048,5.1713,5.5246,5.8314,6.113,6.3568,6.6097,6.8569,7.0948,7.2392,7.3126,7.2788,7.2094,7.0564,6.7058,6.5548,6.4193,6.1464,6.1224,6.1328,6.0786,6.2784,6.4295,6.3531,6.49,6.6167,6.6316,6.5281,6.4342,6.3953,6.3053,6.2116,6.1138,6.0962,6.0834,6.0685,6.0559,6.0135,5.9267,5.7282,5.5221,5.3103,5.2011,5.1463,5.1435,5.1076,5.102,5.1158,5.1261,5.0565,4.9189,4.9501,4.9907,5.0348,5.0543,5.1435,5.2695,5.2706,5.2662,5.2707,5.3065,5.3215,5.3258,5.4013,5.4226,5.41,0.0,0.0,0.0,0.0,0.0,0.0,0.0,-0.1998,-0.2068,-0.1493,-0.0597,-0.0268,-0.1001,-0.1503,-0.1842,0.0,0.0,0.0,0.0,0.0,0.0,0.0,0.0,0.0,0.7234,0.0,0.0,1.2403,1.3363,0.0,0.0,0.0,0.0,0.0,1.8165,1.9214,2.003,1.9795,1.903,0.0,0.0,1.831,1.9181,0.0,0.0,0.0,0.0,3.2732,3.6592,4.0932,4.5251,4.9604,5.4112,5.8417,6.2322,6.4557,6.708,6.9673,7.1953,7.3548,7.437,7.3425,7.283,7.1261,6.6613,6.5219,6.3941,6.0671,6.0911,6.1527,6.0825,6.249,6.3591,6.2574,6.3708,6.4883,6.5238,6.4713,6.4248,6.4054,6.3398,6.253,6.1516,6.135,6.1233,6.1095,6.078,6.0399,5.9989,5.8169,5.6215,5.4205,5.2798,5.1879,5.1411,5.1178,5.1225,5.1475,5.1908,5.1486,5.0279,5.0779,5.1354,5.195,5.226,5.3317,5.4801,5.4762,5.4723,5.4702,5.4476,5.447,5.4719,5.5294,5.5578,5.566,0.0,0.0,0.0,0.0,0.0,0.0,0.0,-0.1935,-0.1888,-0.0598,-0.0201,-0.0133,-0.0455,-0.0323,-0.0567,0.0,0.0,0.0,0.0,0.0,0.0,0.0,0.0,0.0,0.0,0.0,0.0,1.2058,1.3059,0.0,0.0,0.0,0.0,0.0,0.0,1.6333,1.6977,1.6853,0.0,0.0,0.0,0.0,0.0,0.0,0.0,0.0,0.0,3.0597,3.2857,3.8877,4.2307,4.4987,5.0033,5.6027,6.1733,6.4464,6.6778,6.9129,7.2584,7.3162,7.3148,7.4541,7.3148,7.0733,6.7887,6.6028,6.4131,6.1422,6.0911,6.0873,6.0748,6.148,6.2388,6.3161,6.41,6.5037,6.6051,6.607,6.5702,6.489,6.4585,6.4061,6.319,6.29,6.2766,6.2804,6.1827,6.0475,5.8759,5.7977,5.6623,5.4633,5.3799,5.2965,5.2042,5.1861,5.2018,5.2409,5.233,5.2588,5.3148,5.3003,5.3576,5.4684,5.5621,5.656,5.7452,5.7421,5.7427,5.7276,5.6527,5.6697,5.7362,5.7429,5.7865,5.8428,0.0,0.0,0.0,0.0,0.0,0.0,-0.1853,-0.1961,-0.1653,-0.039,0.0131,0.0391,0.0387,0.0507,0.0062,-0.1182,0.0,0.0,0.0,0.0,0.0,0.0,0.0,0.0,0.0,0.0,1.0218,1.182,1.278,0.0,0.0,0.0,0.0,0.0,0.0,1.5268,1.5059,1.5384,0.0,0.0,0.0,0.0,0.0,0.0,0.0,0.0,0.0,0.0,3.0302,3.5,3.9034,4.2678,4.5864,5.1522,5.7821,6.1983,6.5651,6.9078,7.2109,7.3481,7.427,7.4928,7.3574,7.1407,6.8812,6.6509,6.4303,6.2111,6.1196,6.0757,6.071,6.0942,6.125,6.1719,6.2074,6.249,6.2969,6.3896,6.4222,6.3373,6.4093,6.4268,6.3271,6.3115,6.2776,6.2078,6.152,6.0539,5.9058,5.8052,5.6796,5.5281,5.4136,5.3135,5.2198,5.2209,5.2417,5.292,5.387,5.4377,5.4573,5.5324,5.6001,5.6573,5.706,5.7767,5.8593,5.8577,5.8558,5.8509,5.8187,5.8247,5.8538,5.9084,5.9108,5.8996,0.0,0.0,0.0,0.0,0.0,-0.2187,-0.2117,-0.2003,-0.1518,-0.0128,0.0579,0.1095,0.1352,0.143,0.0964,-0.0295,0.0447,0.0,0.0,0.0,0.0,0.0,0.0,0.0,0.0,0.0,1.0081,1.1542,1.2517,1.3244,0.0,0.0,1.3722,1.3651,0.0,0.0,0.0,0.0,0.0,0.0,0.0,0.0,0.0,0.0,0.0,0.0,0.0,0.0,0.0,0.0,0.0,4.0634,4.3025,4.7951,5.3942,5.947,6.4306,6.8497,7.1641,7.3605,7.4811,7.5044,7.3822,7.1866,6.9292,6.6698,6.4337,6.2474,6.1381,6.0734,6.071,6.061,6.07,6.1031,6.1069,6.1272,6.1951,6.303,6.3661,6.3376,6.4243,6.4603,6.3921,6.3761,6.313,6.1787,6.1477,6.071,5.929,5.8229,5.7001,5.5668,5.4444,5.3388,5.2376,5.2753,5.3237,5.3822,5.5385,5.611,5.6127,5.7197,5.779,5.8003,5.8376,5.8889,5.9487,5.9491,5.9485,5.9485,5.9481,5.9589,5.9898,6.0753,6.0866,6.0627,0.0,0.0,0.0,0.0,0.0,0.0,-0.1885,-0.2012,-0.1557,0.032,0.1417,0.2127,0.2452,0.2631,0.2297,0.1356,0.1315,0.0,0.0,0.0,0.0,0.0,0.0,0.0,0.0,0.0,0.984,1.1219,1.2198,1.2908,1.3329,1.3427,1.316,1.2514,0.0,0.0,0.0,0.0,0.0,0.0,0.0,0.0,0.0,0.0,0.0,0.0,0.0,0.0,0.0,0.0,0.0,0.0,0.0,4.5914,5.076,5.7533,6.2667,6.7078,7.1356,7.318,7.4115,7.4889,7.3798,7.1819,6.927,6.663,6.4185,6.2452,6.1358,6.0685,6.0685,6.0585,6.0839,6.1812,6.1914,6.254,6.4393,6.4638,6.4922,6.5842,6.5513,6.5307,6.5542,6.5276,6.4334,6.2534,6.2067,6.1055,5.9136,5.854,5.7413,5.544,5.493,5.4014,5.2516,5.3668,5.4556,5.5173,5.6689,5.7641,5.8187,5.847,5.8697,5.8929,5.9879,6.031,6.037,6.0383,6.0388,6.0388,6.039,6.0859,6.168,6.2616,6.3476,6.414,0.0,0.0,0.0,0.0,0.0,0.0,0.0,-0.2334,-0.1753,-0.0542,0.0303,0.1098,0.206,0.2417,0.2418,0.2,0.1774,0.0,0.0,0.0,0.0,0.0,0.0,0.0,0.0,0.0,0.997,1.1674,1.259,1.325,1.3648,1.332,1.2857,1.2319,1.1274,1.0374,0.0,0.0,0.0,0.0,0.0,0.0,1.0269,0.0,0.0,0.0,0.0,0.0,0.0,0.0,0.0,0.0,0.0,0.0,0.0,5.3783,5.8739,6.3428,6.7116,6.9162,7.0435,7.1284,7.1067,7.031,6.8834,6.6473,6.4268,6.3103,6.1684,6.061,6.061,6.0533,6.0966,6.2528,6.2678,6.2804,6.354,6.5022,6.5761,6.4999,6.6085,6.6701,6.6199,6.5859,6.4931,6.3158,6.2184,6.1125,5.9838,5.8782,5.7618,5.6283,5.5327,5.447,5.3608,5.4312,5.495,5.5654,5.8225,5.9701,6.0172,6.1574,6.226,6.2363,6.2123,6.2009,6.1992,6.147,6.1554,6.2061,6.2022,6.2569,6.3433,6.4345,6.4501,6.4306,0.0,0.0,0.0,0.0,0.0,0.0,0.0,-0.2635,-0.2241,-0.1289,-0.0587,0.0237,0.1389,0.165,0.1853,0.1966,0.1852,0.0,0.0,0.0,0.0,0.0,0.0,0.0,0.7273,0.8387,0.9915,1.1914,1.2647,1.3268,1.3755,1.3511,1.2804,1.1743,1.0541,0.9414,0.0,0.0,0.0,0.0,0.0,0.0,0.8035,0.0,0.0,0.0,0.0,0.0,0.0,0.0,0.0,0.0,0.0,0.0,0.0,0.0,5.5094,5.9184,6.4216,6.6545,6.7832,6.9001,6.9014,6.8501,6.7564,6.5654,6.3783,6.2823,6.1543,6.0533,6.048,6.0453,6.0797,6.1923,6.2289,6.2682,6.3472,6.5111,6.5987,6.5512,6.6374,6.6809,6.6139,6.554,6.4671,6.3199,6.232,6.1395,6.0444,5.9235,5.8217,5.747,5.6234,5.5341,5.4723,5.5866,5.6704,5.7377,6.0119,6.1851,6.2528,6.3485,6.41,6.4377,6.3258,6.2774,0.0,6.188,6.1997,6.2756,6.3088,6.3935,6.5065,6.5706,6.6026,6.6104,0.0,0.0,0.0,0.0,0.0,0.0,0.0,-0.297,-0.2801,-0.1992,-0.1344,-0.0583,0.0408,0.0568,0.078,0.1337,0.1566,0.0,0.0,0.0,0.0,0.0,0.0,0.0,0.8466,0.8622,0.9753,1.192,1.2492,1.3107,1.377,1.3954,1.298,1.1024,1.0252,0.8918,0.0,0.0,0.0,0.0,0.0,0.0,0.0,0.0,0.0,0.0,0.0,0.0,0.0,0.0,0.0,0.0,0.0,0.0,0.0,0.0,0.0,0.0,0.0,6.4802,6.5972,6.7462,6.7307,6.66,6.5793,6.432,0.0,6.2,6.1092,6.0464,6.037,6.039,6.0485,6.0762,6.143,6.2557,6.4364,6.5206,6.6031,6.7203,6.6635,6.5955,6.5598,6.4769,6.3784,6.2827,6.2413,6.1772,6.0896,5.9853,5.9139,5.8823,5.7507,5.6447,5.5785,5.801,5.943,6.003,6.2298,6.4007,6.5159,6.4494,6.4614,6.5295,6.3585,6.2846,6.2807,6.1913,6.2016,6.2842,6.3662,6.5008,6.6508,6.6684,6.7809,6.9083,0.0,0.0,0.0,0.0,0.0,0.0,0.0,0.0,0.0,0.0,-0.1719,-0.1199,-0.1199,-0.037,0.0414,0.0,0.0,0.0,0.0,0.0,0.0,0.0,0.0,0.0,0.7722,0.8333,0.9706,1.199,1.2934,1.3815,1.4633,1.456,1.3497,1.1532,0.9772,0.69,0.0,0.0,0.0,0.0,0.0,0.0,0.0,0.0,0.0,0.0,1.7956,2.2444,0.0,0.0,0.0,0.0,0.0,0.0,0.0,0.0,5.0468,5.307,5.6675,0.0,6.1966,6.2272,6.3663,6.4862,0.0,6.3772,6.2873,6.2653,6.1344,6.0578,6.1749,6.0974,6.1195,6.4329,6.4453,6.4757,6.6531,6.7306,6.7997,6.8864,6.8019,6.7058,6.6288,6.5203,6.4113,6.316,6.2251,6.1617,6.1288,6.0322,5.9492,5.8823,5.8652,5.7969,5.6799,5.8464,5.9971,6.1228,6.3962,6.5908,6.7071,6.6824,6.6842,6.6916,6.5102,6.4329,6.4328,6.34,6.3573,6.4441,6.4653,6.5795,6.7342,6.7425,6.8117,6.9041,0.0,0.0,0.0,0.0,0.0,0.0,0.0,0.0,0.0,0.0,0.0,-0.1832,-0.1618,-0.1088,0.0,0.0,0.0,0.0,0.0,0.0,0.0,0.0,0.0,0.5755,0.7257,0.8176,0.973,1.2005,1.3067,1.4097,1.5015,1.4742,1.362,1.1778,0.8993,0.5542,0.0,0.0,0.0,0.0,0.1877,0.0,0.0,0.0,0.0,0.0,1.7318,2.2149,0.0,3.028,3.3843,3.7414,0.0,0.0,0.0,0.0,4.8795,5.1241,5.3222,5.6753,6.0032,6.0724,6.2222,6.352,6.349,6.3108,6.262,6.2147,6.1527,6.1321,6.2129,6.197,6.2383,6.4585,6.5232,6.6027,6.7619,6.8713,6.9265,6.9171,6.8234,6.7141,6.61,6.5049,6.4033,6.3027,6.2352,6.1981,6.188,6.096,6.0107,5.927,5.92,5.886,5.8208,5.9736,6.1379,6.3138,6.5344,6.7186,6.8664,6.8214,6.8021,6.7887,6.6036,6.5064,6.4663,6.3814,6.399,6.4844,6.5273,6.6513,6.8063,6.8161,6.9049,7.011,0.0,0.0,0.0,0.0,0.0,0.0,0.0,0.0,0.0,0.0,0.0,0.0,0.0,0.0,0.0,0.0,0.0,0.0,0.0,0.0,0.0,0.0,0.4328,0.551,0.7177,0.8122,0.9724,1.2023,1.3195,1.4227,1.5093,1.5104,1.4004,1.1873,0.8471,0.4933,0.0,0.0,0.0,0.0,0.1441,0.0,0.0,0.0,0.0,0.0,0.0,0.0,0.0,3.0521,3.3921,3.7182,3.9464,0.0,0.0,0.0,0.0,0.0,5.1354,5.5301,5.9264,6.051,6.1811,6.2731,6.2553,6.2629,6.2515,6.1629,6.1943,6.2442,6.2597,6.3312,6.399,6.4331,6.5577,6.7051,6.8512,6.9616,6.9964,6.8978,6.7996,6.6852,6.5656,6.4696,6.3686,6.2625,6.2449,6.2344,6.2381,6.1458,6.0606,5.9823,5.9371,5.9291,5.9641,6.1076,6.2824,6.4909,6.6345,6.8025,6.977,6.8974,6.8665,6.8525,6.6744,6.5615,6.4962,6.4268,6.4422,6.5243,6.6059,6.7363,6.8814,6.8932,7.0021,7.1378,0.0,0.0,0.0,0.0,0.0,0.0,0.0,0.0,0.0,0.0,0.0,0.0,0.0,0.0,0.0,0.0,0.0,0.0,0.0,0.0,0.0,0.3211,0.4012,0.5631,0.8139,0.8084,0.9372,1.2164,1.3799,1.4631,1.4639,1.6811,1.5803,1.2049,0.9336,0.5922,0.2059,0.0498,0.0,0.0,0.1657,0.0,0.0,0.0,0.0,0.0,0.0,0.0,0.0,2.9078,3.2416,3.5985,3.7088,0.0,0.0,0.0,0.0,0.0,5.1724,5.5541,5.8615,5.833,6.0936,6.3318,6.2672,6.2985,6.3372,6.3154,6.3122,6.354,6.4933,6.5311,6.6104,6.8011,6.8452,6.9072,7.0443,7.0187,6.9657,6.9258,6.8299,6.6932,6.5233,6.4234,6.3325,6.2311,6.2238,6.2222,6.206,6.1299,6.0448,5.9667,5.9124,5.9358,6.0397,6.1255,6.2749,6.4909,6.6803,6.8407,6.9643,6.9448,6.9289,6.9155,6.742,6.6969,6.7429,6.6643,6.6946,6.7821,6.8052,6.8781,6.9678,6.9733,7.0419,7.1218,0.0,0.0,0.0,0.0,0.0,0.0,0.0,0.0,0.0,0.0,0.0,0.0,0.0,0.0,0.0,0.0,0.0,0.0,0.0,0.0,0.3552,0.6058,0.6156,0.6768,0.8087,0.9536,1.156,1.4201,1.5814,1.6804,1.7239,1.6862,1.4915,1.1629,0.9276,0.6179,0.2658,0.1652,0.0457,-0.0586,0.0,0.0,0.0,0.0,0.0,0.0,0.0,0.0,0.0,0.0,3.1119,3.4511,3.624,0.0,0.0,0.0,0.0,0.0,5.052,5.4202,5.7497,5.8669,6.1272,6.3603,6.3643,6.3911,6.4291,6.4596,6.4933,6.5532,6.6733,6.7297,6.8236,7.0128,7.0574,7.0746,7.0983,7.0434,6.9806,6.9151,6.8164,6.6957,6.5569,6.4731,6.3875,6.2912,6.244,6.195,6.1497,6.1098,6.0336,5.9205,5.9054,5.9402,6.0226,6.1065,6.3086,6.6104,6.7288,6.861,7.0026,7.0064,6.9834,6.9306,6.8449,6.7806,6.7309,6.7505,6.762,6.7675,6.8744,6.9438,6.9899,7.0397,7.083,7.1054,0.0,0.0,0.0,0.0,0.0,0.0,0.0,0.0,0.0,0.0,0.0,0.0,0.0,0.0,0.0,0.0,0.0,0.0,0.0,0.1587,0.3751,0.8148,0.8111,0.8558,0.975,1.1692,1.3912,1.6455,1.7784,1.8808,1.9496,1.6313,1.3634,1.1417,0.9081,0.6349,0.3444,0.2825,0.2004,0.1213,0.0,0.0,0.0,0.0,0.0,0.0,0.0,0.0,0.0,0.0,0.0,0.0,0.0,0.0,0.0,4.2451,4.4472,4.6748,4.9835,5.3158,5.6481,5.9273,6.1561,6.3499,6.4596,6.4747,6.4974,6.6024,6.6842,6.7589,6.8415,6.9347,7.0421,7.1743,7.2,7.1858,7.1346,7.0713,6.9963,6.9155,6.8145,6.7064,6.5892,6.5112,6.4367,6.3457,6.2658,6.1911,6.1074,6.0893,6.018,5.8908,5.893,5.9264,5.9929,6.0998,6.3233,6.656,6.7341,6.8569,7.0151,7.0407,7.0209,6.9527,6.9305,6.8585,6.7591,6.8233,6.8244,6.7937,6.9421,7.0002,7.0131,7.0799,7.0965,7.0628,0.0,0.0,0.0,0.0,0.0,0.0,0.0,0.0,0.0,0.0,0.0,0.0,0.0,0.0,0.0,0.0,0.0,0.0,0.0,0.2143,0.4194,0.6927,0.8406,1.1099,1.5244,1.4393,1.5247,1.811,1.8987,1.9427,1.9334,1.5489,1.3143,1.2007,0.9184,0.6705,0.4632,0.3906,0.3254,0.2814,0.3557,0.0,0.0,0.0,0.0,0.0,0.0,0.0,0.0,0.0,0.0,0.0,0.0,0.0,3.9755,4.3044,4.4586,4.6259,5.1049,5.3564,5.5675,5.8996,6.1039,6.2894,6.52,6.5124,6.5237,6.7368,6.849,6.9316,7.0142,7.1387,7.2496,7.3141,7.2489,7.2002,7.2353,7.1084,6.9961,6.9427,6.8641,6.7491,6.5794,6.5037,6.4293,6.3457,6.2765,6.2016,6.123,6.05,5.9748,5.9006,5.852,5.8843,5.998,6.1162,6.2862,6.5002,6.6698,6.8126,6.9311,7.0075,7.0348,7.0205,6.9508,6.9578,7.0075,6.9536,6.9778,7.0518,7.0755,7.0821,7.0821,7.0887,7.0425,6.9694,0.0,0.0,0.0,0.0,0.0,0.0,0.0,0.0,0.0,0.0,0.0,0.0,0.0,0.0,0.0,0.0,0.0,0.0,0.0,0.2101,0.4017,0.5935,0.9241,1.2445,1.552,1.6676,1.8671,2.1645,2.1289,2.0383,1.8957,1.5902,1.3413,1.146,0.9689,0.7841,0.6063,0.5635,0.5294,0.5074,0.5065,0.6167,0.0,0.0,0.0,0.0,0.0,0.0,0.0,0.0,2.9105,3.2019,3.4563,3.6638,3.8804,4.2219,4.3738,4.5147,4.9112,5.2399,5.5384,5.8245,6.0481,6.2673,6.5199,6.6291,6.7303,6.9171,7.0179,7.0961,7.1741,7.2144,7.2572,7.3313,7.2849,7.2226,7.1818,7.06,6.9493,6.875,6.7869,6.7121,6.6504,6.544,6.464,6.442,6.3283,6.2054,6.0688,6.0469,5.9795,5.8612,5.8554,5.8974,5.9741,6.079,6.2322,6.4329,6.6573,6.8126,6.9131,7.0004,7.0419,7.049,7.0178,6.9973,6.9826,6.9606,6.9728,7.0102,7.0651,7.0843,7.0777,7.0172,6.976,6.9309,0.0,0.0,0.0,0.0,0.0,0.0,0.0,0.0,0.0,0.0,0.0,0.0,0.0,0.0,0.0,0.0,0.0,0.0,0.0176,0.172,0.3255,0.4733,0.8881,1.2429,1.5118,1.7988,2.0443,2.2592,2.2217,2.0862,1.8584,1.6068,1.3893,1.21,1.0564,0.9352,0.8376,0.7397,0.7103,0.727,0.6692,0.7508,0.0,0.0,0.0,0.0,0.0,0.0,0.0,0.0,2.9094,3.2058,3.4549,3.6791,3.9014,4.1894,4.3602,4.5238,4.8378,5.149,5.4629,5.7645,6.0031,6.2297,6.5084,6.6739,6.8316,7.0361,7.1674,7.252,7.294,7.282,7.2857,7.3193,7.2724,7.2078,7.1338,7.0083,6.8939,6.8313,6.7375,6.6845,6.6903,6.5641,6.4858,6.5018,6.3672,6.2157,6.0493,6.0572,6.0018,5.8486,5.8747,5.9102,5.9613,6.0547,6.1885,6.365,6.5874,6.7697,6.9098,7.0004,7.0298,7.0202,7.0202,6.9949,6.9481,6.9267,6.9179,6.9256,7.0085,7.0374,7.0239,6.9604,6.9191,6.8701,0.0,0.0,0.0,0.0,0.0,0.0,0.0,0.0,0.0,0.0,0.0,0.0,0.0,0.0,0.0,0.0,0.0,0.0,0.0631,0.1083,0.1839,0.3149,0.7029,1.0863,1.4574,1.8036,1.9935,2.0224,2.1281,2.0597,1.8223,1.5766,1.4532,1.4303,1.183,1.1128,1.1661,0.9127,0.8534,0.9263,0.8469,0.8905,1.0359,0.0,0.0,0.0,0.0,0.0,0.0,0.0,2.9509,3.2033,3.4473,3.7555,4.0595,4.2317,4.4424,4.6757,4.9353,5.1158,5.3256,5.7276,5.9543,6.1656,6.4775,6.6244,6.7785,7.0871,7.281,7.3875,7.3628,7.3578,7.3424,7.3,7.2134,7.1397,7.1113,6.9551,6.832,6.8182,6.7352,6.6786,6.6786,6.5585,6.4858,6.4965,6.3773,6.2351,6.0868,6.0892,6.0246,5.8821,5.8986,5.929,5.9677,6.061,6.1647,6.2811,6.4489,6.6656,6.9196,6.9999,6.9954,6.9284,6.9284,6.9374,6.9442,6.8636,6.829,6.8367,6.9173,6.9433,6.9284,6.9284,6.8686,6.7744,0.0,0.0,0.0,0.0,0.0,0.0,0.0,0.0,0.0,0.0,0.0,0.0,0.0,0.0,0.0,0.0,0.0,0.0,0.0161,0.0115,0.0636,0.1994,0.4362,0.6985,0.9906,1.3765,1.7497,2.0959,2.1245,2.0158,1.7783,1.58,1.466,1.4225,1.3454,1.2921,1.2575,1.1696,1.1704,1.228,1.1718,1.2251,1.3517,0.0,0.0,0.0,0.0,0.0,0.0,0.0,0.0,0.0,3.5369,3.7524,3.9566,4.1361,4.3107,4.4887,4.6882,4.9711,5.2806,5.571,5.8877,6.1986,6.4678,6.6443,6.8247,7.0704,7.1589,7.1876,7.1626,7.1472,7.1353,7.1138,7.0754,7.0201,6.9295,6.8648,6.7964,6.7125,6.6692,6.6332,6.6025,6.5069,6.4421,6.4161,6.2928,6.1713,6.0692,6.0462,5.9901,5.8982,5.929,5.9578,5.9853,6.0311,6.0997,6.1895,6.3574,6.5741,6.8279,6.8508,6.8877,6.9284,6.8709,6.8531,6.8636,6.8405,6.7944,6.7483,6.8215,6.8502,6.8365,6.773,6.7317,6.6834,0.0,0.0,0.0,0.0,0.0,0.0,0.0,0.0,0.0,0.0,-0.7207,-0.6121,0.0,0.0,0.0,0.0,0.0,0.0,0.0,0.0112,0.0911,0.2481,0.3994,0.6485,1.01,1.3227,1.6143,1.8892,1.9551,1.8991,1.7328,1.667,1.6358,1.6278,1.6219,1.5905,1.5361,1.4766,1.4938,1.5539,1.5194,1.5783,1.7003,0.0,0.0,0.0,0.0,0.0,0.0,0.0,0.0,0.0,3.4932,3.7066,3.9185,4.092,4.2987,4.5128,4.7125,5.0081,5.3268,5.6286,5.9103,6.1831,6.4507,6.6941,6.9062,7.066,7.1032,7.0933,7.068,7.0523,7.0454,7.0293,6.9871,6.9282,6.8601,6.8044,6.7352,6.6704,6.6139,6.5743,6.5511,6.4577,6.3821,6.3356,6.2414,6.1356,6.0342,6.0178,5.9801,5.9139,5.94,5.9719,5.995,6.0076,6.0616,6.1514,6.2818,6.4641,6.6879,6.7496,6.7948,6.8158,6.7692,6.7399,6.718,6.7487,6.7142,6.6423,6.7255,6.7569,6.7454,6.6544,6.6208,6.5979,0.0,0.0,0.0,0.0,0.0,0.0,0.0,0.0,0.0,0.0,-0.8082,-0.7173,0.0,0.0,0.0,0.0,0.0,0.0,0.0,0.0895,0.2213,0.3929,0.5299,0.8261,1.306,1.4705,1.5325,1.4915,1.6821,1.7512,1.697,1.8056,1.8963,1.959,1.9498,1.9341,1.9058,1.7804,1.7789,1.8598,1.846,1.9066,2.021,2.1273,0.0,0.0,0.0,0.0,0.0,0.0,0.0,0.0,3.3815,3.6303,3.9185,4.0743,4.3567,4.6683,4.8937,5.142,5.4274,5.7978,5.9851,6.1537,6.4345,6.7347,6.9767,7.04,7.066,7.0671,7.0338,7.0323,7.0307,7.0072,6.921,6.8604,6.8604,6.7477,6.6677,6.6677,6.5658,6.4999,6.5104,6.3961,6.3056,6.2515,6.1887,6.1034,5.9708,5.9892,5.9729,5.9178,5.9434,5.9753,5.9982,6.0013,6.0449,6.137,6.2223,6.3442,6.5105,6.6717,6.7059,6.6396,6.6421,6.6032,6.5421,6.6147,6.6063,6.5459,6.6261,6.6567,6.6483,6.5665,6.5312,6.4976,0.0,0.0,0.0,0.0,0.0,0.0,0.0,0.0,0.0,0.0,0.0,0.0,0.0,0.0,0.0,0.0,0.0,0.0,0.0,0.1679,0.3118,0.4045,0.6389,0.856,1.0413,1.1454,1.2159,1.2537,1.6072,1.7654,1.7317,1.8672,1.994,2.1092,2.0257,1.9963,1.9971,1.8039,1.7806,1.8781,1.9051,1.9538,2.0228,2.1295,2.2592,0.0,0.0,0.0,0.0,0.0,0.0,0.0,3.442,3.6634,3.8953,4.0058,4.3019,4.6237,4.7564,5.0493,5.3846,5.6555,6.0102,6.3245,6.4539,6.5952,6.7046,6.7629,6.8763,6.9362,6.8472,6.8823,6.9044,6.8365,6.7982,6.767,6.7522,6.6583,6.5786,6.5633,6.477,6.3991,6.3553,6.2783,6.2095,6.1521,6.0433,5.9421,5.8652,5.8958,5.887,5.8203,5.9168,5.9753,5.9824,6.0013,6.0182,6.0342,6.1831,6.2743,6.3155,6.4932,6.5584,6.5323,6.5293,6.5213,6.509,6.5346,6.534,6.5264,6.5518,6.5626,6.5512,6.4634,6.394,6.3108,0.0,0.0,0.0,0.0,0.0,0.0,0.0,0.0,0.0,0.0,0.0,0.0,0.0,0.0,0.0,0.0,0.0,0.0,0.0,0.0,0.3713,0.5145,0.7318,0.8781,0.9411,1.0156,1.0971,1.191,1.4695,1.6517,1.7413,1.9126,2.0576,2.1628,2.1426,2.0767,1.978,1.9602,1.9773,2.025,2.1476,2.2239,2.2662,2.329,2.419,2.5211,2.5672,0.0,0.0,0.0,0.0,0.0,0.0,0.0,3.9064,4.0696,4.3246,4.5987,4.839,5.1337,5.4487,5.7566,6.0683,6.3156,6.3565,6.4605,6.5561,6.5779,6.6753,6.734,6.6675,6.721,6.7614,6.7066,6.7213,6.7157,6.6644,6.5902,6.5235,6.478,6.3581,6.2774,6.2602,6.1642,6.0835,6.0384,5.9685,5.9025,5.84,5.8656,5.8756,5.8578,5.9246,5.9685,5.9857,5.995,6.0013,6.0013,6.169,6.2871,6.3668,6.4541,6.492,6.485,6.4781,6.4781,6.4815,6.4886,6.4955,6.4989,6.4638,6.4818,6.5035,6.3328,6.2382,6.1697,0.0,0.0,0.0,0.0,0.0,0.0,0.0,0.0,0.0,0.0,0.0,0.0,0.0,0.0,0.0,0.0,0.0,0.0,0.0,0.0,0.0,0.6308,0.7805,0.8748,0.9088,0.9686,1.0686,1.2175,1.3666,1.5672,1.8106,1.9788,2.1077,2.2039,2.2335,2.137,1.9564,2.0732,2.1264,2.1527,2.3342,2.4374,2.4855,2.5144,2.5523,2.6059,2.6803,2.835,3.0069,3.0086,0.0,0.0,0.0,0.0,3.9219,4.1374,4.3421,4.5773,4.9277,5.2397,5.5498,5.9017,6.105,6.2227,6.2376,6.3565,6.4559,6.4419,6.5101,6.562,6.5404,6.5904,6.6329,6.6243,6.6555,6.6534,6.5856,6.5301,6.4657,6.3863,6.249,6.1661,6.1749,6.0595,5.9749,5.9421,5.9283,5.894,5.8344,5.8582,5.8828,5.9028,5.9363,5.965,5.9853,5.9918,5.9982,6.0045,6.1506,6.3069,6.4699,6.459,6.4556,6.467,6.4634,6.4558,6.4596,6.467,6.4743,6.4777,6.4057,6.4313,6.4757,6.2226,6.1131,6.0421,0.0,0.0,0.0,0.0,0.0,0.0,0.0,0.0,0.0,0.0,-0.9916,-0.9762,0.0,0.0,0.0,0.0,0.0,0.0,0.0514,0.0,0.0,0.642,0.7293,0.8008,0.8569,0.9195,1.0606,1.2855,1.4404,1.7188,2.1083,2.1234,2.2022,2.3273,2.1733,2.1086,2.0945,1.8712,1.8801,2.0436,2.101,2.1882,2.2973,2.3846,2.5181,2.6593,2.6765,2.8501,3.0696,3.0829,3.2749,0.0,0.0,0.0,3.909,4.0055,4.2519,4.5442,4.7403,5.1579,5.5955,5.8458,6.0231,6.1558,6.2264,6.3119,6.3705,6.3567,6.4742,6.573,6.5583,6.563,6.5823,6.6292,6.5659,6.5296,6.5711,6.4472,6.32,6.2567,6.166,6.0913,6.0528,5.9761,5.9318,5.9384,5.8858,5.8215,5.7529,5.8368,5.8604,5.8014,5.9095,5.9681,5.9715,5.9944,6.0068,6.0106,6.1033,6.233,6.393,6.3719,6.4028,6.4596,6.4482,6.4405,6.4444,6.4633,6.467,6.4634,6.4445,6.4445,6.4332,6.2372,6.068,5.899,0.0,0.0,0.0,0.0,0.0,0.0,0.0,0.0,0.0,0.0,0.0,-1.0149,0.0,0.0,0.0,-0.4497,-0.2794,-0.0729,0.1815,0.3581,0.5066,0.6223,0.6655,0.7276,0.815,0.8946,1.0719,1.3543,1.4386,1.7609,2.2933,2.2668,2.3396,2.4878,2.3401,2.2469,2.1951,2.0058,1.9874,2.0916,2.1381,2.3039,2.5141,2.4335,2.5947,2.8559,2.7261,2.8795,3.1478,3.1618,3.3752,3.6328,3.631,0.0,0.0,0.0,4.236,4.5103,4.8985,5.2736,5.6067,5.8346,6.0087,6.1496,6.2227,6.2963,6.3511,6.3511,6.4021,6.4409,6.4266,6.4525,6.483,6.5007,6.4892,6.4713,6.4475,6.3747,6.293,6.2294,6.1147,6.0427,6.0311,5.9281,5.8731,5.8873,5.8708,5.8466,5.8215,5.8756,5.8989,5.8801,5.9389,5.9744,5.9912,6.0038,6.0357,6.0883,6.1264,6.233,6.3905,6.3736,6.402,6.4633,6.4482,6.4405,6.4405,6.4482,6.4482,6.4405,6.38,6.3836,6.3984,6.1487,6.005,5.8846,0.0,0.0,0.0,0.0,0.0,0.0,0.0,0.0,0.0,0.0,0.0,0.0,0.0,0.0,0.0,0.0,-0.2744,-0.0446,0.2627,0.3705,0.4628,0.5666,0.5877,0.6497,0.7551,0.8641,1.0713,1.3879,1.4855,1.8382,2.4241,2.4507,2.5697,2.756,2.5683,2.4091,2.2736,2.1827,2.1731,2.234,2.301,2.5028,2.7464,2.6277,2.794,3.0649,2.8713,2.9938,3.2552,3.2702,3.4722,3.7316,3.7591,3.8634,0.0,0.0,0.0,4.5141,5.0145,5.3075,5.531,5.779,5.9726,6.1209,6.1937,6.2769,6.3419,6.3465,6.3465,6.3336,6.3242,6.3664,6.4009,6.403,6.4192,6.4091,6.3512,6.3185,6.2749,6.2109,6.0865,6.0152,6.0173,5.9025,5.8356,5.8529,5.8656,5.8818,5.8899,5.91,5.9328,5.9543,5.9715,5.9912,6.0129,6.0217,6.0619,6.1325,6.1315,6.2051,6.3413,6.3283,6.3579,6.4174,6.4407,6.4482,6.4405,6.4444,6.4253,6.3906,6.3297,6.3327,6.3355,6.0796,5.9595,5.8657,0.0,0.0,0.0,0.0,0.0,0.0,0.0,0.0,0.0,0.0,0.0,0.0,-0.9448,-0.7706,-0.5993,-0.4353,-0.2612,-0.0498,0.2172,0.3163,0.3941,0.4538,0.4971,0.0,0.675,0.8157,1.0418,1.3554,1.6408,2.0281,2.5065,2.7018,2.9485,3.2022,2.8298,2.5436,2.3351,2.3026,2.3557,2.4746,2.589,2.7067,2.8336,3.014,3.1524,3.236,3.1544,3.2428,3.4018,3.4139,3.5492,3.725,3.8093,3.9037,4.0079,0.0,0.0,0.0,4.9083,5.1168,5.3126,5.6171,5.8615,6.0435,6.1044,6.2324,6.3336,6.3279,6.3289,6.3382,6.3382,6.3419,6.3622,6.4107,6.3479,6.3071,6.3544,6.2944,6.2178,6.1528,6.0836,6.0184,5.9678,5.8961,5.8572,5.8656,5.8818,5.8899,5.8899,5.9139,5.9327,5.9399,5.988,6.0129,6.0188,6.0494,6.0699,6.0737,6.0687,6.1042,6.1745,6.1658,6.1964,6.2677,6.4206,6.4708,6.4405,6.4558,6.3952,6.3035,6.3584,6.3264,6.2294,6.0877,5.9554,5.7949,0.0,0.0,0.0,0.0,0.0,0.0,0.0,0.0,0.0,0.0,0.0,0.0,0.0,-0.7911,-0.6416,-0.4794,-0.2171,0.0227,0.2038,0.2756,0.3423,0.4151,0.4465,0.5207,0.6494,0.8118,1.0611,1.3992,1.5694,1.9516,2.5235,2.6561,2.8497,3.0812,2.8632,2.7987,2.8189,2.5244,2.5162,2.708,2.735,2.8998,3.1201,3.112,3.2948,3.5323,3.3542,3.4044,3.5615,3.6356,3.7094,3.7817,3.8777,3.9325,3.991,4.1402,4.2862,4.4714,4.804,5.007,5.2052,5.5128,5.7267,5.8865,6.003,6.0958,6.1744,6.2308,6.2466,6.2697,6.3308,6.3382,6.3447,6.3648,6.3235,6.2965,6.3057,6.2786,6.226,6.1605,6.0848,6.0184,5.9686,5.8924,5.8492,5.8572,5.8777,5.894,5.9098,5.929,5.9545,5.9782,6.0038,6.0275,6.0494,6.0734,6.0819,6.0757,6.0757,6.1108,6.1732,6.1649,6.2031,6.2718,6.3193,6.3259,6.301,6.2937,6.2597,6.2058,6.2193,6.1819,6.108,5.9761,5.8616,5.7388,0.0,0.0,0.0,0.0,0.0,0.0,0.0,0.0,0.0,-1.1404,0.0,0.0,0.0,0.0,-0.6499,-0.4274,-0.1572,0.0521,0.1775,0.2323,0.2948,0.3661,0.4056,0.4927,0.6342,0.8152,1.0597,1.368,1.563,1.9226,2.4283,2.5756,2.7776,3.0038,2.8458,2.909,3.1246,2.842,2.8254,2.9937,3.0223,3.1667,3.3709,3.3774,3.555,3.7785,3.6206,3.6435,3.7581,3.8309,3.8665,3.8877,3.9533,3.9839,4.0228,4.1732,4.2749,4.4067,4.7137,4.8767,5.0447,5.4081,5.5771,5.7153,5.9282,6.0071,6.0609,6.1468,6.1837,6.2225,6.2621,6.2917,6.3132,6.3345,6.2798,6.2398,6.2512,6.2401,6.2108,6.1434,6.0845,6.0231,5.9693,5.8708,5.8233,5.8492,5.8479,5.8641,5.9061,5.9328,5.9685,6.0099,6.0275,6.0494,6.0781,6.0894,6.0894,6.0888,6.0911,6.0958,6.0968,6.1222,6.1392,6.1522,6.169,6.195,6.2246,6.2142,6.1808,6.1276,6.1334,6.084,6.0047,5.8833,5.7855,5.6692,0.0,0.0,0.0,0.0,0.0,0.0,0.0,0.0,-1.2861,-1.238,0.0,0.0,0.0,0.0,0.0,-0.2809,-0.1007,0.0359,0.1225,0.1919,0.2543,0.3081,0.3799,0.4889,0.6342,0.8279,1.0378,1.2541,1.639,1.9597,2.2232,2.4859,2.7564,3.0116,2.7955,2.8791,3.1859,3.2292,3.2792,3.338,3.4481,3.5119,3.5681,3.8326,3.944,3.9615,3.9683,3.9783,3.9882,3.9983,4.0136,4.0267,4.0365,4.0611,4.1042,4.1781,4.2671,4.3928,0.0,0.0,0.0,5.2844,5.4156,5.5171,5.8693,5.9653,5.995,6.0678,6.153,6.1953,6.1427,6.1868,6.2554,6.3206,6.2011,6.1226,6.1865,6.1882,6.1503,6.0785,6.0582,6.0296,5.9634,5.8196,5.7603,5.8418,5.7959,5.8005,5.8862,5.9328,5.9748,6.0293,6.0546,6.0781,6.0997,6.1021,6.0982,6.0959,6.0959,6.0365,5.9281,6.0163,5.9966,5.8957,5.9756,6.0957,6.2349,6.2349,6.1613,6.0566,6.1157,6.0481,5.9081,5.8304,5.7199,5.5819,0.0,0.0,0.0,0.0,0.0,-1.1186,-1.1325,-1.1741,-1.2037,0.0,0.0,0.0,-1.0075,-0.8056,-0.5812,-0.362,-0.1783,-0.0107,0.127,0.1603,0.2041,0.2751,0.3397,0.4542,0.6276,0.8262,1.0705,1.3652,1.6065,1.8858,2.193,2.4295,2.6533,2.8614,2.9387,3.0942,3.2838,3.0516,3.1896,3.5595,3.5521,3.6315,3.7785,3.9297,4.0706,4.1866,4.1941,4.245,4.3032,4.3141,4.2514,4.1572,4.063,4.0337,4.0579,4.1567,4.2399,4.3415,4.549,0.0,0.0,0.0,0.0,0.0,5.4091,5.5424,5.6792,5.8837,5.9515,6.0083,6.1092,6.1027,6.0878,6.0976,6.1076,6.1174,6.1263,6.1217,6.07,5.9338,5.9109,5.8597,5.7353,5.6837,5.6911,5.7728,5.7621,5.8005,5.9063,5.9613,6.0099,6.0506,6.0742,6.0899,6.1021,6.1099,6.0771,6.0071,5.9991,5.9435,5.8362,5.9098,5.9254,5.8957,5.9695,6.0279,6.0633,6.0433,5.9734,5.8765,5.8644,5.758,5.6077,5.5773,5.5145,5.4247,0.0,0.0,0.0,-1.1492,-1.1421,-1.142,-1.1302,-1.1593,-1.1833,0.0,0.0,0.0,-0.8763,-0.6973,-0.5061,-0.3184,-0.1657,-0.0229,0.1167,0.1519,0.2077,0.2887,0.3854,0.5268,0.7104,0.9234,1.164,1.4288,1.6311,1.8485,2.0753,2.2944,2.4855,2.6624,2.7917,3.0067,3.2555,3.0009,3.2001,3.6928,3.7393,3.8269,3.9504,4.0606,4.1877,4.3113,4.331,4.3932,4.4699,4.4815,4.398,4.261,4.1145,4.0718,4.0822,4.1481,4.2136,4.3045,4.4898,4.5047,4.5356,4.7961,0.0,0.0,5.3272,5.4237,5.5206,5.7739,5.8341,5.8607,5.936,5.9362,5.9136,5.8799,5.8716,5.8929,5.9467,5.9499,5.9017,5.7765,5.7867,5.7571,5.655,5.6104,5.6364,5.7518,5.7374,5.7754,5.8909,5.9349,5.9616,5.961,5.9798,5.992,6.0016,6.0089,5.9821,5.9145,5.9104,5.8489,5.7544,5.8601,5.8835,5.8453,5.9574,6.0013,5.995,5.9616,5.9101,5.8428,5.7587,5.6345,5.4963,5.4398,5.3514,5.2538,0.0,0.0,-1.2654,-1.1913,-1.1969,-1.1894,-1.1333,-1.1694,-1.1889,0.0,-1.0853,-0.946,-0.6688,-0.5545,-0.4143,-0.2012,-0.0948,0.0062,0.0998,0.1676,0.2417,0.3418,0.4925,0.6653,0.8598,1.0933,1.3005,1.4891,1.6877,1.8408,1.9431,2.1422,2.3192,2.4731,2.5238,2.7745,3.1613,3.061,3.3018,3.7679,3.9355,4.0359,4.0969,4.2044,4.2952,4.3679,4.4083,4.475,4.5522,4.557,4.4783,4.3497,4.1879,4.1493,4.1588,4.1576,4.1999,4.2864,4.458,4.4432,4.466,4.82,4.8492,0.0,5.3933,5.435,5.4392,5.678,5.7304,5.7155,5.6804,5.7187,5.7266,5.6512,5.5656,5.5548,5.7029,5.7171,5.68,5.6105,5.6655,5.6878,5.6257,5.5622,5.5884,5.7492,5.7152,5.7322,5.8445,5.869,5.8642,5.8252,5.8414,5.8562,5.8596,5.8684,5.8579,5.8258,5.8196,5.7627,5.6712,5.8209,5.841,5.7634,5.9253,5.9861,5.9701,5.9323,5.899,5.8612,5.718,5.5848,5.4527,5.3474,5.2126,5.0928,0.0,-1.2863,-1.2381,-1.1741,-1.1643,-1.1425,-1.0907,-1.0999,-1.0857,-1.0046,-0.8758,-0.7085,-0.4772,-0.4319,-0.3363,-0.1447,-0.0269,0.0727,0.1456,0.1877,0.2706,0.4197,0.6022,0.8204,1.0723,1.2768,1.4687,1.6467,1.7548,1.8897,2.0444,2.2062,2.3546,2.502,2.6199,2.8233,3.0911,3.2463,3.5087,3.8219,3.8631,4.0179,4.2321,4.3366,4.4369,4.5187,4.54,4.6032,4.6773,4.6302,4.5554,4.4548,4.3104,4.2668,4.2594,4.2111,4.2512,4.3355,4.4487,4.4669,4.4706,4.5655,4.7129,0.0,4.9365,5.0815,5.2414,5.3818,5.4146,5.4364,5.4886,5.5107,5.4952,5.4086,5.3729,5.4046,5.5548,5.5696,5.5137,5.3756,5.495,5.5322,5.3928,5.4296,5.5112,5.6187,5.6879,5.7446,5.7777,5.8016,5.8274,5.8414,5.8574,5.8676,5.8692,5.8746,5.8319,5.7429,5.7289,5.6713,5.5695,5.6599,5.69,5.674,5.8365,5.8963,5.8769,5.8313,5.7603,5.6657,5.555,5.3648,5.1454,5.1398,5.0724,4.9866,-1.3338,-1.3119,-1.2601,-1.1725,-1.1601,-1.1344,-1.0361,-1.0208,-0.9925,-0.9193,-0.7664,-0.6058,-0.4493,-0.367,-0.274,-0.1484,-0.044,0.0652,0.1717,0.2298,0.3347,0.5023,0.7428,0.9996,1.2569,1.4373,1.6087,1.7698,1.8086,1.8907,2.0104,2.1537,2.3253,2.5213,2.5943,2.815,3.1393,3.2165,3.4525,3.7852,3.9861,4.1767,4.3527,4.4295,4.5082,4.5906,4.5837,4.6453,4.7096,4.6122,4.5513,4.4859,4.3351,4.3136,4.3317,4.2668,4.2995,4.376,4.4346,4.4492,4.4711,4.5663,4.6948,0.0,0.0,5.0328,5.1398,5.2907,5.2655,5.2296,5.2794,5.2929,5.2693,5.1822,5.1593,5.1654,5.197,5.2911,5.3334,5.2611,5.3311,5.3564,5.2824,5.3248,5.4116,5.5541,5.6882,5.7499,5.7239,5.7397,5.7446,5.7373,5.7441,5.7288,5.6861,5.69,5.6567,5.5941,5.5807,5.5682,5.557,5.6332,5.6665,5.6716,5.7815,5.8174,5.7959,5.7522,5.6555,5.5258,5.4309,5.2692,5.085,5.0232,4.9546,4.8935,-1.3457,-1.3346,-1.2953,-1.1938,-1.1694,-1.1166,-0.9894,-0.9402,-0.8961,-0.8223,-0.6769,-0.5503,-0.463,-0.3452,-0.2389,-0.176,-0.0794,0.0392,0.1692,0.2747,0.4161,0.6065,0.882,1.1561,1.4212,1.5773,1.7172,1.8382,1.8533,1.8917,1.954,2.1042,2.3013,2.5408,2.5873,2.8375,3.2113,3.1974,3.3989,3.7689,4.1167,4.3065,4.3871,4.4649,4.5277,4.5725,4.5691,4.6329,4.7016,4.575,4.5281,4.491,4.3372,4.3408,4.3836,4.2982,4.3307,4.3996,4.4411,4.4522,4.4851,4.6318,4.7132,4.805,0.0,0.0,0.0,5.1764,5.1156,5.0382,5.0596,5.0647,5.0342,4.9515,4.948,4.9226,4.8234,4.9673,5.0975,5.1215,5.1575,5.1822,5.1972,5.212,5.2957,5.4814,5.5935,5.6467,5.639,5.6346,5.6227,5.5993,5.5874,5.5519,5.4808,5.4786,5.4763,5.4735,5.4612,5.4979,5.5787,5.6395,5.6698,5.6736,5.7353,5.7385,5.6983,5.6428,5.5359,5.3934,5.3193,5.2095,5.0725,4.9379,4.8478,4.7933,-1.3492,-1.3281,-1.2886,-1.2375,-1.1564,-1.0684,-0.9673,-0.8889,-0.7805,-0.6131,-0.5339,-0.4661,-0.4155,-0.3413,-0.2689,-0.1973,-0.0828,0.0323,0.137,0.2797,0.483,0.7678,0.9832,1.2387,1.5423,1.6698,1.7605,1.8071,1.8556,1.9186,1.997,2.1742,2.3662,2.5823,2.7864,3.0068,3.2382,3.4274,3.6685,3.9381,4.11,4.1842,4.214,4.3984,4.4453,4.4095,4.5012,4.5999,4.6717,4.5772,4.5488,4.5204,4.3693,4.3772,4.4135,4.2961,4.3185,4.4021,4.5062,4.5358,4.551,4.6029,4.7242,4.7941,4.652,0.0,4.8227,4.7994,0.0,4.7935,4.809,0.0,0.0,4.728,4.7677,4.7559,4.6071,4.6646,4.7461,4.8128,4.9491,5.0392,5.0535,5.073,5.1544,5.3251,5.2262,5.2605,5.4823,5.4312,5.4336,5.5119,5.4489,5.4126,5.4031,5.3974,5.4263,5.4893,5.4739,5.5139,5.5952,5.5998,5.5962,5.5943,5.6621,5.6257,5.516,5.4726,5.3646,5.2192,5.2004,5.1123,4.9791,4.8386,4.7313,4.6573,-1.3721,-1.3483,-1.3113,-1.2613,-1.1803,-1.0819,-0.9644,-0.8624,-0.739,-0.5894,-0.5199,-0.4774,-0.4372,-0.3379,-0.2716,-0.274,-0.1232,0.0432,0.2327,0.3843,0.5909,0.8715,1.0953,1.3542,1.6388,1.7287,1.7943,1.8267,1.8336,1.8939,2.0043,2.1848,2.4422,2.7564,2.9131,3.1693,3.4804,3.5654,3.715,3.9088,4.0259,4.0963,4.1528,4.4079,4.5107,4.5339,4.5751,4.6342,4.6671,4.5889,4.523,4.4784,4.4671,4.4254,4.3764,4.3763,4.3781,4.384,4.4046,4.5142,4.6097,4.5513,4.7017,4.8266,4.6589,4.6974,4.7617,4.7465,0.0,0.0,0.0,0.0,0.0,0.0,4.5659,4.5312,4.3704,4.3698,4.4526,4.6205,4.7049,4.7702,4.8279,4.8874,4.972,5.0933,5.0957,5.1633,5.322,5.3521,5.3852,5.4295,5.4056,5.3657,5.3143,5.3128,5.3485,5.4217,5.414,5.4802,5.6123,5.6082,5.6033,5.59,5.5576,5.4963,5.4275,5.3345,5.2373,5.1406,5.0991,5.0275,4.9205,4.7804,4.7202,4.7014,-1.4042,-1.3792,-1.3477,-1.2798,-1.1889,-1.0737,-0.9217,-0.8216,-0.7094,-0.5837,-0.5287,-0.4768,-0.4372,-0.3255,-0.2657,-0.2685,-0.111,0.0904,0.3178,0.4556,0.6751,0.9907,1.171,1.4065,1.712,1.7451,1.7892,1.8467,1.8374,1.9089,2.065,2.2479,2.519,2.8708,3.0505,3.3169,3.6295,3.6947,3.8051,3.9397,4.0263,4.1211,4.2165,4.3973,4.537,4.6315,4.6055,4.627,4.6531,4.5716,4.4834,4.4177,4.4632,4.4041,4.3279,4.3893,4.4103,4.4057,4.3612,4.5001,4.6247,4.518,4.6382,4.7508,4.612,4.6468,4.6948,4.6592,4.6571,0.0,0.0,0.0,4.5285,4.4274,0.0,4.349,4.1629,4.1296,4.2125,4.4299,4.5009,4.5549,4.6172,4.6397,4.7179,4.8739,4.8928,4.9717,5.1554,5.2319,5.2844,5.3112,5.3208,5.2918,5.2294,5.225,5.2629,5.3397,5.3642,5.4398,5.5598,5.6057,5.6045,5.5645,5.4803,5.4139,5.3467,5.2227,5.1204,5.038,4.9752,4.9317,4.8777,4.7571,4.721,4.7133,-1.4474,-1.433,-1.384,-1.3053,-1.1682,-1.008,-0.8138,-0.7408,-0.6789,-0.5797,-0.5089,-0.4459,-0.3796,-0.3234,-0.2413,-0.1302,0.0095,0.1644,0.339,0.4448,0.7044,1.1587,1.1686,1.3489,1.7522,1.7096,1.7384,1.8516,1.8735,2.0022,2.2163,2.394,2.6077,2.8483,3.2139,3.4454,3.5674,3.8525,4.0226,4.1082,4.1759,4.2983,4.4304,4.3597,4.4565,4.6098,4.525,4.5509,4.6063,4.5067,4.4167,4.345,4.2952,4.2798,4.2793,4.2696,4.376,4.4926,4.4637,4.5187,4.5737,4.5204,4.5222,4.5003,4.3788,4.4928,4.5821,4.4347,4.535,4.6296,4.5592,4.5419,4.4935,4.3556,4.3285,0.0,0.0,3.973,4.039,4.2022,4.3595,4.4506,4.4484,4.3115,4.3608,4.7004,4.5074,4.5585,4.9737,5.0126,5.059,5.1445,5.1467,5.1474,5.1435,5.1441,5.1833,5.2653,5.3507,5.393,5.4037,5.5666,5.5882,5.4906,5.4691,5.3877,5.2628,5.1415,5.0038,4.8643,4.8108,4.8201,4.8539,4.7933,4.7173,4.65,-1.4081,-1.405,-1.3896,-1.3318,-1.2286,-1.0874,-0.8989,-0.8059,-0.7138,-0.6126,-0.5402,-0.4473,-0.3213,-0.1793,-0.0696,-0.0101,0.1159,0.3331,0.6358,0.7431,0.9567,1.3187,1.4501,1.6157,1.8327,1.8434,1.8617,1.8819,1.9389,2.0779,2.2976,2.4949,2.7567,3.0807,3.4061,3.6569,3.8493,4.0451,4.1466,4.1731,4.236,4.3313,4.4395,4.4593,4.5199,4.592,4.5575,4.5695,4.5835,4.5439,4.4435,4.3429,4.3771,4.308,4.2388,4.3444,4.4032,4.4466,4.5221,4.6507,4.7205,4.5531,4.5749,4.5865,4.3788,4.4423,4.5171,4.4119,4.5295,4.6164,4.4844,4.419,4.3487,4.2535,4.1416,4.0239,0.0,3.8362,3.8213,3.8735,4.0216,4.1183,4.1156,4.0667,4.1323,4.3645,4.3147,4.4079,4.7294,4.8027,4.8783,4.9646,4.9687,4.9684,4.9684,5.0267,5.0925,5.1743,5.2611,5.3359,5.3945,5.5095,5.5365,5.4866,5.4188,5.3494,5.2824,5.1543,5.0252,4.9068,5.011,4.9856,4.8806,4.7375,4.6869,4.655,-1.3565,-1.3747,-1.3719,-1.3258,-1.2119,-1.0773,-0.9403,-0.8208,-0.7197,-0.6632,-0.5183,-0.3537,-0.177,-0.0103,0.1129,0.1843,0.3759,0.6062,0.8835,0.9894,1.1887,1.5184,1.6598,1.8193,2.0002,2.0323,2.051,2.0733,2.1313,2.2628,2.4632,2.6326,2.8791,3.1924,3.494,3.7312,3.9125,4.1279,4.2171,4.2244,4.2815,4.3547,4.4293,4.4852,4.5283,4.5563,4.5321,4.5355,4.5598,4.5389,4.4337,4.3216,4.38,4.3101,4.229,4.3685,4.4426,4.4899,4.5624,4.6948,4.7682,4.6075,4.6284,4.6318,4.3943,4.4738,4.5574,4.4135,4.5082,4.5872,4.5065,4.381,4.265,4.1917,4.0204,3.8401,0.0,3.6171,3.5794,3.5788,3.7739,3.912,3.9063,3.852,3.917,4.1518,4.1227,4.2221,4.5138,4.613,4.6875,4.7418,4.7721,4.7868,4.7861,4.8703,4.9541,5.0387,5.1581,5.2433,5.3003,5.4215,5.463,5.4469,5.3495,5.3056,5.2951,5.1443,5.0231,4.9452,5.0416,5.0138,4.9162,4.8079,4.7073,4.5981,-1.293,-1.3293,-1.3263,-1.2672,-1.1259,-0.9886,-0.9274,-0.802,-0.7026,-0.6957,-0.4303,-0.167,0.0319,0.1809,0.3186,0.4552,0.7376,0.9573,1.0582,1.1695,1.3827,1.7496,1.8152,1.9604,2.2124,2.2413,2.2947,2.3816,2.4195,2.5332,2.6993,2.818,2.9708,3.1737,3.4878,3.6721,3.7838,4.0992,4.2333,4.2492,4.3328,4.3805,4.4097,4.4316,4.4674,4.5039,4.4353,4.4559,4.5089,4.4818,4.3829,4.2706,4.2927,4.2708,4.2509,4.3309,4.4755,4.605,4.5954,4.6581,4.7166,4.6764,4.6725,4.6261,4.4184,4.5683,4.682,4.4334,4.463,4.543,4.5873,4.4113,4.2374,4.1545,3.9504,3.6929,3.3824,3.3351,3.3322,3.3461,3.6267,3.8188,3.8083,3.6657,3.7118,4.0416,3.9298,3.9956,4.3386,4.4375,4.4835,4.4945,4.5675,4.6084,4.6059,4.6878,4.7696,4.8535,5.0274,5.1083,5.1154,5.2968,5.3725,5.3619,5.2708,5.264,5.2983,5.1144,5.0045,4.9514,4.9011,4.9111,4.9554,4.9597,4.7704,4.4747,-1.1894,-1.2038,-1.1852,-1.121,-1.076,-1.0158,-0.9301,-0.8395,-0.7102,-0.5223,-0.2154,0.0426,0.198,0.4209,0.5946,0.6669,0.8471,1.0278,1.2053,1.4206,1.6357,1.838,2.02,2.1609,2.2637,2.2982,2.3356,2.3979,2.4286,2.5228,2.657,2.7996,2.9647,3.1464,3.4209,3.6415,3.8247,4.0513,4.207,4.3174,4.3509,4.3747,4.3889,4.3347,4.3396,4.383,4.4497,4.4394,4.3871,4.3783,4.3226,4.2482,4.2006,4.1816,4.1946,4.2864,4.4235,4.5675,4.6503,4.7574,4.8301,4.759,4.7273,4.6751,4.5461,4.6312,4.6833,4.5014,4.5723,4.5836,4.3073,4.2074,4.1035,3.9166,3.7424,3.5611,3.3618,3.3322,3.3583,3.429,3.5096,3.5314,3.4736,3.4753,3.5494,3.7077,3.7402,3.8781,4.1601,4.1986,4.2669,4.3899,4.4153,4.428,4.426,4.5006,4.5522,4.5822,4.7524,4.8335,4.8469,5.0886,5.1952,5.1943,5.2292,5.2485,5.2472,5.1713,5.0445,4.9049,5.0085,4.9616,4.833,4.781,4.6277,4.4236,-1.0685,-1.0879,-1.0854,-1.0336,-0.987,-0.9305,-0.8607,-0.7802,-0.6634,-0.4653,-0.1467,0.1297,0.2973,0.5539,0.7718,0.8969,1.0483,1.2262,1.4564,1.6872,1.8723,2.0218,2.2225,2.3628,2.4093,2.4705,2.5043,2.5206,2.5718,2.6291,2.6935,2.8283,2.9685,3.1117,3.3781,3.6045,3.8029,4.0766,4.2447,4.3449,4.3568,4.3429,0.0,4.2841,4.2389,4.2088,4.3213,4.3267,4.282,4.2711,4.2314,4.1798,4.146,4.1518,4.1939,4.2811,4.4007,4.5301,4.6283,4.7353,4.819,4.7947,4.8016,4.7843,4.6629,4.7099,4.7305,4.5696,4.5455,4.4938,4.3123,4.1364,3.9338,3.6762,3.5024,3.3588,3.2338,3.2171,3.2397,3.2968,3.332,3.3164,3.2344,3.3314,3.4396,3.5257,3.5808,3.7065,3.9296,4.0112,4.0957,4.1909,4.227,4.2474,4.2447,4.3228,4.3811,4.4229,4.558,4.6627,4.7429,4.8946,5.0035,5.0771,5.0832,5.1057,5.123,5.054,4.9336,4.8049,4.8753,4.8268,4.7099,4.5678,4.442,4.3104,-0.9442,-0.9814,-0.9912,-0.9624,-0.8621,-0.761,-0.6913,-0.6159,-0.5196,-0.3718,-0.0534,0.2399,0.4249,0.6629,0.9105,1.1345,1.2925,1.4831,1.7272,1.9074,2.0757,2.2226,2.3944,2.5128,2.5805,2.6623,2.6862,2.6566,2.7213,2.7309,2.7063,2.842,2.9477,3.0383,3.314,3.552,3.7496,4.1082,4.2729,4.3092,4.3211,4.2815,4.2137,4.2518,4.1654,4.0437,4.1376,4.1774,4.1862,4.1643,4.1318,4.1013,4.1086,4.1507,4.2077,4.2856,4.3857,4.4844,4.5552,4.6469,4.7416,4.7959,4.8602,4.8769,4.757,4.7758,4.773,4.6269,4.4708,4.374,4.4146,4.1168,3.767,3.4634,3.3055,3.1918,3.1135,3.0977,3.1003,3.1211,3.1831,0.0,3.105,3.2421,3.363,3.4228,3.4443,3.5308,3.7094,3.8632,3.9606,3.9949,4.0625,4.0983,4.0987,4.166,4.249,4.3354,4.42,4.5476,4.7089,4.7377,4.8306,4.9726,4.9055,4.9176,4.9707,4.8567,4.7586,4.6732,4.6068,4.5905,4.5768,4.3542,4.2293,4.1407,-0.8615,-0.8771,-0.8706,-0.8375,-0.7114,-0.5591,-0.3616,-0.257,-0.115,0.1156,0.4998,0.7668,0.8304,0.9723,1.1363,1.3162,1.4686,1.6221,1.8091,1.9812,2.1371,2.255,2.4006,2.5128,2.5805,2.588,2.5837,2.5522,2.5419,2.5148,2.4731,2.685,2.8029,2.854,3.1297,3.4273,3.7461,3.977,4.0929,4.1318,4.1519,4.1453,4.1296,4.155,4.1077,4.0315,4.0569,4.0745,4.0855,4.0821,4.0883,4.0894,4.046,4.0865,4.16,4.1877,4.3042,4.4295,4.4638,4.5692,4.6847,4.7815,4.7747,4.7537,4.7943,4.7604,4.6966,4.5951,4.55,4.4541,4.2143,3.966,3.6933,3.3759,3.3539,3.3527,3.2849,3.2192,3.2076,3.2889,3.3085,3.2848,3.1948,3.2812,3.3123,3.2511,3.3188,3.4622,3.6917,3.7435,3.8586,4.0645,4.0898,4.1008,4.0991,4.1061,4.1602,4.2538,4.3334,4.4298,4.5389,4.6796,4.7617,4.7963,4.8439,4.8659,4.8612,4.7819,4.6787,4.5631,4.392,4.3731,4.4188,4.233,4.056,3.8767,-0.7603,-0.7519,-0.7221,-0.653,-0.5018,-0.3043,-0.0525,0.1395,0.2596,0.2895,0.5863,0.8336,0.9075,1.1176,1.3319,1.4918,1.6137,1.7475,1.9179,2.07,2.2085,2.316,2.4392,2.5361,2.5967,2.6171,2.5914,2.4935,2.5085,2.4701,2.3869,2.5563,2.6516,2.7058,3.0877,3.4243,3.7122,3.9529,4.0562,4.0605,4.1259,4.1023,4.0369,4.0541,4.016,3.9534,3.9622,3.9785,3.9927,3.9893,4.0107,4.0303,4.0189,4.0693,4.1391,4.1788,4.2583,4.3385,4.3762,4.4741,4.5897,4.6945,4.7367,4.7604,4.8077,4.7883,4.7274,4.6017,4.5359,4.4073,4.0995,3.8252,3.5959,3.4481,3.3504,3.2996,3.3114,3.2867,3.2689,3.2728,3.3125,3.289,3.16,3.2226,3.2342,3.1434,3.2211,3.3594,3.5638,3.6672,3.8135,4.0218,4.0759,4.1203,4.1637,4.1523,4.1875,4.2724,4.2997,4.3612,4.4519,4.5289,4.5981,4.656,4.6878,4.6829,4.6452,4.4772,4.3939,4.3541,4.2151,4.2285,4.3043,4.1085,3.9373,3.7734,-0.6667,-0.625,-0.5465,-0.4314,-0.2671,-0.0525,0.2267,0.4728,0.5978,0.48,0.6732,0.8669,0.9945,1.2548,1.4895,1.6486,1.7459,1.8671,2.0277,2.1541,2.2715,2.361,2.4756,2.5542,2.6067,2.6498,2.6028,2.4687,2.4927,2.4472,2.3304,2.4429,2.5495,2.672,3.1075,3.4207,3.6352,3.8843,3.9973,4.0023,4.0679,4.0339,3.939,3.9617,3.9313,3.8821,3.8985,3.9148,3.9202,3.9342,3.9468,3.9781,4.0188,4.0693,4.1255,4.1831,4.2287,4.2688,4.3105,4.3866,4.4841,4.5927,4.6717,4.728,4.7498,4.7515,4.7078,4.5782,4.4701,4.3047,4.011,3.7718,3.6031,3.5431,3.4058,3.3186,3.3585,3.3725,3.3526,3.2748,3.2925,3.2613,3.1262,3.1242,3.1053,3.0542,3.1311,3.2682,3.4679,3.6123,3.7804,3.9816,4.0714,4.1473,4.2091,4.2312,4.279,4.3461,4.349,4.3962,4.4804,4.4587,4.5025,4.5863,4.5518,4.4956,4.407,4.1827,4.1138,4.148,4.0787,4.1164,4.1821,3.9977,3.8377,3.688,-0.5863,-0.4818,-0.3386,-0.1952,-0.0106,0.1946,0.4435,0.6811,0.8446,0.9106,1.0522,1.2045,1.3578,1.4877,1.6274,1.7674,1.8916,1.9952,2.1113,2.211,2.2921,2.3505,2.452,2.537,2.5781,2.6084,2.5775,2.4935,2.4039,2.3259,2.2568,2.3359,2.561,2.908,3.13,3.3191,3.4831,3.6414,3.7809,3.8901,3.8467,3.8316,3.8391,3.8753,3.8776,3.8688,3.9094,3.9094,3.8931,3.9309,3.9606,3.9781,4.0188,4.0631,4.1117,4.1515,4.2121,4.2649,4.2882,4.3358,4.4026,4.4971,4.4997,4.4945,4.5656,4.5359,4.4879,4.4756,4.3516,4.1728,3.9169,3.9136,3.8535,3.5665,3.6293,3.6734,3.5531,3.5446,3.5181,3.4445,3.3083,3.2126,3.1924,2.9943,2.8901,2.9506,3.0401,3.2199,3.5174,3.5699,3.7308,4.0331,4.1339,4.1802,4.1763,4.3129,4.4106,4.4746,4.5495,4.6359,4.7146,4.6474,4.6301,4.645,4.5416,4.3877,4.2078,4.0732,4.0172,4.016,3.9983,4.0103,4.0316,3.9325,3.7555,3.5332,-0.3043,-0.2046,-0.0832,0.0637,0.2453,0.4514,0.7018,0.9071,1.0773,1.1973,1.2842,1.3717,1.4804,1.6311,1.7477,1.8408,1.9554,2.0585,2.1522,2.2275,2.3044,2.3914,2.4394,2.4934,2.563,2.5934,2.565,2.4582,2.4522,2.3745,2.2315,2.34,2.5242,2.783,3.0303,3.2256,3.3774,3.5872,3.6998,3.7468,3.7897,3.7975,3.795,3.8319,3.8432,3.8511,3.8492,3.8644,3.8974,3.902,3.9394,3.9884,4.0288,4.0823,4.13,4.1648,4.2037,4.249,4.2729,4.3105,4.3644,4.466,4.4957,4.5065,4.5455,4.5444,4.517,4.4772,4.3441,4.2025,4.1018,3.951,3.8229,3.7414,3.7104,3.6818,3.6342,3.5958,3.5227,3.3958,3.2776,3.1831,3.132,2.9867,2.9283,3.0135,2.9628,3.0508,3.3231,3.4365,3.627,3.9096,4.0731,4.1805,4.2348,4.3197,4.4005,4.4813,4.5545,4.5886,4.5846,4.5949,4.5556,4.4615,4.3213,4.1687,4.0076,3.9316,3.8983,3.8886,3.8829,3.9282,3.9761,3.8441,3.6874,3.5251,-0.0737,0.021,0.1485,0.3605,0.5094,0.6813,0.9201,1.0899,1.2436,1.3727,1.4256,1.49,1.5672,1.7054,1.8227,1.884,1.9876,2.075,2.1476,2.2114,2.2799,2.3654,2.4055,2.4486,2.5209,2.5735,2.5494,2.4559,2.4751,2.4327,2.3141,2.5361,2.717,2.8637,3.0787,3.2359,3.355,3.5442,3.6205,3.6285,3.7002,3.7272,3.725,3.7431,3.7721,3.8019,3.7958,3.836,3.8941,3.9108,3.9362,3.9783,4.0383,4.0918,4.138,4.1648,4.1995,4.2287,4.2534,4.2882,4.3396,4.4193,4.4683,4.4947,4.5034,4.5244,4.518,4.4433,4.3253,4.2267,4.1968,3.9838,3.826,3.8646,3.7851,3.7053,3.6762,3.6118,3.5094,3.3439,3.2094,3.1036,3.0459,2.9352,2.9035,2.9869,2.887,2.937,3.2103,3.358,3.5553,3.8298,4.0425,4.1943,4.2886,4.3629,4.432,4.4976,4.5707,4.5848,4.5469,4.5571,4.4676,4.2989,4.1688,4.0261,3.8753,3.8512,3.8295,3.8004,3.8141,3.8528,3.8842,3.7529,3.6136,3.4739,0.0652,0.1527,0.34,0.7038,0.7814,0.8673,1.0789,1.211,1.3207,1.4062,1.4922,1.5672,1.6217,1.7054,1.8108,1.9168,1.9882,2.06,2.1114,2.1665,2.2153,2.2592,2.3359,2.4067,2.4509,2.5164,2.5419,2.5233,2.453,2.459,2.5326,2.9957,3.2393,3.2829,3.3503,3.4041,3.4433,3.478,3.5139,3.5472,3.5246,3.5517,3.6079,3.5896,3.6364,3.7173,3.7773,3.8339,3.8898,3.9625,3.953,3.9316,4.0418,4.0965,4.1186,4.1515,4.1866,4.2163,4.2287,4.2729,4.3251,4.3463,4.3767,4.4023,4.4023,4.4237,4.4215,4.3461,4.2737,4.1933,4.1067,4.0239,3.9467,3.8816,3.8746,3.8303,3.6986,3.6151,3.5085,3.3417,3.1013,2.9519,2.9419,2.7909,2.7257,2.8067,2.8001,2.935,3.2697,3.3677,3.5468,3.8512,4.0801,4.237,4.3079,4.4587,4.5447,4.5594,4.6477,4.7013,4.7239,4.5862,4.4162,4.2284,4.1509,4.0056,3.8209,3.8631,3.8405,3.7838,3.807,3.7904,3.7357,3.6736,3.5272,3.3561,0.3169,0.4515,0.6116,0.7593,0.9023,1.0335,1.1782,1.298,1.4062,1.4708,1.5148,1.5791,1.6524,1.7674,1.8632,1.9272,2.0304,2.1098,2.1691,2.1837,2.2227,2.3138,2.3448,2.3725,2.4013,2.4652,2.4922,2.4559,2.4751,2.523,2.5946,2.8838,3.0608,3.1364,3.2457,3.2873,3.28,3.3743,3.4032,3.3819,3.4301,3.4575,3.4775,3.5225,3.6087,3.6933,3.6365,3.7,3.8011,3.7669,3.7846,3.8323,3.9078,3.9544,3.9887,3.9896,4.0581,4.1339,4.1462,4.1821,4.2414,4.3281,4.3192,4.3098,4.3844,4.414,4.4026,4.3315,4.257,4.1844,4.1229,4.0265,3.9496,3.9353,3.8935,3.7997,3.6122,3.5256,3.4187,3.2463,3.1033,3.018,3.0131,2.9147,2.8573,2.8902,2.7852,2.8161,3.0397,3.2569,3.4795,3.7041,4.0064,4.1894,4.2396,4.338,4.3987,4.4272,4.519,4.578,4.5917,4.3217,4.1617,4.085,3.9145,3.7753,3.6735,3.7132,3.7035,3.6638,3.695,3.7032,3.6849,3.5677,3.4408,3.3225,0.497,0.6251,0.7544,0.8374,0.9957,1.1414,1.2455,1.363,1.4493,1.4826,1.5267,1.5767,1.628,1.7513,1.8551,1.8978,1.999,2.0687,2.1252,2.1445,2.2007,2.282,2.3124,2.3216,2.3288,2.3906,2.4083,2.3838,2.4733,2.5637,2.6441,2.8107,2.9416,3.0362,3.1557,3.1929,3.1797,3.2103,3.2025,3.183,3.27,3.3126,3.3417,3.4073,3.4928,3.58,3.5388,3.6072,3.7077,3.6754,3.6947,3.7415,3.7922,3.8235,3.8467,3.907,3.9847,4.0597,4.0724,4.0993,4.147,4.2368,4.2279,4.212,4.2791,4.3027,4.2932,4.2499,4.1876,4.136,4.1135,4.0164,3.9462,3.9596,3.9337,3.8274,3.5803,3.4008,3.258,3.1438,3.0268,2.9515,2.9525,2.9312,2.9201,2.9303,2.8851,2.9045,3.0172,3.2134,3.4251,3.6593,3.9552,4.1567,4.2511,4.2725,4.2981,4.3369,4.4093,4.4546,4.4537,4.1867,4.0432,3.9917,3.8144,3.6802,3.5909,3.6594,3.647,3.586,3.5991,3.5851,3.5409,3.4376,3.3276,3.2356,0.6047,0.6791,0.7844,0.9196,1.0723,1.1988,1.2801,1.3846,1.46,1.46,1.5137,1.5577,1.5848,1.6793,1.7775,1.86,1.9039,1.9636,2.0356,2.0754,2.1266,2.1961,2.2492,2.2609,2.2411,2.3041,2.3218,2.3001,2.449,2.5732,2.6721,2.7601,2.8604,2.9678,3.0719,3.1182,3.1216,3.009,2.961,2.9692,3.0614,3.1397,3.1985,3.253,3.3279,3.4125,3.4633,3.5347,3.6066,3.6682,3.6637,3.6464,3.6956,3.6955,3.705,3.8807,3.9545,3.9779,4.0016,4.0239,4.0526,4.0943,4.1107,4.1204,4.1167,4.1162,4.1119,4.1139,4.0667,4.0337,4.071,3.9885,3.9126,3.9034,3.9223,3.8408,3.5534,3.2444,3.047,3.041,2.896,2.7976,2.8066,2.8743,2.9245,2.9351,3.0484,3.1312,3.1571,3.2181,3.3921,3.703,3.9277,4.1263,4.2976,4.2443,4.2431,4.2936,4.3169,4.3272,4.3286,4.1544,4.0274,3.9451,3.8198,3.6845,3.5609,3.6692,3.6418,3.5273,3.5133,3.4407,3.3327,3.2885,3.1992,3.0976,0.6366,0.7276,0.8364,0.9339,1.0675,1.1946,1.2999,1.3856,1.4515,1.503,1.5188,1.5455,1.6122,1.6439,1.6952,1.7945,1.8969,1.9808,2.0356,2.0663,2.0962,2.136,2.1795,2.1824,2.1528,2.2329,2.2921,2.3224,2.3768,2.4539,2.5657,2.5615,2.6476,2.8082,2.8545,2.92,2.9953,2.9827,2.9693,2.9659,3.0107,3.0715,3.1396,3.1826,3.2645,3.3531,3.3388,3.3994,3.4825,3.4729,3.4791,3.5018,3.5412,3.5735,3.6191,3.7271,3.8192,3.8925,3.9153,3.9373,3.9732,4.0625,4.0976,4.1042,4.1107,4.0662,4.013,3.9653,3.899,3.8664,3.9266,3.8562,3.6584,3.2695,3.2824,3.2683,3.0561,2.9763,2.9374,2.9374,2.8956,2.891,2.9589,2.9906,3.0122,3.0195,2.9954,3.0315,3.1613,3.2247,3.4014,3.724,3.8946,4.0116,4.0731,4.0861,4.1441,4.2447,4.189,4.2008,4.2572,4.0174,3.8973,3.8659,3.6872,3.5659,3.494,3.5385,3.5041,3.4253,3.4133,3.3421,3.2396,3.1629,3.0734,2.9854,0.7931,0.8263,0.8863,0.9927,1.1285,1.2441,1.3237,1.3759,1.4407,1.5041,1.5129,1.5335,1.5831,1.603,1.6497,1.7332,1.844,1.9471,2.0121,2.0331,2.0554,2.0953,2.1286,2.1313,2.0889,2.1769,2.233,2.2777,2.2959,2.364,2.4613,2.5081,2.5635,2.6307,2.7162,2.8133,2.9062,2.9023,2.8729,2.8429,2.9454,2.9915,3.0105,3.0895,3.1537,3.1905,3.1958,3.2191,3.251,3.2475,3.2752,3.3145,3.3496,3.4006,3.4583,3.5214,3.6611,3.7916,3.8219,3.8151,3.8075,3.8518,3.8684,3.8747,3.8841,3.8566,3.8184,3.78,3.7479,3.7313,3.7728,3.6679,3.4476,3.0568,2.9719,2.9347,2.8643,2.78,2.7681,2.8823,2.8798,2.9078,3.0098,3.0266,3.034,3.0443,3.0714,3.1251,3.2127,3.3485,3.5064,3.6896,3.7679,3.841,3.9019,3.9362,4.007,4.1172,4.1114,4.1355,4.1748,3.9836,3.8739,3.8222,3.6589,3.5277,3.4283,3.4207,3.3619,3.2767,3.231,3.1516,3.0488,2.9834,2.9144,2.855,0.9853,0.9389,0.9368,1.0688,1.2172,1.3189,1.3376,1.3867,1.4299,1.473,1.4895,1.5136,1.5405,1.5901,1.6388,1.6994,1.79,1.8796,1.9662,1.9809,2.0114,2.0512,2.0866,2.0806,2.0491,2.1273,2.1781,2.192,2.2228,2.2839,2.3709,2.5134,2.5481,2.4949,2.6223,2.7392,2.8352,2.7934,2.7386,2.7054,2.8581,2.9016,2.8879,2.9985,3.0221,2.998,3.0338,3.025,3.009,3.0423,3.088,3.1244,3.1662,3.2177,3.2763,3.3237,3.4794,3.6439,3.7001,3.6684,3.6137,3.5805,3.5811,3.5835,3.5834,3.5882,3.5938,3.5882,3.5864,3.5892,3.6104,3.4565,3.2551,3.0373,2.8577,2.7657,2.8145,2.6577,2.6178,2.844,2.858,2.8924,3.007,3.0199,3.0356,3.0722,3.1851,3.2684,3.3111,3.4864,3.5851,3.5811,3.6009,3.6549,3.752,3.7692,3.8357,3.957,4.0194,4.0663,4.0859,3.9641,3.8681,3.7932,3.6488,3.495,3.344,3.3127,3.2315,3.115,3.0388,2.943,2.8427,2.7926,2.7444,2.7037,1.0429,0.9625,0.9596,1.1782,1.3158,1.406,1.4094,1.4191,1.4407,1.4934,1.4839,1.4934,1.5708,1.6011,1.6427,1.7153,1.7807,1.8333,1.8775,1.9229,1.9436,1.9454,1.988,2.0068,2.0055,2.0684,2.1028,2.111,2.1669,2.2293,2.3157,2.465,2.5301,2.522,2.5162,2.5946,2.7222,2.6375,2.6594,2.7397,2.7417,2.8029,2.9053,2.9501,2.9252,2.868,2.8568,2.8759,2.9148,2.9505,2.9849,3.032,3.0697,3.1177,3.1789,3.2393,3.2789,3.3362,3.483,3.4972,3.4722,3.4677,3.4854,3.4906,3.4385,3.4318,3.4386,3.4476,3.3809,3.3463,3.4397,3.2481,3.0403,2.9355,2.8413,2.7624,2.7062,2.6441,2.6466,2.7675,2.8374,2.9136,3.0109,3.0228,3.0868,3.2314,3.1979,3.2546,3.4556,3.4387,3.3911,3.3114,3.4466,3.536,3.5683,3.5125,3.6073,3.8527,3.8034,3.857,3.9958,3.8021,3.73,3.7453,3.5297,3.344,3.1947,3.2126,3.1323,2.9908,2.9333,2.8524,2.7459,2.6302,2.5637,2.5269,1.061,1.0712,1.1564,1.3835,1.4288,1.4191,1.4191,1.4191,1.4415,1.4873,1.5021,1.5251,1.5818,1.5989,1.6197,1.6857,1.7419,1.7766,1.7976,1.8649,1.9093,1.9029,1.9372,1.9752,2.0117,2.0275,2.044,2.069,2.0427,2.1156,2.2827,2.412,2.4517,2.419,2.465,2.5351,2.6029,2.5252,2.5469,2.64,2.6973,2.738,2.7669,2.8447,2.8298,2.7732,2.8048,2.7883,2.7566,2.7835,2.8042,2.8241,2.8819,2.9095,2.9406,3.0125,3.1416,3.2651,3.2827,3.2882,3.2845,3.2565,3.2746,3.291,3.2748,3.2464,3.2423,3.3189,3.245,3.147,3.0987,2.9896,2.8587,2.7136,2.6753,2.656,2.6269,2.5946,2.6094,2.7051,2.756,2.8466,3.0164,2.987,3.0304,3.202,3.2077,3.2737,3.4323,3.4039,3.343,3.2547,3.2728,3.3068,3.357,3.4199,3.543,3.7269,3.7536,3.8143,3.901,3.7864,3.6845,3.5932,3.448,3.251,3.0328,3.0095,2.917,2.7829,2.7253,2.6411,2.5413,2.4472,2.3974,2.3837,1.1455,1.2327,1.348,1.5188,1.4767,1.4173,1.4173,1.4068,1.4145,1.4968,1.5202,1.5405,1.5836,1.5923,1.6116,1.6588,1.7044,1.7368,1.732,1.8088,1.8667,1.878,1.9219,1.9641,2.0196,2.0005,2.0019,2.0317,1.9555,2.0206,2.2042,2.2999,2.3347,2.3217,2.4189,2.4536,2.4463,2.433,2.4493,2.4935,2.6148,2.656,2.6591,2.7564,2.7493,2.6916,2.794,2.7248,2.5964,2.63,2.6233,2.6074,2.6762,2.6969,2.7118,2.7822,2.9575,3.1244,3.073,3.067,3.0659,3.0188,3.0239,3.0455,3.0531,3.025,3.0176,3.0803,3.0294,2.9028,2.6828,2.657,2.6152,2.4444,2.4937,2.5422,2.5273,2.5449,2.5859,2.6655,2.7023,2.7862,2.9638,2.934,2.9716,3.1418,3.2142,3.2868,3.3794,3.3799,3.3316,3.222,3.1229,3.1083,3.1749,3.3355,3.4732,3.5799,3.6858,3.755,3.7942,3.7261,3.5998,3.428,3.3231,3.1168,2.8492,2.785,2.6826,2.559,2.4932,2.4116,2.319,2.2564,2.2234,2.219,1.3738,1.4385,1.468,1.4413,1.4342,1.4316,1.4316,1.355,1.3442,1.4858,1.5256,1.5432,1.581,1.6019,1.6319,1.6588,1.7044,1.7272,1.7206,1.7528,1.8051,1.8614,1.9406,1.9857,1.996,1.9904,1.9792,1.9696,1.9597,1.9797,2.0239,2.0904,2.1901,2.2996,2.349,2.3006,2.2,2.3549,2.3886,2.3494,2.3886,2.5199,2.696,2.742,2.683,2.6011,2.7903,2.6891,2.4807,2.5395,2.4997,2.439,2.4948,2.5342,2.5738,2.647,2.6687,2.7026,2.8514,2.8564,2.8164,2.7777,2.7778,2.772,2.7179,2.7463,2.7492,2.6195,2.6273,2.5473,2.2061,2.2003,2.2241,2.1603,2.3551,2.4799,2.3815,2.5241,2.6463,2.6612,2.7257,2.7845,2.8066,2.8643,2.9666,3.1269,3.2015,3.2767,3.3583,3.3743,3.3005,3.1245,3.0393,3.021,3.0722,3.177,3.2871,3.3999,3.4756,3.5652,3.6559,3.4901,3.379,3.3211,3.0951,2.8627,2.6314,2.5664,2.4752,2.3608,2.2799,2.2087,2.149,2.0687,2.0187,1.9889,1.4708,1.4895,1.5033,1.4832,1.4457,1.4292,1.4292,1.4016,1.4208,1.5356,1.5269,1.5191,1.5536,1.5631,1.5844,1.603,1.6397,1.6565,1.6414,1.7086,1.766,1.8206,1.8985,1.9316,1.9311,1.9548,1.9596,1.9412,1.9808,2.0068,2.0346,2.0958,2.1594,2.2264,2.2527,2.2308,2.1712,2.1977,2.2351,2.2794,2.3677,2.4893,2.6214,2.6425,2.6637,2.6935,2.7659,2.609,2.371,2.3944,2.3462,2.2907,2.404,2.4113,2.382,2.4172,2.4429,2.468,2.482,2.5302,2.5887,2.6368,2.6304,2.6176,2.6423,2.6126,2.5528,2.48,2.3964,2.2819,2.0821,2.0917,2.1338,2.1562,2.3119,2.4207,2.4114,2.4673,2.5026,2.4884,2.5142,2.5614,2.6392,2.7293,2.8664,3.0683,3.1408,3.2095,3.3053,3.2732,3.1878,3.0528,3.055,3.0658,3.0907,3.1522,3.2434,3.3669,3.4043,3.468,3.5479,3.44,3.3435,3.2469,3.0158,2.7882,2.5713,2.4172,2.2712,2.1375,2.0657,1.9762,1.8899,1.8563,1.8213,1.7888,1.4976,1.4977,1.4975,1.5093,1.469,1.4425,1.4316,1.4292,1.4675,1.5642,1.5484,1.5311,1.5511,1.5538,1.5631,1.5817,1.6007,1.6099,1.5951,1.6639,1.7305,1.8091,1.8626,1.8959,1.9011,1.9311,1.9496,1.9371,1.9773,2.0095,2.044,2.052,2.0769,2.1247,2.1254,2.1063,2.0715,2.0614,2.1009,2.1776,2.3393,2.4496,2.5269,2.5886,2.6584,2.7188,2.7459,2.5845,2.358,2.3193,2.2506,2.2043,2.3231,2.3097,2.2469,2.2077,2.2396,2.267,2.1881,2.231,2.3223,2.4352,2.4287,2.4137,2.4689,2.4271,2.3562,2.2936,2.2463,2.1664,2.0115,2.0285,2.0762,2.1267,2.242,2.3321,2.3498,2.3669,2.3734,2.3529,2.349,2.3891,2.4929,2.5929,2.7466,2.9803,3.0568,3.1311,3.2109,3.1481,3.0844,3.0342,3.0835,3.1039,3.094,3.132,3.1938,3.2791,3.327,3.379,3.4296,3.3819,3.2829,3.1354,2.9017,2.679,2.4607,2.2253,2.0446,1.9109,1.8259,1.7407,1.6687,1.6529,1.6248,1.6075,1.4608,1.471,1.4814,1.5048,1.4973,1.4714,1.4352,1.4292,1.4675,1.5642,1.5832,1.5832,1.5832,1.5832,1.5818,1.5818,1.6021,1.6101,1.58,1.633,1.7069,1.8263,1.868,1.8918,1.9011,1.9231,1.939,1.9566,1.939,1.9621,2.0235,1.9112,1.9121,1.9997,1.9492,1.9062,1.875,1.9696,2.0072,2.0226,2.2644,2.3801,2.4345,2.5917,2.6502,2.6559,2.7249,2.6309,2.4633,2.3477,2.2438,2.1783,2.2325,2.2311,2.1821,2.0419,2.0436,2.0826,2.0097,1.9831,2.013,2.1458,2.1589,2.1384,2.1425,2.1648,2.1515,2.0094,2.1535,2.2248,1.9564,1.9696,2.016,2.0102,2.1344,2.207,2.1503,2.2269,2.2892,2.289,2.2812,2.3047,2.3717,2.4643,2.6203,2.8592,2.9627,3.0331,3.0651,3.006,3.0013,3.0758,3.1145,3.107,3.0503,3.0965,3.1166,3.1108,3.2246,3.2857,3.2997,3.2861,3.1738,2.9753,2.7352,2.4953,2.2551,1.9762,1.7954,1.6877,1.5615,1.5035,1.484,1.4683,1.4462,1.4309,1.4344,1.4589,1.4712,1.4825,1.457,1.4425,1.4316,1.4292,1.4675,1.5642,1.5777,1.5695,1.5465,1.5188,1.5058,1.5245,1.5523,1.5712,1.5652,1.5734,1.6126,1.6956,1.7794,1.8394,1.8594,1.8772,1.8931,1.8931,1.9201,1.9418,1.9608,1.9563,1.9525,1.95,1.9107,1.8695,1.8321,1.8432,1.9054,2.0012,2.0836,2.2143,2.372,2.4564,2.5154,2.5552,2.6473,2.5329,2.3193,2.2066,2.1433,2.1071,2.0762,2.0543,2.0216,1.92,1.9397,1.9843,1.9387,1.946,1.9961,2.1148,2.1116,2.0843,2.1126,2.1348,2.1204,2.0288,1.9867,1.9359,1.8108,1.8115,1.8714,1.9969,2.0657,2.1131,2.1413,2.1666,2.1914,2.2284,2.1023,2.0419,2.1193,2.3071,2.4849,2.6353,2.6927,2.7485,2.8214,2.8371,2.9331,3.1287,3.2138,3.2199,3.1406,3.0497,3.0252,3.0757,3.1142,3.1879,3.2906,3.2064,3.1132,2.9966,2.6228,2.3489,2.1376,1.7532,1.5359,1.4337,1.3325,1.2848,1.2847,1.301,1.2908,1.2683,1.4278,1.4457,1.4558,1.4655,1.4509,1.4292,1.4292,1.4292,1.4484,1.5153,1.5191,1.5204,1.5083,1.493,1.4922,1.5191,1.5232,1.5429,1.5589,1.5419,1.5658,1.6386,1.7139,1.7708,1.8193,1.8531,1.8692,1.8692,1.8849,1.8988,1.9134,1.9136,1.8911,1.8661,1.8348,1.7875,1.7424,1.757,1.8225,1.9219,1.9777,2.0962,2.254,2.3329,2.399,2.4523,2.4583,2.3986,2.2911,2.1459,2.0798,2.0388,1.9666,1.9516,1.9319,1.8337,1.8498,1.8919,1.866,1.8999,1.9595,2.042,2.0372,2.012,2.0209,2.0187,1.9837,1.8936,1.787,1.707,1.6943,1.7462,1.8439,1.9979,2.0531,2.0716,2.0631,2.0755,2.0727,2.0408,1.9513,1.8888,1.8755,2.0828,2.2876,2.4514,2.4985,2.5491,2.6271,2.7107,2.8881,3.1776,3.2731,3.2774,3.1964,3.0742,2.9805,2.9059,2.9708,3.0341,3.0954,3.0847,2.979,2.7823,2.4257,2.0939,1.7823,1.4155,1.239,1.1854,1.0976,1.0953,1.1515,1.1407,1.1378,1.1476,1.4112,1.4292,1.44,1.4592,1.44,1.4292,1.4292,1.4292,1.4292,1.4196,1.4196,1.44,1.47,1.4892,1.5166,1.5452,1.5206,1.5129,1.5562,1.5262,1.5492,1.6304,1.6566,1.7057,1.787,1.8371,1.8594,1.8559,1.844,1.85,1.8806,1.8145,1.7803,1.7728,1.7318,1.6841,1.6369,1.7131,1.7661,1.8247,1.931,2.0256,2.1054,2.2162,2.2913,2.3328,2.2208,2.2492,2.3197,2.1354,2.0336,1.9687,1.8947,1.8892,1.8917,1.7739,1.7731,1.8114,1.8048,1.8535,1.9122,1.9469,1.951,1.9348,1.9057,1.8568,1.7906,1.6763,1.5698,1.5269,1.6235,1.759,1.896,2.0147,2.0532,2.0386,1.9467,1.9763,1.9484,1.8002,1.8391,1.8052,1.6275,1.8135,2.0479,2.2849,2.3398,2.3925,2.4696,2.6179,2.8596,3.215,3.3024,3.3101,3.2406,3.1714,2.9799,2.6734,2.8067,2.8219,2.7371,2.8449,2.6677,2.266,2.0085,1.6354,1.1904,0.9506,0.8784,0.9135,0.8643,0.9238,1.0432,0.9865,1.0037,1.0606,1.3688,1.3823,1.4124,1.4304,1.4112,1.4016,1.4304,1.4292,1.4004,1.3244,1.3811,1.4208,1.4027,1.4304,1.4688,1.5178,1.5022,1.5129,1.5562,1.5262,1.5325,1.5824,1.6237,1.6648,1.6976,1.7465,1.7734,1.7761,1.7752,1.7674,1.76,1.761,1.7521,1.7336,1.6981,1.6826,1.6776,1.6652,1.7222,1.8331,1.8587,1.9425,2.0629,2.066,2.1129,2.1804,2.2315,2.2239,2.1682,2.0403,1.9347,1.8413,1.7991,1.795,1.7852,1.6931,1.6979,1.7519,1.8322,1.8448,1.854,1.9207,1.9158,1.9041,1.9381,1.8429,1.7325,1.6976,1.451,1.3547,1.7311,1.8309,1.8935,2.0256,1.8863,1.814,1.9572,1.9237,1.8864,1.8866,1.8685,1.7061,1.3199,1.5794,1.8611,2.0783,2.025,2.0954,2.3581,2.5133,2.8052,3.2676,3.397,3.4375,3.4002,3.2939,3.0581,2.7036,2.7162,2.5449,2.2065,2.0027,1.5631,0.9451,0.6262,0.3862,0.218,0.1768,0.313,0.5535,0.6487,0.7492,0.8338,0.9029,0.9546,1.0328,1.3311,1.3545,1.3738,1.3919,1.3823,1.3919,1.4292,1.4292,1.41,1.363,1.4004,1.4208,1.4016,1.4208,1.4435,1.4798,1.4943,1.4986,1.5103,1.5007,1.4992,1.5242,1.5575,1.5831,1.6006,1.6249,1.6637,1.7232,1.6985,1.6954,1.6977,1.6954,1.6867,1.6702,1.6586,1.6468,1.6277,1.6281,1.6808,1.7675,1.8018,1.8738,1.9687,1.9916,2.0446,2.119,2.167,2.1313,2.0433,1.9216,1.8377,1.7823,1.7377,1.7209,1.7148,1.669,1.6784,1.715,1.7624,1.7914,1.8045,1.8061,1.7831,1.7898,1.8977,1.8906,1.8202,1.6852,1.4412,1.2499,1.2269,1.2422,1.1968,1.0002,0.8036,0.8085,1.1846,1.8145,2.1693,1.9806,2.0891,2.0651,1.7795,1.8106,1.8744,1.9369,1.8811,1.9689,2.2441,2.4482,2.7769,3.2606,3.3418,3.394,3.4245,3.2454,3.0006,2.7016,2.7381,2.3632,1.6421,1.6483,1.0802,0.0771,-0.0909,-0.3189,-0.5572,-0.4294,-0.1964,0.1048,0.3539,0.5447,0.6916,0.7543,0.8842,1.0533,1.3019,1.3244,1.3448,1.3545,1.363,1.3823,1.4196,1.4196,1.4208,1.4208,1.4196,1.4292,1.4196,1.4256,1.4432,1.4676,1.4721,1.4688,1.4536,1.4654,1.4657,1.4657,1.4824,1.5015,1.5102,1.5006,1.5507,1.6579,1.6207,1.6195,1.6338,1.61,1.5965,1.5869,1.5969,1.5816,1.5505,1.593,1.6419,1.689,1.7522,1.8133,1.8798,1.9378,2.0095,2.0842,2.068,2.0143,1.9285,1.8091,1.7622,1.7451,1.6879,1.6612,1.6535,1.6582,1.6639,1.6713,1.6842,1.7252,1.7474,1.6716,1.6073,1.5834,1.674,1.8019,1.8338,1.5907,1.3351,0.9702,0.3702,0.3509,0.2751,-0.1943,-0.4269,-0.3823,0.0978,1.3931,2.1723,1.8382,2.1708,2.3921,2.3056,2.0994,1.9269,1.832,1.8191,1.9156,2.1509,2.4068,2.7457,3.1986,3.2146,3.2559,3.3425,3.0974,2.8696,2.6623,2.7445,2.2364,1.229,1.3978,0.7319,-0.5604,-0.6663,-0.9358,-1.2858,-1.0384,-0.7411,-0.3958,-0.0066,0.3048,0.5463,0.6493,0.8662,1.1263,1.2813,1.305,1.3244,1.3727,1.3534,1.3619,1.4196,1.3919,1.363,1.363,1.4016,1.4208,1.3919,1.4099,1.4502,1.4929,1.4526,1.4475,1.4797,1.4569,1.4475,1.4475,1.4489,1.4421,1.4198,1.4035,1.4316,1.5209,1.5103,1.5004,1.4848,1.4709,1.4779,1.5056,1.4643,1.4882,1.5488,1.5446,1.5894,1.6645,1.6726,1.7408,1.8355,1.8414,1.9015,1.9768,1.9681,1.9199,1.8566,1.7764,1.7284,1.6925,1.6449,1.6113,1.5948,1.6075,1.5755,1.572,1.7318,1.7175,1.6472,1.6046,1.4327,1.2173,0.9972,1.2093,1.417,1.2834,0.7548,0.0764,-0.7002,-0.5734,-0.3757,-0.4588,-0.8364,-1.0511,-0.8541,0.0936,0.8197,0.9619,1.5664,1.9692,1.9641,1.9135,1.8429,1.7663,1.755,1.8625,2.1203,2.3786,2.6795,3.0394,3.0628,3.0835,3.1074,2.8615,2.6734,2.552,2.555,2.1362,1.344,0.7767,-0.0728,-1.1261,-1.7261,-2.0535,-2.1525,-1.9144,-1.4725,-0.8908,-0.4097,-0.0334,0.2979,0.7855,1.0889,1.2822,1.2709,1.2954,1.3147,1.3244,1.3437,1.363,1.3823,1.3919,1.3919,1.3919,1.4112,1.4196,1.4112,1.4493,1.4765,1.48,1.4269,1.3973,1.421,1.3979,1.3815,1.3646,1.3548,1.3336,1.3054,1.29,1.3015,1.3341,1.3809,1.3859,1.357,1.4041,1.4238,1.419,1.4235,1.4657,1.5133,1.5101,1.5498,1.6175,1.6345,1.693,1.7677,1.75,1.8031,1.8891,1.8326,1.8049,1.7835,1.6866,1.6598,1.6615,1.66,1.6338,1.6077,1.6049,1.5788,1.5546,1.5811,1.578,1.5488,1.4652,1.3337,1.1053,0.6428,0.3655,0.154,-0.0287,-0.1647,-0.4262,-0.9991,-1.3667,-1.5008,-1.2486,-1.5269,-1.6495,-1.2853,-0.6995,0.1371,1.3332,1.8631,2.1512,2.201,2.0697,1.9213,1.7786,1.7384,1.8233,2.0529,2.2462,2.4613,2.703,2.7166,2.7258,2.7463,2.5245,2.407,2.4008,2.3212,1.8717,1.1043,0.7142,-0.1609,-1.4065,-1.9647,-2.3424,-2.5481,-2.3281,-1.9393,-1.4066,-0.7149,-0.1276,0.3791,0.7551,1.0866,1.3737]}]]